<?xml version="1.0" encoding="UTF-8" standalone="no" ?>
<gpx xmlns="http://www.topografix.com/GPX/1/1" xmlns:xsi="http://www.w3.org/2001/XMLSchema-instance" xsi:schemaLocation="http://www.topografix.com/GPX/1/1 http://www.topografix.com/GPX/1/1/gpx.xsd" version="1.1" creator="VisuGPX - https://www.visugpx.com">
  <metadata>
    <name>2021-02-20 15:56:05</name>
    <desc><![CDATA[Les Demoiselles Rocher Boutigny long boyau Mont Aigu l]]></desc>
  </metadata>
  <trk>
    <name><![CDATA[2021-02-20 15:56:05]]></name>
    <trkseg>
      <trkpt lat="48.40448" lon="2.67786">
        <ele>226.97</ele>
        <time>2021-02-20T07:35:12Z</time>
      </trkpt>
      <trkpt lat="48.40446" lon="2.67788">
        <ele>224.28</ele>
        <time>2021-02-20T07:35:34Z</time>
      </trkpt>
      <trkpt lat="48.40446" lon="2.6779">
        <ele>227.38</ele>
        <time>2021-02-20T07:35:54Z</time>
      </trkpt>
      <trkpt lat="48.40446" lon="2.6779">
        <ele>227.05</ele>
        <time>2021-02-20T07:36:27Z</time>
      </trkpt>
      <trkpt lat="48.40446" lon="2.6779">
        <ele>229.11</ele>
        <time>2021-02-20T07:36:31Z</time>
      </trkpt>
      <trkpt lat="48.40447" lon="2.6779">
        <ele>229.13</ele>
        <time>2021-02-20T07:36:58Z</time>
      </trkpt>
      <trkpt lat="48.40447" lon="2.67789">
        <ele>227.23</ele>
        <time>2021-02-20T07:37:15Z</time>
      </trkpt>
      <trkpt lat="48.40444" lon="2.67787">
        <ele>227.21</ele>
        <time>2021-02-20T07:37:43Z</time>
      </trkpt>
      <trkpt lat="48.40444" lon="2.67786">
        <ele>227.21</ele>
        <time>2021-02-20T07:38:03Z</time>
      </trkpt>
      <trkpt lat="48.40444" lon="2.67785">
        <ele>227.21</ele>
        <time>2021-02-20T07:38:30Z</time>
      </trkpt>
      <trkpt lat="48.40445" lon="2.67786">
        <ele>227.21</ele>
        <time>2021-02-20T07:38:48Z</time>
      </trkpt>
      <trkpt lat="48.40445" lon="2.67785">
        <ele>227.21</ele>
        <time>2021-02-20T07:39:08Z</time>
      </trkpt>
      <trkpt lat="48.40445" lon="2.67785">
        <ele>227.21</ele>
        <time>2021-02-20T07:39:28Z</time>
      </trkpt>
      <trkpt lat="48.40445" lon="2.67783">
        <ele>227.21</ele>
        <time>2021-02-20T07:39:40Z</time>
      </trkpt>
      <trkpt lat="48.40446" lon="2.67781">
        <ele>227.21</ele>
        <time>2021-02-20T07:39:41Z</time>
      </trkpt>
      <trkpt lat="48.40446" lon="2.67779">
        <ele>227.21</ele>
        <time>2021-02-20T07:39:42Z</time>
      </trkpt>
      <trkpt lat="48.40442" lon="2.67757">
        <ele>228.36</ele>
        <time>2021-02-20T07:39:56Z</time>
      </trkpt>
      <trkpt lat="48.40441" lon="2.67728">
        <ele>227.44</ele>
        <time>2021-02-20T07:40:13Z</time>
      </trkpt>
      <trkpt lat="48.40442" lon="2.67717">
        <ele>230.06</ele>
        <time>2021-02-20T07:40:19Z</time>
      </trkpt>
      <trkpt lat="48.40436" lon="2.67683">
        <ele>228.35</ele>
        <time>2021-02-20T07:40:37Z</time>
      </trkpt>
      <trkpt lat="48.40432" lon="2.67654">
        <ele>227.86</ele>
        <time>2021-02-20T07:40:54Z</time>
      </trkpt>
      <trkpt lat="48.40432" lon="2.67653">
        <ele>227.74</ele>
        <time>2021-02-20T07:40:55Z</time>
      </trkpt>
      <trkpt lat="48.40432" lon="2.67651">
        <ele>227.6</ele>
        <time>2021-02-20T07:40:56Z</time>
      </trkpt>
      <trkpt lat="48.40433" lon="2.67644">
        <ele>226.99</ele>
        <time>2021-02-20T07:41:00Z</time>
      </trkpt>
      <trkpt lat="48.40432" lon="2.6764">
        <ele>226.64</ele>
        <time>2021-02-20T07:41:02Z</time>
      </trkpt>
      <trkpt lat="48.40431" lon="2.67639">
        <ele>226.41</ele>
        <time>2021-02-20T07:41:03Z</time>
      </trkpt>
      <trkpt lat="48.40429" lon="2.67638">
        <ele>226.19</ele>
        <time>2021-02-20T07:41:04Z</time>
      </trkpt>
      <trkpt lat="48.40422" lon="2.67634">
        <ele>225.46</ele>
        <time>2021-02-20T07:41:10Z</time>
      </trkpt>
      <trkpt lat="48.40421" lon="2.67634">
        <ele>225.88</ele>
        <time>2021-02-20T07:41:11Z</time>
      </trkpt>
      <trkpt lat="48.4042" lon="2.67633">
        <ele>226.29</ele>
        <time>2021-02-20T07:41:12Z</time>
      </trkpt>
      <trkpt lat="48.40419" lon="2.67633">
        <ele>226.74</ele>
        <time>2021-02-20T07:41:13Z</time>
      </trkpt>
      <trkpt lat="48.40418" lon="2.67632">
        <ele>226.82</ele>
        <time>2021-02-20T07:41:14Z</time>
      </trkpt>
      <trkpt lat="48.40416" lon="2.67631">
        <ele>226.87</ele>
        <time>2021-02-20T07:41:15Z</time>
      </trkpt>
      <trkpt lat="48.40388" lon="2.67623">
        <ele>226.28</ele>
        <time>2021-02-20T07:41:37Z</time>
      </trkpt>
      <trkpt lat="48.40361" lon="2.67614">
        <ele>226.1</ele>
        <time>2021-02-20T07:41:56Z</time>
      </trkpt>
      <trkpt lat="48.40354" lon="2.67608">
        <ele>225.97</ele>
        <time>2021-02-20T07:42:02Z</time>
      </trkpt>
      <trkpt lat="48.40352" lon="2.67604">
        <ele>225.87</ele>
        <time>2021-02-20T07:42:05Z</time>
      </trkpt>
      <trkpt lat="48.40342" lon="2.6759">
        <ele>225.35</ele>
        <time>2021-02-20T07:42:18Z</time>
      </trkpt>
      <trkpt lat="48.40341" lon="2.6759">
        <ele>225.32</ele>
        <time>2021-02-20T07:42:19Z</time>
      </trkpt>
      <trkpt lat="48.40339" lon="2.6759">
        <ele>225.28</ele>
        <time>2021-02-20T07:42:20Z</time>
      </trkpt>
      <trkpt lat="48.40316" lon="2.67574">
        <ele>225.81</ele>
        <time>2021-02-20T07:42:39Z</time>
      </trkpt>
      <trkpt lat="48.40299" lon="2.6755">
        <ele>225.41</ele>
        <time>2021-02-20T07:42:57Z</time>
      </trkpt>
      <trkpt lat="48.40299" lon="2.67521">
        <ele>225.58</ele>
        <time>2021-02-20T07:43:12Z</time>
      </trkpt>
      <trkpt lat="48.40286" lon="2.6748">
        <ele>225.36</ele>
        <time>2021-02-20T07:43:36Z</time>
      </trkpt>
      <trkpt lat="48.4027" lon="2.67503">
        <ele>225.76</ele>
        <time>2021-02-20T07:43:54Z</time>
      </trkpt>
      <trkpt lat="48.4025" lon="2.67527">
        <ele>224.59</ele>
        <time>2021-02-20T07:44:15Z</time>
      </trkpt>
      <trkpt lat="48.40245" lon="2.67525">
        <ele>224.38</ele>
        <time>2021-02-20T07:44:23Z</time>
      </trkpt>
      <trkpt lat="48.40242" lon="2.67523">
        <ele>224.49</ele>
        <time>2021-02-20T07:44:26Z</time>
      </trkpt>
      <trkpt lat="48.40225" lon="2.67503">
        <ele>224.09</ele>
        <time>2021-02-20T07:44:44Z</time>
      </trkpt>
      <trkpt lat="48.40213" lon="2.67478">
        <ele>224.23</ele>
        <time>2021-02-20T07:45:02Z</time>
      </trkpt>
      <trkpt lat="48.40195" lon="2.67463">
        <ele>223.51</ele>
        <time>2021-02-20T07:45:18Z</time>
      </trkpt>
      <trkpt lat="48.40175" lon="2.67449">
        <ele>223.42</ele>
        <time>2021-02-20T07:45:36Z</time>
      </trkpt>
      <trkpt lat="48.40159" lon="2.67421">
        <ele>223.73</ele>
        <time>2021-02-20T07:45:56Z</time>
      </trkpt>
      <trkpt lat="48.40138" lon="2.67397">
        <ele>223.43</ele>
        <time>2021-02-20T07:46:16Z</time>
      </trkpt>
      <trkpt lat="48.40116" lon="2.67395">
        <ele>223.67</ele>
        <time>2021-02-20T07:46:35Z</time>
      </trkpt>
      <trkpt lat="48.40094" lon="2.67394">
        <ele>223.5</ele>
        <time>2021-02-20T07:46:52Z</time>
      </trkpt>
      <trkpt lat="48.40092" lon="2.67394">
        <ele>223.56</ele>
        <time>2021-02-20T07:46:53Z</time>
      </trkpt>
      <trkpt lat="48.40091" lon="2.67395">
        <ele>223.6</ele>
        <time>2021-02-20T07:46:54Z</time>
      </trkpt>
      <trkpt lat="48.4009" lon="2.67395">
        <ele>223.62</ele>
        <time>2021-02-20T07:46:55Z</time>
      </trkpt>
      <trkpt lat="48.40088" lon="2.67396">
        <ele>223.64</ele>
        <time>2021-02-20T07:46:56Z</time>
      </trkpt>
      <trkpt lat="48.40087" lon="2.67396">
        <ele>223.65</ele>
        <time>2021-02-20T07:46:57Z</time>
      </trkpt>
      <trkpt lat="48.40058" lon="2.67407">
        <ele>223.53</ele>
        <time>2021-02-20T07:47:18Z</time>
      </trkpt>
      <trkpt lat="48.40042" lon="2.67408">
        <ele>223.61</ele>
        <time>2021-02-20T07:47:30Z</time>
      </trkpt>
      <trkpt lat="48.40017" lon="2.67411">
        <ele>223.3</ele>
        <time>2021-02-20T07:47:49Z</time>
      </trkpt>
      <trkpt lat="48.3999" lon="2.67399">
        <ele>222.07</ele>
        <time>2021-02-20T07:48:10Z</time>
      </trkpt>
      <trkpt lat="48.39982" lon="2.67364">
        <ele>222.91</ele>
        <time>2021-02-20T07:48:28Z</time>
      </trkpt>
      <trkpt lat="48.39993" lon="2.67334">
        <ele>223.07</ele>
        <time>2021-02-20T07:48:46Z</time>
      </trkpt>
      <trkpt lat="48.39998" lon="2.67328">
        <ele>222.63</ele>
        <time>2021-02-20T07:48:51Z</time>
      </trkpt>
      <trkpt lat="48.39999" lon="2.67327">
        <ele>222.63</ele>
        <time>2021-02-20T07:48:52Z</time>
      </trkpt>
      <trkpt lat="48.4" lon="2.67326">
        <ele>223</ele>
        <time>2021-02-20T07:48:53Z</time>
      </trkpt>
      <trkpt lat="48.40001" lon="2.67325">
        <ele>223.44</ele>
        <time>2021-02-20T07:48:54Z</time>
      </trkpt>
      <trkpt lat="48.40002" lon="2.67324">
        <ele>223.75</ele>
        <time>2021-02-20T07:48:55Z</time>
      </trkpt>
      <trkpt lat="48.40003" lon="2.67323">
        <ele>223.93</ele>
        <time>2021-02-20T07:48:56Z</time>
      </trkpt>
      <trkpt lat="48.40004" lon="2.67322">
        <ele>224.07</ele>
        <time>2021-02-20T07:48:57Z</time>
      </trkpt>
      <trkpt lat="48.40011" lon="2.67317">
        <ele>223.64</ele>
        <time>2021-02-20T07:49:10Z</time>
      </trkpt>
      <trkpt lat="48.40012" lon="2.67317">
        <ele>223.64</ele>
        <time>2021-02-20T07:49:11Z</time>
      </trkpt>
      <trkpt lat="48.40014" lon="2.67317">
        <ele>223.64</ele>
        <time>2021-02-20T07:49:12Z</time>
      </trkpt>
      <trkpt lat="48.40015" lon="2.67317">
        <ele>223.63</ele>
        <time>2021-02-20T07:49:13Z</time>
      </trkpt>
      <trkpt lat="48.40017" lon="2.67317">
        <ele>223.6</ele>
        <time>2021-02-20T07:49:14Z</time>
      </trkpt>
      <trkpt lat="48.40034" lon="2.67297">
        <ele>223.18</ele>
        <time>2021-02-20T07:49:33Z</time>
      </trkpt>
      <trkpt lat="48.40018" lon="2.67281">
        <ele>222.21</ele>
        <time>2021-02-20T07:49:49Z</time>
      </trkpt>
      <trkpt lat="48.39991" lon="2.67275">
        <ele>222.8</ele>
        <time>2021-02-20T07:50:10Z</time>
      </trkpt>
      <trkpt lat="48.39978" lon="2.67249">
        <ele>223.71</ele>
        <time>2021-02-20T07:50:27Z</time>
      </trkpt>
      <trkpt lat="48.39972" lon="2.67225">
        <ele>223.06</ele>
        <time>2021-02-20T07:50:42Z</time>
      </trkpt>
      <trkpt lat="48.39968" lon="2.67188">
        <ele>222.48</ele>
        <time>2021-02-20T07:51:00Z</time>
      </trkpt>
      <trkpt lat="48.39964" lon="2.67157">
        <ele>222.67</ele>
        <time>2021-02-20T07:51:17Z</time>
      </trkpt>
      <trkpt lat="48.39964" lon="2.67155">
        <ele>222.69</ele>
        <time>2021-02-20T07:51:18Z</time>
      </trkpt>
      <trkpt lat="48.39964" lon="2.67153">
        <ele>222.75</ele>
        <time>2021-02-20T07:51:19Z</time>
      </trkpt>
      <trkpt lat="48.39962" lon="2.67129">
        <ele>222.98</ele>
        <time>2021-02-20T07:51:31Z</time>
      </trkpt>
      <trkpt lat="48.39964" lon="2.67103">
        <ele>223.67</ele>
        <time>2021-02-20T07:51:44Z</time>
      </trkpt>
      <trkpt lat="48.3996" lon="2.67075">
        <ele>223.85</ele>
        <time>2021-02-20T07:51:58Z</time>
      </trkpt>
      <trkpt lat="48.39956" lon="2.67059">
        <ele>225.15</ele>
        <time>2021-02-20T07:52:07Z</time>
      </trkpt>
      <trkpt lat="48.39955" lon="2.67058">
        <ele>225.16</ele>
        <time>2021-02-20T07:52:08Z</time>
      </trkpt>
      <trkpt lat="48.39954" lon="2.67056">
        <ele>225.18</ele>
        <time>2021-02-20T07:52:09Z</time>
      </trkpt>
      <trkpt lat="48.39942" lon="2.67032">
        <ele>225.56</ele>
        <time>2021-02-20T07:52:25Z</time>
      </trkpt>
      <trkpt lat="48.39941" lon="2.6703">
        <ele>225.59</ele>
        <time>2021-02-20T07:52:26Z</time>
      </trkpt>
      <trkpt lat="48.3994" lon="2.67028">
        <ele>225.61</ele>
        <time>2021-02-20T07:52:27Z</time>
      </trkpt>
      <trkpt lat="48.3993" lon="2.67004">
        <ele>226.24</ele>
        <time>2021-02-20T07:52:43Z</time>
      </trkpt>
      <trkpt lat="48.39923" lon="2.6699">
        <ele>226.95</ele>
        <time>2021-02-20T07:52:52Z</time>
      </trkpt>
      <trkpt lat="48.39923" lon="2.66988">
        <ele>227.02</ele>
        <time>2021-02-20T07:52:53Z</time>
      </trkpt>
      <trkpt lat="48.39923" lon="2.66986">
        <ele>227.09</ele>
        <time>2021-02-20T07:52:54Z</time>
      </trkpt>
      <trkpt lat="48.39923" lon="2.66985">
        <ele>227.14</ele>
        <time>2021-02-20T07:52:55Z</time>
      </trkpt>
      <trkpt lat="48.39924" lon="2.66983">
        <ele>227.18</ele>
        <time>2021-02-20T07:52:56Z</time>
      </trkpt>
      <trkpt lat="48.39915" lon="2.66967">
        <ele>227.38</ele>
        <time>2021-02-20T07:53:10Z</time>
      </trkpt>
      <trkpt lat="48.39899" lon="2.66944">
        <ele>228.24</ele>
        <time>2021-02-20T07:53:31Z</time>
      </trkpt>
      <trkpt lat="48.39886" lon="2.66921">
        <ele>229.84</ele>
        <time>2021-02-20T07:53:47Z</time>
      </trkpt>
      <trkpt lat="48.39872" lon="2.6689">
        <ele>231.02</ele>
        <time>2021-02-20T07:54:10Z</time>
      </trkpt>
      <trkpt lat="48.39856" lon="2.66879">
        <ele>233.98</ele>
        <time>2021-02-20T07:54:31Z</time>
      </trkpt>
      <trkpt lat="48.39842" lon="2.6688">
        <ele>237.03</ele>
        <time>2021-02-20T07:54:50Z</time>
      </trkpt>
      <trkpt lat="48.39824" lon="2.66887">
        <ele>240.05</ele>
        <time>2021-02-20T07:55:12Z</time>
      </trkpt>
      <trkpt lat="48.39804" lon="2.66889">
        <ele>243.05</ele>
        <time>2021-02-20T07:55:34Z</time>
      </trkpt>
      <trkpt lat="48.39803" lon="2.66906">
        <ele>246.09</ele>
        <time>2021-02-20T07:55:51Z</time>
      </trkpt>
      <trkpt lat="48.39808" lon="2.6692">
        <ele>248.37</ele>
        <time>2021-02-20T07:56:12Z</time>
      </trkpt>
      <trkpt lat="48.39799" lon="2.66919">
        <ele>251.21</ele>
        <time>2021-02-20T07:56:29Z</time>
      </trkpt>
      <trkpt lat="48.39798" lon="2.6692">
        <ele>251.96</ele>
        <time>2021-02-20T07:56:31Z</time>
      </trkpt>
      <trkpt lat="48.39791" lon="2.66921">
        <ele>254.08</ele>
        <time>2021-02-20T07:56:51Z</time>
      </trkpt>
      <trkpt lat="48.39784" lon="2.66917">
        <ele>257.26</ele>
        <time>2021-02-20T07:57:07Z</time>
      </trkpt>
      <trkpt lat="48.39775" lon="2.66913">
        <ele>260.41</ele>
        <time>2021-02-20T07:57:24Z</time>
      </trkpt>
      <trkpt lat="48.39767" lon="2.66911">
        <ele>263.4</ele>
        <time>2021-02-20T07:57:41Z</time>
      </trkpt>
      <trkpt lat="48.39765" lon="2.66901">
        <ele>264.45</ele>
        <time>2021-02-20T07:57:55Z</time>
      </trkpt>
      <trkpt lat="48.39764" lon="2.66894">
        <ele>264.81</ele>
        <time>2021-02-20T07:58:00Z</time>
      </trkpt>
      <trkpt lat="48.39755" lon="2.66884">
        <ele>265.65</ele>
        <time>2021-02-20T07:58:17Z</time>
      </trkpt>
      <trkpt lat="48.39749" lon="2.66884">
        <ele>268.67</ele>
        <time>2021-02-20T07:58:33Z</time>
      </trkpt>
      <trkpt lat="48.3974" lon="2.66878">
        <ele>271.14</ele>
        <time>2021-02-20T07:58:50Z</time>
      </trkpt>
      <trkpt lat="48.3974" lon="2.66872">
        <ele>271.29</ele>
        <time>2021-02-20T07:59:04Z</time>
      </trkpt>
      <trkpt lat="48.3974" lon="2.66873">
        <ele>271.33</ele>
        <time>2021-02-20T07:59:24Z</time>
      </trkpt>
      <trkpt lat="48.39739" lon="2.66872">
        <ele>271.27</ele>
        <time>2021-02-20T07:59:44Z</time>
      </trkpt>
      <trkpt lat="48.39739" lon="2.66873">
        <ele>270.73</ele>
        <time>2021-02-20T08:00:03Z</time>
      </trkpt>
      <trkpt lat="48.39739" lon="2.66871">
        <ele>270.59</ele>
        <time>2021-02-20T08:00:20Z</time>
      </trkpt>
      <trkpt lat="48.39739" lon="2.66869">
        <ele>270.33</ele>
        <time>2021-02-20T08:00:40Z</time>
      </trkpt>
      <trkpt lat="48.3974" lon="2.66872">
        <ele>270.31</ele>
        <time>2021-02-20T08:01:08Z</time>
      </trkpt>
      <trkpt lat="48.39741" lon="2.66871">
        <ele>270.5</ele>
        <time>2021-02-20T08:01:28Z</time>
      </trkpt>
      <trkpt lat="48.39741" lon="2.66871">
        <ele>270.5</ele>
        <time>2021-02-20T08:01:45Z</time>
      </trkpt>
      <trkpt lat="48.3974" lon="2.66871">
        <ele>270.5</ele>
        <time>2021-02-20T08:02:01Z</time>
      </trkpt>
      <trkpt lat="48.3974" lon="2.66871">
        <ele>270.5</ele>
        <time>2021-02-20T08:02:24Z</time>
      </trkpt>
      <trkpt lat="48.3974" lon="2.66871">
        <ele>270.5</ele>
        <time>2021-02-20T08:02:46Z</time>
      </trkpt>
      <trkpt lat="48.3974" lon="2.6687">
        <ele>270.5</ele>
        <time>2021-02-20T08:03:03Z</time>
      </trkpt>
      <trkpt lat="48.39739" lon="2.66868">
        <ele>270.5</ele>
        <time>2021-02-20T08:03:25Z</time>
      </trkpt>
      <trkpt lat="48.39739" lon="2.66865">
        <ele>270.5</ele>
        <time>2021-02-20T08:03:27Z</time>
      </trkpt>
      <trkpt lat="48.39741" lon="2.66858">
        <ele>270.46</ele>
        <time>2021-02-20T08:03:31Z</time>
      </trkpt>
      <trkpt lat="48.39746" lon="2.66854">
        <ele>270.31</ele>
        <time>2021-02-20T08:03:36Z</time>
      </trkpt>
      <trkpt lat="48.39752" lon="2.66842">
        <ele>270.54</ele>
        <time>2021-02-20T08:03:46Z</time>
      </trkpt>
      <trkpt lat="48.39761" lon="2.6682">
        <ele>270.17</ele>
        <time>2021-02-20T08:04:02Z</time>
      </trkpt>
      <trkpt lat="48.39765" lon="2.66799">
        <ele>270.35</ele>
        <time>2021-02-20T08:04:17Z</time>
      </trkpt>
      <trkpt lat="48.39766" lon="2.66795">
        <ele>270.03</ele>
        <time>2021-02-20T08:04:20Z</time>
      </trkpt>
      <trkpt lat="48.39763" lon="2.66787">
        <ele>267.67</ele>
        <time>2021-02-20T08:04:35Z</time>
      </trkpt>
      <trkpt lat="48.39768" lon="2.66773">
        <ele>265.69</ele>
        <time>2021-02-20T08:04:53Z</time>
      </trkpt>
      <trkpt lat="48.39771" lon="2.66765">
        <ele>263.99</ele>
        <time>2021-02-20T08:05:01Z</time>
      </trkpt>
      <trkpt lat="48.39772" lon="2.66763">
        <ele>263.71</ele>
        <time>2021-02-20T08:05:02Z</time>
      </trkpt>
      <trkpt lat="48.39772" lon="2.66761">
        <ele>263.5</ele>
        <time>2021-02-20T08:05:03Z</time>
      </trkpt>
      <trkpt lat="48.39776" lon="2.66739">
        <ele>264.52</ele>
        <time>2021-02-20T08:05:23Z</time>
      </trkpt>
      <trkpt lat="48.39781" lon="2.66734">
        <ele>267.79</ele>
        <time>2021-02-20T08:05:37Z</time>
      </trkpt>
      <trkpt lat="48.3979" lon="2.66728">
        <ele>269.35</ele>
        <time>2021-02-20T08:05:54Z</time>
      </trkpt>
      <trkpt lat="48.39787" lon="2.66716">
        <ele>266.35</ele>
        <time>2021-02-20T08:06:09Z</time>
      </trkpt>
      <trkpt lat="48.39786" lon="2.66704">
        <ele>266.82</ele>
        <time>2021-02-20T08:06:22Z</time>
      </trkpt>
      <trkpt lat="48.39787" lon="2.66694">
        <ele>264.87</ele>
        <time>2021-02-20T08:06:29Z</time>
      </trkpt>
      <trkpt lat="48.39786" lon="2.6668">
        <ele>263.51</ele>
        <time>2021-02-20T08:06:41Z</time>
      </trkpt>
      <trkpt lat="48.39786" lon="2.66675">
        <ele>264.28</ele>
        <time>2021-02-20T08:06:59Z</time>
      </trkpt>
      <trkpt lat="48.39787" lon="2.66675">
        <ele>264.26</ele>
        <time>2021-02-20T08:07:30Z</time>
      </trkpt>
      <trkpt lat="48.39788" lon="2.66675">
        <ele>264.39</ele>
        <time>2021-02-20T08:07:57Z</time>
      </trkpt>
      <trkpt lat="48.39787" lon="2.66675">
        <ele>264.39</ele>
        <time>2021-02-20T08:08:20Z</time>
      </trkpt>
      <trkpt lat="48.39785" lon="2.6666">
        <ele>265.06</ele>
        <time>2021-02-20T08:08:35Z</time>
      </trkpt>
      <trkpt lat="48.39791" lon="2.66663">
        <ele>266.34</ele>
        <time>2021-02-20T08:08:44Z</time>
      </trkpt>
      <trkpt lat="48.39793" lon="2.66665">
        <ele>266.45</ele>
        <time>2021-02-20T08:08:46Z</time>
      </trkpt>
      <trkpt lat="48.398" lon="2.66653">
        <ele>266.38</ele>
        <time>2021-02-20T08:08:59Z</time>
      </trkpt>
      <trkpt lat="48.39801" lon="2.66638">
        <ele>266.35</ele>
        <time>2021-02-20T08:09:14Z</time>
      </trkpt>
      <trkpt lat="48.39803" lon="2.66626">
        <ele>268.37</ele>
        <time>2021-02-20T08:09:26Z</time>
      </trkpt>
      <trkpt lat="48.39802" lon="2.66625">
        <ele>268.5</ele>
        <time>2021-02-20T08:09:27Z</time>
      </trkpt>
      <trkpt lat="48.398" lon="2.66622">
        <ele>268.96</ele>
        <time>2021-02-20T08:09:31Z</time>
      </trkpt>
      <trkpt lat="48.39797" lon="2.66621">
        <ele>269.02</ele>
        <time>2021-02-20T08:09:33Z</time>
      </trkpt>
      <trkpt lat="48.39796" lon="2.66621">
        <ele>269.03</ele>
        <time>2021-02-20T08:09:34Z</time>
      </trkpt>
      <trkpt lat="48.39795" lon="2.66621">
        <ele>269.03</ele>
        <time>2021-02-20T08:09:35Z</time>
      </trkpt>
      <trkpt lat="48.39787" lon="2.66615">
        <ele>268.52</ele>
        <time>2021-02-20T08:09:44Z</time>
      </trkpt>
      <trkpt lat="48.39787" lon="2.66614">
        <ele>268.07</ele>
        <time>2021-02-20T08:09:45Z</time>
      </trkpt>
      <trkpt lat="48.39786" lon="2.66613">
        <ele>267.37</ele>
        <time>2021-02-20T08:09:46Z</time>
      </trkpt>
      <trkpt lat="48.39785" lon="2.66612">
        <ele>266.96</ele>
        <time>2021-02-20T08:09:47Z</time>
      </trkpt>
      <trkpt lat="48.39784" lon="2.6661">
        <ele>266.76</ele>
        <time>2021-02-20T08:09:48Z</time>
      </trkpt>
      <trkpt lat="48.39783" lon="2.66602">
        <ele>269.05</ele>
        <time>2021-02-20T08:09:54Z</time>
      </trkpt>
      <trkpt lat="48.39786" lon="2.66587">
        <ele>268.07</ele>
        <time>2021-02-20T08:10:05Z</time>
      </trkpt>
      <trkpt lat="48.39786" lon="2.66585">
        <ele>267.99</ele>
        <time>2021-02-20T08:10:06Z</time>
      </trkpt>
      <trkpt lat="48.39787" lon="2.66582">
        <ele>267.84</ele>
        <time>2021-02-20T08:10:08Z</time>
      </trkpt>
      <trkpt lat="48.39786" lon="2.66569">
        <ele>266.82</ele>
        <time>2021-02-20T08:10:21Z</time>
      </trkpt>
      <trkpt lat="48.39786" lon="2.66566">
        <ele>266.75</ele>
        <time>2021-02-20T08:10:23Z</time>
      </trkpt>
      <trkpt lat="48.39788" lon="2.66561">
        <ele>266.55</ele>
        <time>2021-02-20T08:10:27Z</time>
      </trkpt>
      <trkpt lat="48.39792" lon="2.66544">
        <ele>265.05</ele>
        <time>2021-02-20T08:10:41Z</time>
      </trkpt>
      <trkpt lat="48.39792" lon="2.66541">
        <ele>264.84</ele>
        <time>2021-02-20T08:10:43Z</time>
      </trkpt>
      <trkpt lat="48.39792" lon="2.66533">
        <ele>264.37</ele>
        <time>2021-02-20T08:10:48Z</time>
      </trkpt>
      <trkpt lat="48.39791" lon="2.66513">
        <ele>261.88</ele>
        <time>2021-02-20T08:11:02Z</time>
      </trkpt>
      <trkpt lat="48.39792" lon="2.66501">
        <ele>259.15</ele>
        <time>2021-02-20T08:11:11Z</time>
      </trkpt>
      <trkpt lat="48.3979" lon="2.66492">
        <ele>259.16</ele>
        <time>2021-02-20T08:11:16Z</time>
      </trkpt>
      <trkpt lat="48.3979" lon="2.6649">
        <ele>259.07</ele>
        <time>2021-02-20T08:11:17Z</time>
      </trkpt>
      <trkpt lat="48.39787" lon="2.66468">
        <ele>255.93</ele>
        <time>2021-02-20T08:11:30Z</time>
      </trkpt>
      <trkpt lat="48.39787" lon="2.66467">
        <ele>255.74</ele>
        <time>2021-02-20T08:11:31Z</time>
      </trkpt>
      <trkpt lat="48.39786" lon="2.66465">
        <ele>255.58</ele>
        <time>2021-02-20T08:11:32Z</time>
      </trkpt>
      <trkpt lat="48.39786" lon="2.66463">
        <ele>255.42</ele>
        <time>2021-02-20T08:11:33Z</time>
      </trkpt>
      <trkpt lat="48.39781" lon="2.66461">
        <ele>254.62</ele>
        <time>2021-02-20T08:11:38Z</time>
      </trkpt>
      <trkpt lat="48.3977" lon="2.66468">
        <ele>251.57</ele>
        <time>2021-02-20T08:11:53Z</time>
      </trkpt>
      <trkpt lat="48.39765" lon="2.66466">
        <ele>249.27</ele>
        <time>2021-02-20T08:11:58Z</time>
      </trkpt>
      <trkpt lat="48.39758" lon="2.66469">
        <ele>248.36</ele>
        <time>2021-02-20T08:12:05Z</time>
      </trkpt>
      <trkpt lat="48.39758" lon="2.6647">
        <ele>248.09</ele>
        <time>2021-02-20T08:12:06Z</time>
      </trkpt>
      <trkpt lat="48.39757" lon="2.6647">
        <ele>247.68</ele>
        <time>2021-02-20T08:12:07Z</time>
      </trkpt>
      <trkpt lat="48.39746" lon="2.66474">
        <ele>245.77</ele>
        <time>2021-02-20T08:12:18Z</time>
      </trkpt>
      <trkpt lat="48.39733" lon="2.66486">
        <ele>242.76</ele>
        <time>2021-02-20T08:12:29Z</time>
      </trkpt>
      <trkpt lat="48.39719" lon="2.66509">
        <ele>240.06</ele>
        <time>2021-02-20T08:12:45Z</time>
      </trkpt>
      <trkpt lat="48.39701" lon="2.66514">
        <ele>237.89</ele>
        <time>2021-02-20T08:13:00Z</time>
      </trkpt>
      <trkpt lat="48.39694" lon="2.66519">
        <ele>237.09</ele>
        <time>2021-02-20T08:13:07Z</time>
      </trkpt>
      <trkpt lat="48.39693" lon="2.66519">
        <ele>236.99</ele>
        <time>2021-02-20T08:13:08Z</time>
      </trkpt>
      <trkpt lat="48.39692" lon="2.6652">
        <ele>236.91</ele>
        <time>2021-02-20T08:13:09Z</time>
      </trkpt>
      <trkpt lat="48.39672" lon="2.66531">
        <ele>235.32</ele>
        <time>2021-02-20T08:13:26Z</time>
      </trkpt>
      <trkpt lat="48.39671" lon="2.66531">
        <ele>235.27</ele>
        <time>2021-02-20T08:13:27Z</time>
      </trkpt>
      <trkpt lat="48.39647" lon="2.66541">
        <ele>233.7</ele>
        <time>2021-02-20T08:13:46Z</time>
      </trkpt>
      <trkpt lat="48.39632" lon="2.66545">
        <ele>230.04</ele>
        <time>2021-02-20T08:13:59Z</time>
      </trkpt>
      <trkpt lat="48.39629" lon="2.66546">
        <ele>229.24</ele>
        <time>2021-02-20T08:14:01Z</time>
      </trkpt>
      <trkpt lat="48.39626" lon="2.66547">
        <ele>232.58</ele>
        <time>2021-02-20T08:14:06Z</time>
      </trkpt>
      <trkpt lat="48.39623" lon="2.66551">
        <ele>234.2</ele>
        <time>2021-02-20T08:14:12Z</time>
      </trkpt>
      <trkpt lat="48.39622" lon="2.66551">
        <ele>234.01</ele>
        <time>2021-02-20T08:14:13Z</time>
      </trkpt>
      <trkpt lat="48.39621" lon="2.66551">
        <ele>233.77</ele>
        <time>2021-02-20T08:14:14Z</time>
      </trkpt>
      <trkpt lat="48.39619" lon="2.66552">
        <ele>233.52</ele>
        <time>2021-02-20T08:14:15Z</time>
      </trkpt>
      <trkpt lat="48.39618" lon="2.66552">
        <ele>233.36</ele>
        <time>2021-02-20T08:14:16Z</time>
      </trkpt>
      <trkpt lat="48.39617" lon="2.66552">
        <ele>233.21</ele>
        <time>2021-02-20T08:14:17Z</time>
      </trkpt>
      <trkpt lat="48.396" lon="2.66562">
        <ele>231.33</ele>
        <time>2021-02-20T08:14:32Z</time>
      </trkpt>
      <trkpt lat="48.39583" lon="2.66574">
        <ele>230.44</ele>
        <time>2021-02-20T08:14:48Z</time>
      </trkpt>
      <trkpt lat="48.39576" lon="2.66578">
        <ele>230.68</ele>
        <time>2021-02-20T08:14:57Z</time>
      </trkpt>
      <trkpt lat="48.39573" lon="2.66577">
        <ele>227.87</ele>
        <time>2021-02-20T08:15:41Z</time>
      </trkpt>
      <trkpt lat="48.39573" lon="2.66578">
        <ele>230.6</ele>
        <time>2021-02-20T08:15:46Z</time>
      </trkpt>
      <trkpt lat="48.39571" lon="2.66582">
        <ele>230.05</ele>
        <time>2021-02-20T08:16:04Z</time>
      </trkpt>
      <trkpt lat="48.39572" lon="2.66581">
        <ele>230.08</ele>
        <time>2021-02-20T08:16:21Z</time>
      </trkpt>
      <trkpt lat="48.39573" lon="2.66585">
        <ele>229.16</ele>
        <time>2021-02-20T08:16:49Z</time>
      </trkpt>
      <trkpt lat="48.39575" lon="2.66588">
        <ele>229.33</ele>
        <time>2021-02-20T08:17:42Z</time>
      </trkpt>
      <trkpt lat="48.39574" lon="2.66586">
        <ele>230.42</ele>
        <time>2021-02-20T08:17:58Z</time>
      </trkpt>
      <trkpt lat="48.39573" lon="2.66579">
        <ele>230.14</ele>
        <time>2021-02-20T08:18:20Z</time>
      </trkpt>
      <trkpt lat="48.39572" lon="2.66583">
        <ele>229.72</ele>
        <time>2021-02-20T08:18:37Z</time>
      </trkpt>
      <trkpt lat="48.39565" lon="2.66594">
        <ele>229.39</ele>
        <time>2021-02-20T08:18:50Z</time>
      </trkpt>
      <trkpt lat="48.3955" lon="2.66607">
        <ele>229.21</ele>
        <time>2021-02-20T08:19:08Z</time>
      </trkpt>
      <trkpt lat="48.39526" lon="2.66632">
        <ele>228.82</ele>
        <time>2021-02-20T08:19:28Z</time>
      </trkpt>
      <trkpt lat="48.39515" lon="2.66642">
        <ele>229.05</ele>
        <time>2021-02-20T08:19:38Z</time>
      </trkpt>
      <trkpt lat="48.39514" lon="2.66642">
        <ele>229.06</ele>
        <time>2021-02-20T08:19:39Z</time>
      </trkpt>
      <trkpt lat="48.39508" lon="2.66648">
        <ele>229.05</ele>
        <time>2021-02-20T08:19:45Z</time>
      </trkpt>
      <trkpt lat="48.39501" lon="2.66656">
        <ele>228.75</ele>
        <time>2021-02-20T08:19:52Z</time>
      </trkpt>
      <trkpt lat="48.395" lon="2.66657">
        <ele>228.71</ele>
        <time>2021-02-20T08:19:53Z</time>
      </trkpt>
      <trkpt lat="48.39498" lon="2.66659">
        <ele>228.65</ele>
        <time>2021-02-20T08:19:55Z</time>
      </trkpt>
      <trkpt lat="48.39497" lon="2.6666">
        <ele>228.61</ele>
        <time>2021-02-20T08:19:56Z</time>
      </trkpt>
      <trkpt lat="48.39474" lon="2.66675">
        <ele>227.46</ele>
        <time>2021-02-20T08:20:14Z</time>
      </trkpt>
      <trkpt lat="48.39457" lon="2.66688">
        <ele>226.71</ele>
        <time>2021-02-20T08:20:29Z</time>
      </trkpt>
      <trkpt lat="48.39438" lon="2.66702">
        <ele>226.05</ele>
        <time>2021-02-20T08:20:47Z</time>
      </trkpt>
      <trkpt lat="48.39417" lon="2.66725">
        <ele>224.86</ele>
        <time>2021-02-20T08:21:07Z</time>
      </trkpt>
      <trkpt lat="48.39398" lon="2.66746">
        <ele>224.45</ele>
        <time>2021-02-20T08:21:23Z</time>
      </trkpt>
      <trkpt lat="48.3938" lon="2.66759">
        <ele>224.16</ele>
        <time>2021-02-20T08:21:39Z</time>
      </trkpt>
      <trkpt lat="48.39356" lon="2.66768">
        <ele>223.49</ele>
        <time>2021-02-20T08:21:57Z</time>
      </trkpt>
      <trkpt lat="48.39354" lon="2.66768">
        <ele>223.4</ele>
        <time>2021-02-20T08:21:59Z</time>
      </trkpt>
      <trkpt lat="48.39352" lon="2.66768">
        <ele>223.35</ele>
        <time>2021-02-20T08:22:00Z</time>
      </trkpt>
      <trkpt lat="48.39351" lon="2.66768">
        <ele>223.32</ele>
        <time>2021-02-20T08:22:01Z</time>
      </trkpt>
      <trkpt lat="48.39339" lon="2.66769">
        <ele>221.08</ele>
        <time>2021-02-20T08:22:11Z</time>
      </trkpt>
      <trkpt lat="48.39332" lon="2.6677">
        <ele>222.66</ele>
        <time>2021-02-20T08:22:17Z</time>
      </trkpt>
      <trkpt lat="48.39311" lon="2.66774">
        <ele>221.86</ele>
        <time>2021-02-20T08:22:32Z</time>
      </trkpt>
      <trkpt lat="48.39285" lon="2.66781">
        <ele>222.46</ele>
        <time>2021-02-20T08:22:51Z</time>
      </trkpt>
      <trkpt lat="48.39264" lon="2.66786">
        <ele>223.13</ele>
        <time>2021-02-20T08:23:07Z</time>
      </trkpt>
      <trkpt lat="48.39263" lon="2.66787">
        <ele>223.18</ele>
        <time>2021-02-20T08:23:08Z</time>
      </trkpt>
      <trkpt lat="48.39262" lon="2.66787">
        <ele>223.23</ele>
        <time>2021-02-20T08:23:09Z</time>
      </trkpt>
      <trkpt lat="48.3924" lon="2.66794">
        <ele>223.97</ele>
        <time>2021-02-20T08:23:26Z</time>
      </trkpt>
      <trkpt lat="48.39225" lon="2.66801">
        <ele>224.41</ele>
        <time>2021-02-20T08:23:37Z</time>
      </trkpt>
      <trkpt lat="48.39225" lon="2.66802">
        <ele>224.42</ele>
        <time>2021-02-20T08:23:38Z</time>
      </trkpt>
      <trkpt lat="48.39224" lon="2.66804">
        <ele>224.48</ele>
        <time>2021-02-20T08:23:39Z</time>
      </trkpt>
      <trkpt lat="48.39214" lon="2.66851">
        <ele>224.25</ele>
        <time>2021-02-20T08:24:03Z</time>
      </trkpt>
      <trkpt lat="48.39203" lon="2.66897">
        <ele>224</ele>
        <time>2021-02-20T08:24:27Z</time>
      </trkpt>
      <trkpt lat="48.39195" lon="2.6694">
        <ele>223.59</ele>
        <time>2021-02-20T08:24:49Z</time>
      </trkpt>
      <trkpt lat="48.39181" lon="2.66992">
        <ele>223.65</ele>
        <time>2021-02-20T08:25:17Z</time>
      </trkpt>
      <trkpt lat="48.3917" lon="2.67039">
        <ele>223.78</ele>
        <time>2021-02-20T08:25:42Z</time>
      </trkpt>
      <trkpt lat="48.39155" lon="2.67093">
        <ele>222.98</ele>
        <time>2021-02-20T08:26:11Z</time>
      </trkpt>
      <trkpt lat="48.3915" lon="2.67105">
        <ele>222.81</ele>
        <time>2021-02-20T08:26:21Z</time>
      </trkpt>
      <trkpt lat="48.39149" lon="2.67106">
        <ele>222.83</ele>
        <time>2021-02-20T08:26:22Z</time>
      </trkpt>
      <trkpt lat="48.39148" lon="2.67108">
        <ele>222.86</ele>
        <time>2021-02-20T08:26:23Z</time>
      </trkpt>
      <trkpt lat="48.39145" lon="2.67113">
        <ele>222.83</ele>
        <time>2021-02-20T08:26:29Z</time>
      </trkpt>
      <trkpt lat="48.39144" lon="2.67114">
        <ele>222.82</ele>
        <time>2021-02-20T08:26:30Z</time>
      </trkpt>
      <trkpt lat="48.39132" lon="2.67144">
        <ele>222.49</ele>
        <time>2021-02-20T08:26:49Z</time>
      </trkpt>
      <trkpt lat="48.39125" lon="2.67192">
        <ele>222.75</ele>
        <time>2021-02-20T08:27:14Z</time>
      </trkpt>
      <trkpt lat="48.3912" lon="2.67237">
        <ele>222.83</ele>
        <time>2021-02-20T08:27:37Z</time>
      </trkpt>
      <trkpt lat="48.39116" lon="2.67261">
        <ele>222.99</ele>
        <time>2021-02-20T08:27:51Z</time>
      </trkpt>
      <trkpt lat="48.39112" lon="2.67292">
        <ele>222.76</ele>
        <time>2021-02-20T08:28:08Z</time>
      </trkpt>
      <trkpt lat="48.39109" lon="2.6733">
        <ele>223.25</ele>
        <time>2021-02-20T08:28:28Z</time>
      </trkpt>
      <trkpt lat="48.39107" lon="2.67369">
        <ele>223.4</ele>
        <time>2021-02-20T08:28:49Z</time>
      </trkpt>
      <trkpt lat="48.39103" lon="2.67413">
        <ele>223.61</ele>
        <time>2021-02-20T08:29:11Z</time>
      </trkpt>
      <trkpt lat="48.391" lon="2.67457">
        <ele>223.68</ele>
        <time>2021-02-20T08:29:34Z</time>
      </trkpt>
      <trkpt lat="48.39098" lon="2.67496">
        <ele>223.26</ele>
        <time>2021-02-20T08:29:55Z</time>
      </trkpt>
      <trkpt lat="48.39093" lon="2.67525">
        <ele>222.93</ele>
        <time>2021-02-20T08:30:11Z</time>
      </trkpt>
      <trkpt lat="48.39092" lon="2.67567">
        <ele>222.97</ele>
        <time>2021-02-20T08:30:33Z</time>
      </trkpt>
      <trkpt lat="48.39094" lon="2.67587">
        <ele>223.01</ele>
        <time>2021-02-20T08:30:48Z</time>
      </trkpt>
      <trkpt lat="48.39094" lon="2.67589">
        <ele>222.98</ele>
        <time>2021-02-20T08:30:49Z</time>
      </trkpt>
      <trkpt lat="48.39094" lon="2.67591">
        <ele>222.96</ele>
        <time>2021-02-20T08:30:50Z</time>
      </trkpt>
      <trkpt lat="48.39094" lon="2.67592">
        <ele>222.94</ele>
        <time>2021-02-20T08:30:51Z</time>
      </trkpt>
      <trkpt lat="48.39094" lon="2.67594">
        <ele>222.91</ele>
        <time>2021-02-20T08:30:52Z</time>
      </trkpt>
      <trkpt lat="48.39095" lon="2.67595">
        <ele>222.85</ele>
        <time>2021-02-20T08:30:53Z</time>
      </trkpt>
      <trkpt lat="48.39095" lon="2.6761">
        <ele>223.04</ele>
        <time>2021-02-20T08:31:08Z</time>
      </trkpt>
      <trkpt lat="48.39094" lon="2.67612">
        <ele>223.03</ele>
        <time>2021-02-20T08:31:09Z</time>
      </trkpt>
      <trkpt lat="48.39094" lon="2.67614">
        <ele>222.97</ele>
        <time>2021-02-20T08:31:10Z</time>
      </trkpt>
      <trkpt lat="48.39101" lon="2.67642">
        <ele>223.4</ele>
        <time>2021-02-20T08:31:25Z</time>
      </trkpt>
      <trkpt lat="48.39105" lon="2.67674">
        <ele>223.13</ele>
        <time>2021-02-20T08:31:44Z</time>
      </trkpt>
      <trkpt lat="48.39105" lon="2.67684">
        <ele>223.33</ele>
        <time>2021-02-20T08:31:50Z</time>
      </trkpt>
      <trkpt lat="48.39105" lon="2.67686">
        <ele>223.38</ele>
        <time>2021-02-20T08:31:51Z</time>
      </trkpt>
      <trkpt lat="48.39105" lon="2.67688">
        <ele>223.41</ele>
        <time>2021-02-20T08:31:52Z</time>
      </trkpt>
      <trkpt lat="48.39108" lon="2.67695">
        <ele>223.37</ele>
        <time>2021-02-20T08:31:58Z</time>
      </trkpt>
      <trkpt lat="48.3911" lon="2.677">
        <ele>223.33</ele>
        <time>2021-02-20T08:32:01Z</time>
      </trkpt>
      <trkpt lat="48.39111" lon="2.67702">
        <ele>223.32</ele>
        <time>2021-02-20T08:32:02Z</time>
      </trkpt>
      <trkpt lat="48.39111" lon="2.67704">
        <ele>223.27</ele>
        <time>2021-02-20T08:32:03Z</time>
      </trkpt>
      <trkpt lat="48.39111" lon="2.67706">
        <ele>223.25</ele>
        <time>2021-02-20T08:32:04Z</time>
      </trkpt>
      <trkpt lat="48.39111" lon="2.67708">
        <ele>223.24</ele>
        <time>2021-02-20T08:32:05Z</time>
      </trkpt>
      <trkpt lat="48.39111" lon="2.67711">
        <ele>223.23</ele>
        <time>2021-02-20T08:32:06Z</time>
      </trkpt>
      <trkpt lat="48.39109" lon="2.67728">
        <ele>223.67</ele>
        <time>2021-02-20T08:32:16Z</time>
      </trkpt>
      <trkpt lat="48.39104" lon="2.67763">
        <ele>223.38</ele>
        <time>2021-02-20T08:32:36Z</time>
      </trkpt>
      <trkpt lat="48.39103" lon="2.67796">
        <ele>223.28</ele>
        <time>2021-02-20T08:32:55Z</time>
      </trkpt>
      <trkpt lat="48.39101" lon="2.67827">
        <ele>223.34</ele>
        <time>2021-02-20T08:33:12Z</time>
      </trkpt>
      <trkpt lat="48.39101" lon="2.67851">
        <ele>223.45</ele>
        <time>2021-02-20T08:33:27Z</time>
      </trkpt>
      <trkpt lat="48.39094" lon="2.6788">
        <ele>222</ele>
        <time>2021-02-20T08:33:44Z</time>
      </trkpt>
      <trkpt lat="48.39092" lon="2.67893">
        <ele>221.51</ele>
        <time>2021-02-20T08:33:52Z</time>
      </trkpt>
      <trkpt lat="48.39093" lon="2.67895">
        <ele>221.53</ele>
        <time>2021-02-20T08:33:53Z</time>
      </trkpt>
      <trkpt lat="48.39093" lon="2.67901">
        <ele>221.98</ele>
        <time>2021-02-20T08:33:56Z</time>
      </trkpt>
      <trkpt lat="48.39093" lon="2.67902">
        <ele>222.46</ele>
        <time>2021-02-20T08:33:57Z</time>
      </trkpt>
      <trkpt lat="48.39093" lon="2.67904">
        <ele>223.17</ele>
        <time>2021-02-20T08:33:58Z</time>
      </trkpt>
      <trkpt lat="48.39092" lon="2.67906">
        <ele>223.68</ele>
        <time>2021-02-20T08:33:59Z</time>
      </trkpt>
      <trkpt lat="48.39092" lon="2.67908">
        <ele>224.09</ele>
        <time>2021-02-20T08:34:00Z</time>
      </trkpt>
      <trkpt lat="48.39088" lon="2.67921">
        <ele>224.49</ele>
        <time>2021-02-20T08:34:10Z</time>
      </trkpt>
      <trkpt lat="48.39087" lon="2.67923">
        <ele>224.4</ele>
        <time>2021-02-20T08:34:11Z</time>
      </trkpt>
      <trkpt lat="48.39086" lon="2.67925">
        <ele>224.21</ele>
        <time>2021-02-20T08:34:12Z</time>
      </trkpt>
      <trkpt lat="48.39086" lon="2.67927">
        <ele>223.83</ele>
        <time>2021-02-20T08:34:13Z</time>
      </trkpt>
      <trkpt lat="48.39085" lon="2.67933">
        <ele>222.93</ele>
        <time>2021-02-20T08:34:27Z</time>
      </trkpt>
      <trkpt lat="48.39076" lon="2.6797">
        <ele>222.83</ele>
        <time>2021-02-20T08:34:49Z</time>
      </trkpt>
      <trkpt lat="48.39069" lon="2.68009">
        <ele>222.84</ele>
        <time>2021-02-20T08:35:10Z</time>
      </trkpt>
      <trkpt lat="48.39062" lon="2.68046">
        <ele>223.26</ele>
        <time>2021-02-20T08:35:30Z</time>
      </trkpt>
      <trkpt lat="48.39054" lon="2.68094">
        <ele>223.68</ele>
        <time>2021-02-20T08:35:55Z</time>
      </trkpt>
      <trkpt lat="48.39048" lon="2.68132">
        <ele>223.68</ele>
        <time>2021-02-20T08:36:16Z</time>
      </trkpt>
      <trkpt lat="48.39044" lon="2.68175">
        <ele>222.77</ele>
        <time>2021-02-20T08:36:38Z</time>
      </trkpt>
      <trkpt lat="48.3904" lon="2.68217">
        <ele>222.81</ele>
        <time>2021-02-20T08:37:00Z</time>
      </trkpt>
      <trkpt lat="48.39039" lon="2.68226">
        <ele>221.41</ele>
        <time>2021-02-20T08:37:05Z</time>
      </trkpt>
      <trkpt lat="48.39038" lon="2.68245">
        <ele>222.49</ele>
        <time>2021-02-20T08:37:15Z</time>
      </trkpt>
      <trkpt lat="48.39035" lon="2.68286">
        <ele>222.77</ele>
        <time>2021-02-20T08:37:36Z</time>
      </trkpt>
      <trkpt lat="48.39032" lon="2.68326">
        <ele>221.56</ele>
        <time>2021-02-20T08:37:58Z</time>
      </trkpt>
      <trkpt lat="48.39029" lon="2.68363">
        <ele>223.6</ele>
        <time>2021-02-20T08:38:18Z</time>
      </trkpt>
      <trkpt lat="48.39026" lon="2.68407">
        <ele>225.15</ele>
        <time>2021-02-20T08:38:39Z</time>
      </trkpt>
      <trkpt lat="48.39024" lon="2.6844">
        <ele>225.64</ele>
        <time>2021-02-20T08:38:57Z</time>
      </trkpt>
      <trkpt lat="48.39021" lon="2.68482">
        <ele>225.2</ele>
        <time>2021-02-20T08:39:19Z</time>
      </trkpt>
      <trkpt lat="48.39018" lon="2.68517">
        <ele>225.34</ele>
        <time>2021-02-20T08:39:41Z</time>
      </trkpt>
      <trkpt lat="48.39011" lon="2.68567">
        <ele>224.76</ele>
        <time>2021-02-20T08:40:08Z</time>
      </trkpt>
      <trkpt lat="48.39009" lon="2.68572">
        <ele>224.41</ele>
        <time>2021-02-20T08:40:10Z</time>
      </trkpt>
      <trkpt lat="48.39008" lon="2.68575">
        <ele>224.35</ele>
        <time>2021-02-20T08:40:11Z</time>
      </trkpt>
      <trkpt lat="48.39007" lon="2.68577">
        <ele>224.3</ele>
        <time>2021-02-20T08:40:12Z</time>
      </trkpt>
      <trkpt lat="48.39005" lon="2.68579">
        <ele>224.3</ele>
        <time>2021-02-20T08:40:13Z</time>
      </trkpt>
      <trkpt lat="48.39004" lon="2.68581">
        <ele>224.29</ele>
        <time>2021-02-20T08:40:14Z</time>
      </trkpt>
      <trkpt lat="48.39002" lon="2.68582">
        <ele>224.28</ele>
        <time>2021-02-20T08:40:15Z</time>
      </trkpt>
      <trkpt lat="48.39001" lon="2.68583">
        <ele>224.26</ele>
        <time>2021-02-20T08:40:16Z</time>
      </trkpt>
      <trkpt lat="48.39" lon="2.68584">
        <ele>224.19</ele>
        <time>2021-02-20T08:40:17Z</time>
      </trkpt>
      <trkpt lat="48.38999" lon="2.68584">
        <ele>224.1</ele>
        <time>2021-02-20T08:40:18Z</time>
      </trkpt>
      <trkpt lat="48.38979" lon="2.68581">
        <ele>224.34</ele>
        <time>2021-02-20T08:40:35Z</time>
      </trkpt>
      <trkpt lat="48.3896" lon="2.68576">
        <ele>224.23</ele>
        <time>2021-02-20T08:40:51Z</time>
      </trkpt>
      <trkpt lat="48.3894" lon="2.68568">
        <ele>223.97</ele>
        <time>2021-02-20T08:41:07Z</time>
      </trkpt>
      <trkpt lat="48.3894" lon="2.68567">
        <ele>223.95</ele>
        <time>2021-02-20T08:41:08Z</time>
      </trkpt>
      <trkpt lat="48.38939" lon="2.68566">
        <ele>223.94</ele>
        <time>2021-02-20T08:41:09Z</time>
      </trkpt>
      <trkpt lat="48.38938" lon="2.68565">
        <ele>223.94</ele>
        <time>2021-02-20T08:41:10Z</time>
      </trkpt>
      <trkpt lat="48.38937" lon="2.68565">
        <ele>223.94</ele>
        <time>2021-02-20T08:41:11Z</time>
      </trkpt>
      <trkpt lat="48.38936" lon="2.68564">
        <ele>223.94</ele>
        <time>2021-02-20T08:41:12Z</time>
      </trkpt>
      <trkpt lat="48.38935" lon="2.68563">
        <ele>223.92</ele>
        <time>2021-02-20T08:41:13Z</time>
      </trkpt>
      <trkpt lat="48.38933" lon="2.68562">
        <ele>223.9</ele>
        <time>2021-02-20T08:41:14Z</time>
      </trkpt>
      <trkpt lat="48.38932" lon="2.68561">
        <ele>223.88</ele>
        <time>2021-02-20T08:41:15Z</time>
      </trkpt>
      <trkpt lat="48.38931" lon="2.6856">
        <ele>223.86</ele>
        <time>2021-02-20T08:41:16Z</time>
      </trkpt>
      <trkpt lat="48.38899" lon="2.68548">
        <ele>223.98</ele>
        <time>2021-02-20T08:41:41Z</time>
      </trkpt>
      <trkpt lat="48.38883" lon="2.68544">
        <ele>224.04</ele>
        <time>2021-02-20T08:41:59Z</time>
      </trkpt>
      <trkpt lat="48.38878" lon="2.68545">
        <ele>224.04</ele>
        <time>2021-02-20T08:42:12Z</time>
      </trkpt>
      <trkpt lat="48.38877" lon="2.68544">
        <ele>224.04</ele>
        <time>2021-02-20T08:42:13Z</time>
      </trkpt>
      <trkpt lat="48.38876" lon="2.68544">
        <ele>224.04</ele>
        <time>2021-02-20T08:42:14Z</time>
      </trkpt>
      <trkpt lat="48.38855" lon="2.68536">
        <ele>224.29</ele>
        <time>2021-02-20T08:42:30Z</time>
      </trkpt>
      <trkpt lat="48.38826" lon="2.68526">
        <ele>223.15</ele>
        <time>2021-02-20T08:42:53Z</time>
      </trkpt>
      <trkpt lat="48.38802" lon="2.68516">
        <ele>224.23</ele>
        <time>2021-02-20T08:43:15Z</time>
      </trkpt>
      <trkpt lat="48.38778" lon="2.68509">
        <ele>224.89</ele>
        <time>2021-02-20T08:43:34Z</time>
      </trkpt>
      <trkpt lat="48.38754" lon="2.685">
        <ele>225.46</ele>
        <time>2021-02-20T08:43:54Z</time>
      </trkpt>
      <trkpt lat="48.38728" lon="2.68501">
        <ele>226.66</ele>
        <time>2021-02-20T08:44:18Z</time>
      </trkpt>
      <trkpt lat="48.38727" lon="2.68504">
        <ele>225.83</ele>
        <time>2021-02-20T08:44:20Z</time>
      </trkpt>
      <trkpt lat="48.38722" lon="2.68533">
        <ele>226.38</ele>
        <time>2021-02-20T08:44:35Z</time>
      </trkpt>
      <trkpt lat="48.38715" lon="2.68572">
        <ele>225.28</ele>
        <time>2021-02-20T08:44:55Z</time>
      </trkpt>
      <trkpt lat="48.38712" lon="2.68598">
        <ele>225.78</ele>
        <time>2021-02-20T08:45:11Z</time>
      </trkpt>
      <trkpt lat="48.38707" lon="2.68643">
        <ele>225.73</ele>
        <time>2021-02-20T08:45:34Z</time>
      </trkpt>
      <trkpt lat="48.38706" lon="2.68653">
        <ele>225.57</ele>
        <time>2021-02-20T08:45:39Z</time>
      </trkpt>
      <trkpt lat="48.38706" lon="2.68655">
        <ele>225.53</ele>
        <time>2021-02-20T08:45:40Z</time>
      </trkpt>
      <trkpt lat="48.38705" lon="2.68657">
        <ele>225.49</ele>
        <time>2021-02-20T08:45:41Z</time>
      </trkpt>
      <trkpt lat="48.38705" lon="2.68659">
        <ele>225.45</ele>
        <time>2021-02-20T08:45:42Z</time>
      </trkpt>
      <trkpt lat="48.38705" lon="2.68661">
        <ele>225.41</ele>
        <time>2021-02-20T08:45:43Z</time>
      </trkpt>
      <trkpt lat="48.38703" lon="2.68672">
        <ele>225.33</ele>
        <time>2021-02-20T08:45:49Z</time>
      </trkpt>
      <trkpt lat="48.38703" lon="2.68674">
        <ele>225.33</ele>
        <time>2021-02-20T08:45:50Z</time>
      </trkpt>
      <trkpt lat="48.38703" lon="2.68676">
        <ele>225.33</ele>
        <time>2021-02-20T08:45:51Z</time>
      </trkpt>
      <trkpt lat="48.38703" lon="2.68678">
        <ele>225.34</ele>
        <time>2021-02-20T08:45:52Z</time>
      </trkpt>
      <trkpt lat="48.38703" lon="2.68679">
        <ele>225.36</ele>
        <time>2021-02-20T08:45:53Z</time>
      </trkpt>
      <trkpt lat="48.38702" lon="2.68681">
        <ele>225.37</ele>
        <time>2021-02-20T08:45:54Z</time>
      </trkpt>
      <trkpt lat="48.38702" lon="2.68683">
        <ele>225.37</ele>
        <time>2021-02-20T08:45:55Z</time>
      </trkpt>
      <trkpt lat="48.38702" lon="2.68685">
        <ele>225.37</ele>
        <time>2021-02-20T08:45:56Z</time>
      </trkpt>
      <trkpt lat="48.38702" lon="2.68687">
        <ele>225.37</ele>
        <time>2021-02-20T08:45:57Z</time>
      </trkpt>
      <trkpt lat="48.38701" lon="2.68689">
        <ele>225.36</ele>
        <time>2021-02-20T08:45:58Z</time>
      </trkpt>
      <trkpt lat="48.38701" lon="2.68691">
        <ele>225.35</ele>
        <time>2021-02-20T08:45:59Z</time>
      </trkpt>
      <trkpt lat="48.38701" lon="2.68693">
        <ele>225.36</ele>
        <time>2021-02-20T08:46:00Z</time>
      </trkpt>
      <trkpt lat="48.38701" lon="2.68695">
        <ele>225.4</ele>
        <time>2021-02-20T08:46:01Z</time>
      </trkpt>
      <trkpt lat="48.38701" lon="2.68697">
        <ele>225.42</ele>
        <time>2021-02-20T08:46:02Z</time>
      </trkpt>
      <trkpt lat="48.38696" lon="2.68732">
        <ele>225.42</ele>
        <time>2021-02-20T08:46:21Z</time>
      </trkpt>
      <trkpt lat="48.38689" lon="2.68773">
        <ele>225.76</ele>
        <time>2021-02-20T08:46:43Z</time>
      </trkpt>
      <trkpt lat="48.38683" lon="2.68806">
        <ele>226.08</ele>
        <time>2021-02-20T08:47:02Z</time>
      </trkpt>
      <trkpt lat="48.3868" lon="2.68839">
        <ele>226.78</ele>
        <time>2021-02-20T08:47:21Z</time>
      </trkpt>
      <trkpt lat="48.38682" lon="2.68852">
        <ele>227.18</ele>
        <time>2021-02-20T08:47:38Z</time>
      </trkpt>
      <trkpt lat="48.38681" lon="2.68863">
        <ele>227.38</ele>
        <time>2021-02-20T08:47:51Z</time>
      </trkpt>
      <trkpt lat="48.3868" lon="2.68867">
        <ele>227.38</ele>
        <time>2021-02-20T08:47:53Z</time>
      </trkpt>
      <trkpt lat="48.38676" lon="2.68887">
        <ele>227.79</ele>
        <time>2021-02-20T08:48:04Z</time>
      </trkpt>
      <trkpt lat="48.38676" lon="2.68889">
        <ele>227.8</ele>
        <time>2021-02-20T08:48:05Z</time>
      </trkpt>
      <trkpt lat="48.38676" lon="2.68899">
        <ele>228.1</ele>
        <time>2021-02-20T08:48:12Z</time>
      </trkpt>
      <trkpt lat="48.38675" lon="2.68901">
        <ele>228.16</ele>
        <time>2021-02-20T08:48:13Z</time>
      </trkpt>
      <trkpt lat="48.38675" lon="2.68939">
        <ele>227.92</ele>
        <time>2021-02-20T08:48:32Z</time>
      </trkpt>
      <trkpt lat="48.38675" lon="2.6897">
        <ele>228</ele>
        <time>2021-02-20T08:48:49Z</time>
      </trkpt>
      <trkpt lat="48.38674" lon="2.69005">
        <ele>227.59</ele>
        <time>2021-02-20T08:49:06Z</time>
      </trkpt>
      <trkpt lat="48.38674" lon="2.69031">
        <ele>227.52</ele>
        <time>2021-02-20T08:49:21Z</time>
      </trkpt>
      <trkpt lat="48.38672" lon="2.69063">
        <ele>226.56</ele>
        <time>2021-02-20T08:49:36Z</time>
      </trkpt>
      <trkpt lat="48.38669" lon="2.69096">
        <ele>225.59</ele>
        <time>2021-02-20T08:49:53Z</time>
      </trkpt>
      <trkpt lat="48.38667" lon="2.69125">
        <ele>225.66</ele>
        <time>2021-02-20T08:50:08Z</time>
      </trkpt>
      <trkpt lat="48.38668" lon="2.69156">
        <ele>225.48</ele>
        <time>2021-02-20T08:50:24Z</time>
      </trkpt>
      <trkpt lat="48.38667" lon="2.69193">
        <ele>225.9</ele>
        <time>2021-02-20T08:50:42Z</time>
      </trkpt>
      <trkpt lat="48.38665" lon="2.69206">
        <ele>226.17</ele>
        <time>2021-02-20T08:50:50Z</time>
      </trkpt>
      <trkpt lat="48.38664" lon="2.69207">
        <ele>226.17</ele>
        <time>2021-02-20T08:50:51Z</time>
      </trkpt>
      <trkpt lat="48.38662" lon="2.69212">
        <ele>226.83</ele>
        <time>2021-02-20T08:51:08Z</time>
      </trkpt>
      <trkpt lat="48.38661" lon="2.6921">
        <ele>226.83</ele>
        <time>2021-02-20T08:51:28Z</time>
      </trkpt>
      <trkpt lat="48.38662" lon="2.69209">
        <ele>226.83</ele>
        <time>2021-02-20T08:51:51Z</time>
      </trkpt>
      <trkpt lat="48.3866" lon="2.69214">
        <ele>226.83</ele>
        <time>2021-02-20T08:52:18Z</time>
      </trkpt>
      <trkpt lat="48.38659" lon="2.69213">
        <ele>226.83</ele>
        <time>2021-02-20T08:52:37Z</time>
      </trkpt>
      <trkpt lat="48.3866" lon="2.69209">
        <ele>226.83</ele>
        <time>2021-02-20T08:53:01Z</time>
      </trkpt>
      <trkpt lat="48.3866" lon="2.69208">
        <ele>226.83</ele>
        <time>2021-02-20T08:53:23Z</time>
      </trkpt>
      <trkpt lat="48.3866" lon="2.69208">
        <ele>226.83</ele>
        <time>2021-02-20T08:53:48Z</time>
      </trkpt>
      <trkpt lat="48.3866" lon="2.69211">
        <ele>226.83</ele>
        <time>2021-02-20T08:54:06Z</time>
      </trkpt>
      <trkpt lat="48.38658" lon="2.69211">
        <ele>226.83</ele>
        <time>2021-02-20T08:54:11Z</time>
      </trkpt>
      <trkpt lat="48.38657" lon="2.69211">
        <ele>226.83</ele>
        <time>2021-02-20T08:54:12Z</time>
      </trkpt>
      <trkpt lat="48.38655" lon="2.69211">
        <ele>226.83</ele>
        <time>2021-02-20T08:54:14Z</time>
      </trkpt>
      <trkpt lat="48.38654" lon="2.6921">
        <ele>226.91</ele>
        <time>2021-02-20T08:54:15Z</time>
      </trkpt>
      <trkpt lat="48.38652" lon="2.69211">
        <ele>227.31</ele>
        <time>2021-02-20T08:54:17Z</time>
      </trkpt>
      <trkpt lat="48.38651" lon="2.69211">
        <ele>227.42</ele>
        <time>2021-02-20T08:54:18Z</time>
      </trkpt>
      <trkpt lat="48.3865" lon="2.69211">
        <ele>227.49</ele>
        <time>2021-02-20T08:54:19Z</time>
      </trkpt>
      <trkpt lat="48.38648" lon="2.69211">
        <ele>227.55</ele>
        <time>2021-02-20T08:54:20Z</time>
      </trkpt>
      <trkpt lat="48.38647" lon="2.69211">
        <ele>227.63</ele>
        <time>2021-02-20T08:54:21Z</time>
      </trkpt>
      <trkpt lat="48.38627" lon="2.6921">
        <ele>229</ele>
        <time>2021-02-20T08:54:39Z</time>
      </trkpt>
      <trkpt lat="48.38604" lon="2.69213">
        <ele>230.61</ele>
        <time>2021-02-20T08:54:58Z</time>
      </trkpt>
      <trkpt lat="48.38588" lon="2.69217">
        <ele>232</ele>
        <time>2021-02-20T08:55:12Z</time>
      </trkpt>
      <trkpt lat="48.38563" lon="2.69232">
        <ele>234.2</ele>
        <time>2021-02-20T08:55:32Z</time>
      </trkpt>
      <trkpt lat="48.38539" lon="2.69228">
        <ele>234.99</ele>
        <time>2021-02-20T08:55:52Z</time>
      </trkpt>
      <trkpt lat="48.38521" lon="2.69216">
        <ele>236.63</ele>
        <time>2021-02-20T08:56:07Z</time>
      </trkpt>
      <trkpt lat="48.38502" lon="2.69212">
        <ele>238.55</ele>
        <time>2021-02-20T08:56:26Z</time>
      </trkpt>
      <trkpt lat="48.3849" lon="2.69239">
        <ele>241</ele>
        <time>2021-02-20T08:56:53Z</time>
      </trkpt>
      <trkpt lat="48.385" lon="2.69276">
        <ele>243.99</ele>
        <time>2021-02-20T08:57:20Z</time>
      </trkpt>
      <trkpt lat="48.38506" lon="2.69289">
        <ele>245.71</ele>
        <time>2021-02-20T08:57:29Z</time>
      </trkpt>
      <trkpt lat="48.38528" lon="2.69298">
        <ele>247.36</ele>
        <time>2021-02-20T08:57:50Z</time>
      </trkpt>
      <trkpt lat="48.38541" lon="2.69295">
        <ele>248.04</ele>
        <time>2021-02-20T08:58:06Z</time>
      </trkpt>
      <trkpt lat="48.38542" lon="2.69295">
        <ele>248.02</ele>
        <time>2021-02-20T08:58:07Z</time>
      </trkpt>
      <trkpt lat="48.38545" lon="2.69296">
        <ele>247.94</ele>
        <time>2021-02-20T08:58:10Z</time>
      </trkpt>
      <trkpt lat="48.38551" lon="2.69298">
        <ele>248.16</ele>
        <time>2021-02-20T08:58:16Z</time>
      </trkpt>
      <trkpt lat="48.38561" lon="2.69298">
        <ele>249.42</ele>
        <time>2021-02-20T08:58:34Z</time>
      </trkpt>
      <trkpt lat="48.3856" lon="2.69301">
        <ele>250.16</ele>
        <time>2021-02-20T08:58:52Z</time>
      </trkpt>
      <trkpt lat="48.38549" lon="2.69313">
        <ele>251.13</ele>
        <time>2021-02-20T08:59:09Z</time>
      </trkpt>
      <trkpt lat="48.38541" lon="2.6932">
        <ele>254</ele>
        <time>2021-02-20T08:59:18Z</time>
      </trkpt>
      <trkpt lat="48.38535" lon="2.69326">
        <ele>254.64</ele>
        <time>2021-02-20T08:59:33Z</time>
      </trkpt>
      <trkpt lat="48.38518" lon="2.6934">
        <ele>257.87</ele>
        <time>2021-02-20T08:59:57Z</time>
      </trkpt>
      <trkpt lat="48.38511" lon="2.69361">
        <ele>260.93</ele>
        <time>2021-02-20T09:00:23Z</time>
      </trkpt>
      <trkpt lat="48.38508" lon="2.69365">
        <ele>262.17</ele>
        <time>2021-02-20T09:00:37Z</time>
      </trkpt>
      <trkpt lat="48.38496" lon="2.69381">
        <ele>263.1</ele>
        <time>2021-02-20T09:00:56Z</time>
      </trkpt>
      <trkpt lat="48.38496" lon="2.69384">
        <ele>263.26</ele>
        <time>2021-02-20T09:00:58Z</time>
      </trkpt>
      <trkpt lat="48.38495" lon="2.69402">
        <ele>264.05</ele>
        <time>2021-02-20T09:01:10Z</time>
      </trkpt>
      <trkpt lat="48.38497" lon="2.69405">
        <ele>264.35</ele>
        <time>2021-02-20T09:01:13Z</time>
      </trkpt>
      <trkpt lat="48.38498" lon="2.69406">
        <ele>264.51</ele>
        <time>2021-02-20T09:01:14Z</time>
      </trkpt>
      <trkpt lat="48.38499" lon="2.69409">
        <ele>264.72</ele>
        <time>2021-02-20T09:01:16Z</time>
      </trkpt>
      <trkpt lat="48.38499" lon="2.69411">
        <ele>264.74</ele>
        <time>2021-02-20T09:01:17Z</time>
      </trkpt>
      <trkpt lat="48.38498" lon="2.69425">
        <ele>265.08</ele>
        <time>2021-02-20T09:01:26Z</time>
      </trkpt>
      <trkpt lat="48.38497" lon="2.69427">
        <ele>265.08</ele>
        <time>2021-02-20T09:01:27Z</time>
      </trkpt>
      <trkpt lat="48.38496" lon="2.69428">
        <ele>265.04</ele>
        <time>2021-02-20T09:01:28Z</time>
      </trkpt>
      <trkpt lat="48.38491" lon="2.69443">
        <ele>263.91</ele>
        <time>2021-02-20T09:01:42Z</time>
      </trkpt>
      <trkpt lat="48.3849" lon="2.69444">
        <ele>263.62</ele>
        <time>2021-02-20T09:01:43Z</time>
      </trkpt>
      <trkpt lat="48.38489" lon="2.69446">
        <ele>263.5</ele>
        <time>2021-02-20T09:01:44Z</time>
      </trkpt>
      <trkpt lat="48.38488" lon="2.69448">
        <ele>263.36</ele>
        <time>2021-02-20T09:01:45Z</time>
      </trkpt>
      <trkpt lat="48.38488" lon="2.69479">
        <ele>261.57</ele>
        <time>2021-02-20T09:02:02Z</time>
      </trkpt>
      <trkpt lat="48.38488" lon="2.69481">
        <ele>261.49</ele>
        <time>2021-02-20T09:02:03Z</time>
      </trkpt>
      <trkpt lat="48.38489" lon="2.69483">
        <ele>261.4</ele>
        <time>2021-02-20T09:02:04Z</time>
      </trkpt>
      <trkpt lat="48.38489" lon="2.69485">
        <ele>261.34</ele>
        <time>2021-02-20T09:02:05Z</time>
      </trkpt>
      <trkpt lat="48.38488" lon="2.69487">
        <ele>261.28</ele>
        <time>2021-02-20T09:02:06Z</time>
      </trkpt>
      <trkpt lat="48.38488" lon="2.69489">
        <ele>261.22</ele>
        <time>2021-02-20T09:02:07Z</time>
      </trkpt>
      <trkpt lat="48.38488" lon="2.69491">
        <ele>261.15</ele>
        <time>2021-02-20T09:02:08Z</time>
      </trkpt>
      <trkpt lat="48.38487" lon="2.69492">
        <ele>261.11</ele>
        <time>2021-02-20T09:02:09Z</time>
      </trkpt>
      <trkpt lat="48.38485" lon="2.69497">
        <ele>261.05</ele>
        <time>2021-02-20T09:02:12Z</time>
      </trkpt>
      <trkpt lat="48.38483" lon="2.69503">
        <ele>261.1</ele>
        <time>2021-02-20T09:02:17Z</time>
      </trkpt>
      <trkpt lat="48.38473" lon="2.69521">
        <ele>261.35</ele>
        <time>2021-02-20T09:02:33Z</time>
      </trkpt>
      <trkpt lat="48.38473" lon="2.69533">
        <ele>260.84</ele>
        <time>2021-02-20T09:02:42Z</time>
      </trkpt>
      <trkpt lat="48.38474" lon="2.69536">
        <ele>260.61</ele>
        <time>2021-02-20T09:02:44Z</time>
      </trkpt>
      <trkpt lat="48.38473" lon="2.69559">
        <ele>259.71</ele>
        <time>2021-02-20T09:02:57Z</time>
      </trkpt>
      <trkpt lat="48.38471" lon="2.69565">
        <ele>259.71</ele>
        <time>2021-02-20T09:03:01Z</time>
      </trkpt>
      <trkpt lat="48.38471" lon="2.69567">
        <ele>259.72</ele>
        <time>2021-02-20T09:03:02Z</time>
      </trkpt>
      <trkpt lat="48.38467" lon="2.69587">
        <ele>260.48</ele>
        <time>2021-02-20T09:03:18Z</time>
      </trkpt>
      <trkpt lat="48.38472" lon="2.69587">
        <ele>260.07</ele>
        <time>2021-02-20T09:03:33Z</time>
      </trkpt>
      <trkpt lat="48.38469" lon="2.6959">
        <ele>257.48</ele>
        <time>2021-02-20T09:03:54Z</time>
      </trkpt>
      <trkpt lat="48.38469" lon="2.6959">
        <ele>257.21</ele>
        <time>2021-02-20T09:03:55Z</time>
      </trkpt>
      <trkpt lat="48.38469" lon="2.6959">
        <ele>261.7</ele>
        <time>2021-02-20T09:03:59Z</time>
      </trkpt>
      <trkpt lat="48.38469" lon="2.6959">
        <ele>261.96</ele>
        <time>2021-02-20T09:04:00Z</time>
      </trkpt>
      <trkpt lat="48.3847" lon="2.69589">
        <ele>259.38</ele>
        <time>2021-02-20T09:04:32Z</time>
      </trkpt>
      <trkpt lat="48.38466" lon="2.69583">
        <ele>258.88</ele>
        <time>2021-02-20T09:05:13Z</time>
      </trkpt>
      <trkpt lat="48.38468" lon="2.69586">
        <ele>259.13</ele>
        <time>2021-02-20T09:05:48Z</time>
      </trkpt>
      <trkpt lat="48.3847" lon="2.69584">
        <ele>259.13</ele>
        <time>2021-02-20T09:06:42Z</time>
      </trkpt>
      <trkpt lat="48.38471" lon="2.69581">
        <ele>259.13</ele>
        <time>2021-02-20T09:07:51Z</time>
      </trkpt>
      <trkpt lat="48.3847" lon="2.69584">
        <ele>259.13</ele>
        <time>2021-02-20T09:09:01Z</time>
      </trkpt>
      <trkpt lat="48.38469" lon="2.69584">
        <ele>259.13</ele>
        <time>2021-02-20T09:10:02Z</time>
      </trkpt>
      <trkpt lat="48.38469" lon="2.69587">
        <ele>259.13</ele>
        <time>2021-02-20T09:10:30Z</time>
      </trkpt>
      <trkpt lat="48.38469" lon="2.69589">
        <ele>262.62</ele>
        <time>2021-02-20T09:10:34Z</time>
      </trkpt>
      <trkpt lat="48.38469" lon="2.6959">
        <ele>262.42</ele>
        <time>2021-02-20T09:10:35Z</time>
      </trkpt>
      <trkpt lat="48.38465" lon="2.69593">
        <ele>260.4</ele>
        <time>2021-02-20T09:11:06Z</time>
      </trkpt>
      <trkpt lat="48.38466" lon="2.69593">
        <ele>260.37</ele>
        <time>2021-02-20T09:11:36Z</time>
      </trkpt>
      <trkpt lat="48.38468" lon="2.69597">
        <ele>260.37</ele>
        <time>2021-02-20T09:11:49Z</time>
      </trkpt>
      <trkpt lat="48.38468" lon="2.69607">
        <ele>259.53</ele>
        <time>2021-02-20T09:12:06Z</time>
      </trkpt>
      <trkpt lat="48.38468" lon="2.69605">
        <ele>258.04</ele>
        <time>2021-02-20T09:12:37Z</time>
      </trkpt>
      <trkpt lat="48.38468" lon="2.69606">
        <ele>261.09</ele>
        <time>2021-02-20T09:13:02Z</time>
      </trkpt>
      <trkpt lat="48.38468" lon="2.69607">
        <ele>260.04</ele>
        <time>2021-02-20T09:13:28Z</time>
      </trkpt>
      <trkpt lat="48.38468" lon="2.69605">
        <ele>260.02</ele>
        <time>2021-02-20T09:13:49Z</time>
      </trkpt>
      <trkpt lat="48.38467" lon="2.69604">
        <ele>259.99</ele>
        <time>2021-02-20T09:14:13Z</time>
      </trkpt>
      <trkpt lat="48.38466" lon="2.69615">
        <ele>260.27</ele>
        <time>2021-02-20T09:14:29Z</time>
      </trkpt>
      <trkpt lat="48.38461" lon="2.69621">
        <ele>258.99</ele>
        <time>2021-02-20T09:14:41Z</time>
      </trkpt>
      <trkpt lat="48.38464" lon="2.69631">
        <ele>259.16</ele>
        <time>2021-02-20T09:14:57Z</time>
      </trkpt>
      <trkpt lat="48.38466" lon="2.69638">
        <ele>259.53</ele>
        <time>2021-02-20T09:15:02Z</time>
      </trkpt>
      <trkpt lat="48.38466" lon="2.6964">
        <ele>259.54</ele>
        <time>2021-02-20T09:15:03Z</time>
      </trkpt>
      <trkpt lat="48.38466" lon="2.69642">
        <ele>259.54</ele>
        <time>2021-02-20T09:15:04Z</time>
      </trkpt>
      <trkpt lat="48.38465" lon="2.69653">
        <ele>258.01</ele>
        <time>2021-02-20T09:15:11Z</time>
      </trkpt>
      <trkpt lat="48.38466" lon="2.69655">
        <ele>257.86</ele>
        <time>2021-02-20T09:15:12Z</time>
      </trkpt>
      <trkpt lat="48.38466" lon="2.69657">
        <ele>257.77</ele>
        <time>2021-02-20T09:15:13Z</time>
      </trkpt>
      <trkpt lat="48.38466" lon="2.69659">
        <ele>257.76</ele>
        <time>2021-02-20T09:15:14Z</time>
      </trkpt>
      <trkpt lat="48.38473" lon="2.69679">
        <ele>258.97</ele>
        <time>2021-02-20T09:15:29Z</time>
      </trkpt>
      <trkpt lat="48.38479" lon="2.69709">
        <ele>259.57</ele>
        <time>2021-02-20T09:15:49Z</time>
      </trkpt>
      <trkpt lat="48.38478" lon="2.69728">
        <ele>260.83</ele>
        <time>2021-02-20T09:16:06Z</time>
      </trkpt>
      <trkpt lat="48.38476" lon="2.69731">
        <ele>260.92</ele>
        <time>2021-02-20T09:16:09Z</time>
      </trkpt>
      <trkpt lat="48.38474" lon="2.69738">
        <ele>261.17</ele>
        <time>2021-02-20T09:16:13Z</time>
      </trkpt>
      <trkpt lat="48.38473" lon="2.69759">
        <ele>261.83</ele>
        <time>2021-02-20T09:16:28Z</time>
      </trkpt>
      <trkpt lat="48.38473" lon="2.69762">
        <ele>261.75</ele>
        <time>2021-02-20T09:16:29Z</time>
      </trkpt>
      <trkpt lat="48.38474" lon="2.69789">
        <ele>262.08</ele>
        <time>2021-02-20T09:16:45Z</time>
      </trkpt>
      <trkpt lat="48.38476" lon="2.69804">
        <ele>262.7</ele>
        <time>2021-02-20T09:16:55Z</time>
      </trkpt>
      <trkpt lat="48.38476" lon="2.69824">
        <ele>262.82</ele>
        <time>2021-02-20T09:17:11Z</time>
      </trkpt>
      <trkpt lat="48.3848" lon="2.69854">
        <ele>263.3</ele>
        <time>2021-02-20T09:17:34Z</time>
      </trkpt>
      <trkpt lat="48.38479" lon="2.69872">
        <ele>266.42</ele>
        <time>2021-02-20T09:17:53Z</time>
      </trkpt>
      <trkpt lat="48.38477" lon="2.69886">
        <ele>269.48</ele>
        <time>2021-02-20T09:18:09Z</time>
      </trkpt>
      <trkpt lat="48.3847" lon="2.69915">
        <ele>272.5</ele>
        <time>2021-02-20T09:18:32Z</time>
      </trkpt>
      <trkpt lat="48.38467" lon="2.69942">
        <ele>274.49</ele>
        <time>2021-02-20T09:18:53Z</time>
      </trkpt>
      <trkpt lat="48.38471" lon="2.69969">
        <ele>276.3</ele>
        <time>2021-02-20T09:19:15Z</time>
      </trkpt>
      <trkpt lat="48.38467" lon="2.69987">
        <ele>276.71</ele>
        <time>2021-02-20T09:19:27Z</time>
      </trkpt>
      <trkpt lat="48.38468" lon="2.70012">
        <ele>276.72</ele>
        <time>2021-02-20T09:19:42Z</time>
      </trkpt>
      <trkpt lat="48.38464" lon="2.7003">
        <ele>276.94</ele>
        <time>2021-02-20T09:19:54Z</time>
      </trkpt>
      <trkpt lat="48.38465" lon="2.70041">
        <ele>277.38</ele>
        <time>2021-02-20T09:20:01Z</time>
      </trkpt>
      <trkpt lat="48.38458" lon="2.70054">
        <ele>278</ele>
        <time>2021-02-20T09:20:14Z</time>
      </trkpt>
      <trkpt lat="48.38454" lon="2.70073">
        <ele>278.07</ele>
        <time>2021-02-20T09:20:30Z</time>
      </trkpt>
      <trkpt lat="48.38452" lon="2.70078">
        <ele>278.58</ele>
        <time>2021-02-20T09:20:33Z</time>
      </trkpt>
      <trkpt lat="48.3845" lon="2.70082">
        <ele>278.62</ele>
        <time>2021-02-20T09:20:35Z</time>
      </trkpt>
      <trkpt lat="48.3845" lon="2.70084">
        <ele>278.56</ele>
        <time>2021-02-20T09:20:36Z</time>
      </trkpt>
      <trkpt lat="48.38454" lon="2.70121">
        <ele>276.19</ele>
        <time>2021-02-20T09:20:55Z</time>
      </trkpt>
      <trkpt lat="48.38464" lon="2.70131">
        <ele>276.82</ele>
        <time>2021-02-20T09:21:11Z</time>
      </trkpt>
      <trkpt lat="48.38464" lon="2.70142">
        <ele>276.84</ele>
        <time>2021-02-20T09:21:21Z</time>
      </trkpt>
      <trkpt lat="48.38466" lon="2.7015">
        <ele>277.09</ele>
        <time>2021-02-20T09:21:27Z</time>
      </trkpt>
      <trkpt lat="48.38469" lon="2.70153">
        <ele>277.28</ele>
        <time>2021-02-20T09:21:34Z</time>
      </trkpt>
      <trkpt lat="48.38473" lon="2.70155">
        <ele>276.75</ele>
        <time>2021-02-20T09:21:40Z</time>
      </trkpt>
      <trkpt lat="48.38474" lon="2.70167">
        <ele>274.46</ele>
        <time>2021-02-20T09:21:53Z</time>
      </trkpt>
      <trkpt lat="48.38471" lon="2.70179">
        <ele>274.41</ele>
        <time>2021-02-20T09:22:08Z</time>
      </trkpt>
      <trkpt lat="48.38463" lon="2.70185">
        <ele>275.1</ele>
        <time>2021-02-20T09:22:27Z</time>
      </trkpt>
      <trkpt lat="48.38467" lon="2.70195">
        <ele>275.52</ele>
        <time>2021-02-20T09:22:44Z</time>
      </trkpt>
      <trkpt lat="48.3847" lon="2.70203">
        <ele>273.1</ele>
        <time>2021-02-20T09:23:04Z</time>
      </trkpt>
      <trkpt lat="48.38473" lon="2.70214">
        <ele>271.26</ele>
        <time>2021-02-20T09:23:13Z</time>
      </trkpt>
      <trkpt lat="48.3847" lon="2.70242">
        <ele>270.01</ele>
        <time>2021-02-20T09:23:34Z</time>
      </trkpt>
      <trkpt lat="48.38467" lon="2.70258">
        <ele>268.46</ele>
        <time>2021-02-20T09:23:46Z</time>
      </trkpt>
      <trkpt lat="48.38466" lon="2.70259">
        <ele>268.32</ele>
        <time>2021-02-20T09:23:47Z</time>
      </trkpt>
      <trkpt lat="48.38462" lon="2.70274">
        <ele>266.8</ele>
        <time>2021-02-20T09:24:02Z</time>
      </trkpt>
      <trkpt lat="48.3845" lon="2.7029">
        <ele>266.76</ele>
        <time>2021-02-20T09:24:23Z</time>
      </trkpt>
      <trkpt lat="48.38442" lon="2.70298">
        <ele>270.88</ele>
        <time>2021-02-20T09:24:38Z</time>
      </trkpt>
      <trkpt lat="48.38441" lon="2.70298">
        <ele>270.88</ele>
        <time>2021-02-20T09:24:39Z</time>
      </trkpt>
      <trkpt lat="48.38434" lon="2.70308">
        <ele>270.88</ele>
        <time>2021-02-20T09:24:56Z</time>
      </trkpt>
      <trkpt lat="48.38426" lon="2.7032">
        <ele>270.88</ele>
        <time>2021-02-20T09:25:12Z</time>
      </trkpt>
      <trkpt lat="48.38424" lon="2.70325">
        <ele>270.88</ele>
        <time>2021-02-20T09:25:19Z</time>
      </trkpt>
      <trkpt lat="48.38422" lon="2.70337">
        <ele>270.88</ele>
        <time>2021-02-20T09:25:31Z</time>
      </trkpt>
      <trkpt lat="48.3842" lon="2.70346">
        <ele>277.7</ele>
        <time>2021-02-20T09:25:39Z</time>
      </trkpt>
      <trkpt lat="48.3842" lon="2.70347">
        <ele>277.68</ele>
        <time>2021-02-20T09:25:40Z</time>
      </trkpt>
      <trkpt lat="48.38411" lon="2.70374">
        <ele>276.35</ele>
        <time>2021-02-20T09:26:04Z</time>
      </trkpt>
      <trkpt lat="48.38409" lon="2.70384">
        <ele>279.01</ele>
        <time>2021-02-20T09:26:10Z</time>
      </trkpt>
      <trkpt lat="48.38408" lon="2.70386">
        <ele>279.14</ele>
        <time>2021-02-20T09:26:11Z</time>
      </trkpt>
      <trkpt lat="48.38408" lon="2.70388">
        <ele>279.12</ele>
        <time>2021-02-20T09:26:12Z</time>
      </trkpt>
      <trkpt lat="48.38407" lon="2.70396">
        <ele>278.41</ele>
        <time>2021-02-20T09:26:17Z</time>
      </trkpt>
      <trkpt lat="48.38413" lon="2.7042">
        <ele>277.22</ele>
        <time>2021-02-20T09:26:36Z</time>
      </trkpt>
      <trkpt lat="48.38423" lon="2.7044">
        <ele>278.53</ele>
        <time>2021-02-20T09:26:54Z</time>
      </trkpt>
      <trkpt lat="48.38425" lon="2.70468">
        <ele>278.9</ele>
        <time>2021-02-20T09:27:12Z</time>
      </trkpt>
      <trkpt lat="48.3842" lon="2.70471">
        <ele>278.65</ele>
        <time>2021-02-20T09:27:26Z</time>
      </trkpt>
      <trkpt lat="48.38415" lon="2.70491">
        <ele>278.04</ele>
        <time>2021-02-20T09:27:44Z</time>
      </trkpt>
      <trkpt lat="48.38422" lon="2.70511">
        <ele>276.16</ele>
        <time>2021-02-20T09:27:59Z</time>
      </trkpt>
      <trkpt lat="48.38423" lon="2.70513">
        <ele>276.08</ele>
        <time>2021-02-20T09:28:00Z</time>
      </trkpt>
      <trkpt lat="48.38423" lon="2.70515">
        <ele>276.02</ele>
        <time>2021-02-20T09:28:01Z</time>
      </trkpt>
      <trkpt lat="48.38428" lon="2.70544">
        <ele>276.42</ele>
        <time>2021-02-20T09:28:22Z</time>
      </trkpt>
      <trkpt lat="48.38435" lon="2.7058">
        <ele>276.58</ele>
        <time>2021-02-20T09:28:50Z</time>
      </trkpt>
      <trkpt lat="48.38435" lon="2.70606">
        <ele>278.71</ele>
        <time>2021-02-20T09:29:12Z</time>
      </trkpt>
      <trkpt lat="48.38429" lon="2.70628">
        <ele>278.56</ele>
        <time>2021-02-20T09:29:31Z</time>
      </trkpt>
      <trkpt lat="48.38417" lon="2.70635">
        <ele>278.16</ele>
        <time>2021-02-20T09:29:51Z</time>
      </trkpt>
      <trkpt lat="48.38413" lon="2.70653">
        <ele>278.55</ele>
        <time>2021-02-20T09:30:08Z</time>
      </trkpt>
      <trkpt lat="48.38406" lon="2.70677">
        <ele>279.87</ele>
        <time>2021-02-20T09:30:27Z</time>
      </trkpt>
      <trkpt lat="48.38406" lon="2.70679">
        <ele>279.87</ele>
        <time>2021-02-20T09:30:28Z</time>
      </trkpt>
      <trkpt lat="48.38406" lon="2.70681">
        <ele>279.86</ele>
        <time>2021-02-20T09:30:29Z</time>
      </trkpt>
      <trkpt lat="48.38406" lon="2.70684">
        <ele>279.8</ele>
        <time>2021-02-20T09:30:30Z</time>
      </trkpt>
      <trkpt lat="48.38406" lon="2.70685">
        <ele>279.72</ele>
        <time>2021-02-20T09:30:31Z</time>
      </trkpt>
      <trkpt lat="48.38401" lon="2.70703">
        <ele>279.34</ele>
        <time>2021-02-20T09:30:48Z</time>
      </trkpt>
      <trkpt lat="48.3839" lon="2.70727">
        <ele>278.7</ele>
        <time>2021-02-20T09:31:09Z</time>
      </trkpt>
      <trkpt lat="48.38384" lon="2.70756">
        <ele>278.07</ele>
        <time>2021-02-20T09:31:27Z</time>
      </trkpt>
      <trkpt lat="48.38387" lon="2.7079">
        <ele>277.86</ele>
        <time>2021-02-20T09:31:49Z</time>
      </trkpt>
      <trkpt lat="48.3838" lon="2.70807">
        <ele>278.98</ele>
        <time>2021-02-20T09:32:06Z</time>
      </trkpt>
      <trkpt lat="48.38378" lon="2.70809">
        <ele>279.01</ele>
        <time>2021-02-20T09:32:07Z</time>
      </trkpt>
      <trkpt lat="48.38376" lon="2.70811">
        <ele>279.09</ele>
        <time>2021-02-20T09:32:09Z</time>
      </trkpt>
      <trkpt lat="48.38375" lon="2.70812">
        <ele>279.13</ele>
        <time>2021-02-20T09:32:10Z</time>
      </trkpt>
      <trkpt lat="48.38374" lon="2.70813">
        <ele>279.18</ele>
        <time>2021-02-20T09:32:11Z</time>
      </trkpt>
      <trkpt lat="48.38373" lon="2.70814">
        <ele>279.23</ele>
        <time>2021-02-20T09:32:12Z</time>
      </trkpt>
      <trkpt lat="48.38363" lon="2.70831">
        <ele>278.92</ele>
        <time>2021-02-20T09:32:28Z</time>
      </trkpt>
      <trkpt lat="48.38362" lon="2.70833">
        <ele>278.9</ele>
        <time>2021-02-20T09:32:29Z</time>
      </trkpt>
      <trkpt lat="48.38361" lon="2.70834">
        <ele>278.89</ele>
        <time>2021-02-20T09:32:30Z</time>
      </trkpt>
      <trkpt lat="48.38361" lon="2.70836">
        <ele>278.89</ele>
        <time>2021-02-20T09:32:31Z</time>
      </trkpt>
      <trkpt lat="48.3836" lon="2.70837">
        <ele>278.89</ele>
        <time>2021-02-20T09:32:32Z</time>
      </trkpt>
      <trkpt lat="48.38359" lon="2.70869">
        <ele>279.88</ele>
        <time>2021-02-20T09:32:51Z</time>
      </trkpt>
      <trkpt lat="48.38353" lon="2.70887">
        <ele>280.42</ele>
        <time>2021-02-20T09:33:04Z</time>
      </trkpt>
      <trkpt lat="48.38346" lon="2.70905">
        <ele>280.28</ele>
        <time>2021-02-20T09:33:17Z</time>
      </trkpt>
      <trkpt lat="48.38345" lon="2.70922">
        <ele>280.61</ele>
        <time>2021-02-20T09:33:27Z</time>
      </trkpt>
      <trkpt lat="48.38339" lon="2.70942">
        <ele>280.17</ele>
        <time>2021-02-20T09:33:39Z</time>
      </trkpt>
      <trkpt lat="48.38331" lon="2.70961">
        <ele>279.94</ele>
        <time>2021-02-20T09:33:54Z</time>
      </trkpt>
      <trkpt lat="48.38321" lon="2.70981">
        <ele>280.22</ele>
        <time>2021-02-20T09:34:11Z</time>
      </trkpt>
      <trkpt lat="48.38319" lon="2.70984">
        <ele>280.21</ele>
        <time>2021-02-20T09:34:13Z</time>
      </trkpt>
      <trkpt lat="48.38319" lon="2.70985">
        <ele>280.21</ele>
        <time>2021-02-20T09:34:14Z</time>
      </trkpt>
      <trkpt lat="48.38318" lon="2.70987">
        <ele>280.18</ele>
        <time>2021-02-20T09:34:15Z</time>
      </trkpt>
      <trkpt lat="48.38317" lon="2.70995">
        <ele>279.83</ele>
        <time>2021-02-20T09:34:19Z</time>
      </trkpt>
      <trkpt lat="48.38317" lon="2.71005">
        <ele>277.89</ele>
        <time>2021-02-20T09:34:26Z</time>
      </trkpt>
      <trkpt lat="48.38316" lon="2.71017">
        <ele>278.11</ele>
        <time>2021-02-20T09:34:32Z</time>
      </trkpt>
      <trkpt lat="48.38315" lon="2.71022">
        <ele>278.7</ele>
        <time>2021-02-20T09:34:34Z</time>
      </trkpt>
      <trkpt lat="48.38313" lon="2.7104">
        <ele>280.11</ele>
        <time>2021-02-20T09:34:48Z</time>
      </trkpt>
      <trkpt lat="48.38305" lon="2.7105">
        <ele>279.92</ele>
        <time>2021-02-20T09:34:58Z</time>
      </trkpt>
      <trkpt lat="48.383" lon="2.71062">
        <ele>280.35</ele>
        <time>2021-02-20T09:35:08Z</time>
      </trkpt>
      <trkpt lat="48.38299" lon="2.7107">
        <ele>280.58</ele>
        <time>2021-02-20T09:35:14Z</time>
      </trkpt>
      <trkpt lat="48.383" lon="2.71074">
        <ele>280.7</ele>
        <time>2021-02-20T09:35:17Z</time>
      </trkpt>
      <trkpt lat="48.383" lon="2.71076">
        <ele>280.76</ele>
        <time>2021-02-20T09:35:18Z</time>
      </trkpt>
      <trkpt lat="48.383" lon="2.71078">
        <ele>280.85</ele>
        <time>2021-02-20T09:35:19Z</time>
      </trkpt>
      <trkpt lat="48.38298" lon="2.7109">
        <ele>281.03</ele>
        <time>2021-02-20T09:35:27Z</time>
      </trkpt>
      <trkpt lat="48.38299" lon="2.71094">
        <ele>281.13</ele>
        <time>2021-02-20T09:35:30Z</time>
      </trkpt>
      <trkpt lat="48.38302" lon="2.711">
        <ele>281.19</ele>
        <time>2021-02-20T09:35:35Z</time>
      </trkpt>
      <trkpt lat="48.38298" lon="2.71112">
        <ele>281.1</ele>
        <time>2021-02-20T09:35:48Z</time>
      </trkpt>
      <trkpt lat="48.38297" lon="2.71116">
        <ele>281.04</ele>
        <time>2021-02-20T09:35:50Z</time>
      </trkpt>
      <trkpt lat="48.38294" lon="2.71131">
        <ele>281.43</ele>
        <time>2021-02-20T09:36:01Z</time>
      </trkpt>
      <trkpt lat="48.38294" lon="2.71136">
        <ele>281.43</ele>
        <time>2021-02-20T09:36:04Z</time>
      </trkpt>
      <trkpt lat="48.3829" lon="2.71149">
        <ele>280.52</ele>
        <time>2021-02-20T09:36:15Z</time>
      </trkpt>
      <trkpt lat="48.38289" lon="2.71151">
        <ele>280.66</ele>
        <time>2021-02-20T09:36:16Z</time>
      </trkpt>
      <trkpt lat="48.38289" lon="2.71153">
        <ele>280.76</ele>
        <time>2021-02-20T09:36:17Z</time>
      </trkpt>
      <trkpt lat="48.3829" lon="2.71178">
        <ele>280.58</ele>
        <time>2021-02-20T09:36:35Z</time>
      </trkpt>
      <trkpt lat="48.38293" lon="2.71197">
        <ele>279.73</ele>
        <time>2021-02-20T09:36:48Z</time>
      </trkpt>
      <trkpt lat="48.38301" lon="2.71221">
        <ele>277.4</ele>
        <time>2021-02-20T09:37:08Z</time>
      </trkpt>
      <trkpt lat="48.38301" lon="2.71217">
        <ele>276.92</ele>
        <time>2021-02-20T09:37:24Z</time>
      </trkpt>
      <trkpt lat="48.38292" lon="2.71211">
        <ele>279.23</ele>
        <time>2021-02-20T09:37:46Z</time>
      </trkpt>
      <trkpt lat="48.38283" lon="2.71237">
        <ele>281.33</ele>
        <time>2021-02-20T09:38:08Z</time>
      </trkpt>
      <trkpt lat="48.38273" lon="2.71248">
        <ele>278.68</ele>
        <time>2021-02-20T09:38:26Z</time>
      </trkpt>
      <trkpt lat="48.38267" lon="2.7126">
        <ele>276.99</ele>
        <time>2021-02-20T09:38:40Z</time>
      </trkpt>
      <trkpt lat="48.38266" lon="2.71262">
        <ele>276.99</ele>
        <time>2021-02-20T09:38:41Z</time>
      </trkpt>
      <trkpt lat="48.38265" lon="2.71264">
        <ele>276.99</ele>
        <time>2021-02-20T09:38:42Z</time>
      </trkpt>
      <trkpt lat="48.38264" lon="2.71267">
        <ele>276.71</ele>
        <time>2021-02-20T09:38:44Z</time>
      </trkpt>
      <trkpt lat="48.38264" lon="2.71269">
        <ele>275.94</ele>
        <time>2021-02-20T09:38:45Z</time>
      </trkpt>
      <trkpt lat="48.38263" lon="2.7127">
        <ele>274.64</ele>
        <time>2021-02-20T09:38:48Z</time>
      </trkpt>
      <trkpt lat="48.38264" lon="2.71286">
        <ele>272.9</ele>
        <time>2021-02-20T09:39:03Z</time>
      </trkpt>
      <trkpt lat="48.38257" lon="2.71297">
        <ele>269.82</ele>
        <time>2021-02-20T09:39:16Z</time>
      </trkpt>
      <trkpt lat="48.38257" lon="2.71306">
        <ele>269.82</ele>
        <time>2021-02-20T09:39:25Z</time>
      </trkpt>
      <trkpt lat="48.38257" lon="2.71341">
        <ele>268.86</ele>
        <time>2021-02-20T09:39:50Z</time>
      </trkpt>
      <trkpt lat="48.38253" lon="2.7136">
        <ele>265.57</ele>
        <time>2021-02-20T09:40:06Z</time>
      </trkpt>
      <trkpt lat="48.38242" lon="2.71372">
        <ele>265.08</ele>
        <time>2021-02-20T09:40:21Z</time>
      </trkpt>
      <trkpt lat="48.38227" lon="2.71362">
        <ele>262.55</ele>
        <time>2021-02-20T09:40:41Z</time>
      </trkpt>
      <trkpt lat="48.38225" lon="2.7136">
        <ele>262.36</ele>
        <time>2021-02-20T09:40:43Z</time>
      </trkpt>
      <trkpt lat="48.38217" lon="2.71348">
        <ele>260.53</ele>
        <time>2021-02-20T09:40:54Z</time>
      </trkpt>
      <trkpt lat="48.38216" lon="2.71346">
        <ele>260.42</ele>
        <time>2021-02-20T09:40:55Z</time>
      </trkpt>
      <trkpt lat="48.38209" lon="2.71326">
        <ele>257.48</ele>
        <time>2021-02-20T09:41:11Z</time>
      </trkpt>
      <trkpt lat="48.38209" lon="2.71323">
        <ele>256.85</ele>
        <time>2021-02-20T09:41:13Z</time>
      </trkpt>
      <trkpt lat="48.38197" lon="2.71287">
        <ele>255.97</ele>
        <time>2021-02-20T09:41:34Z</time>
      </trkpt>
      <trkpt lat="48.38187" lon="2.71265">
        <ele>256.92</ele>
        <time>2021-02-20T09:41:51Z</time>
      </trkpt>
      <trkpt lat="48.38178" lon="2.7124">
        <ele>259.11</ele>
        <time>2021-02-20T09:42:11Z</time>
      </trkpt>
      <trkpt lat="48.38169" lon="2.71218">
        <ele>260.64</ele>
        <time>2021-02-20T09:42:28Z</time>
      </trkpt>
      <trkpt lat="48.3816" lon="2.7119">
        <ele>263.73</ele>
        <time>2021-02-20T09:42:49Z</time>
      </trkpt>
      <trkpt lat="48.3815" lon="2.7117">
        <ele>266.77</ele>
        <time>2021-02-20T09:43:07Z</time>
      </trkpt>
      <trkpt lat="48.38143" lon="2.71148">
        <ele>269.81</ele>
        <time>2021-02-20T09:43:26Z</time>
      </trkpt>
      <trkpt lat="48.38131" lon="2.7113">
        <ele>272.84</ele>
        <time>2021-02-20T09:43:44Z</time>
      </trkpt>
      <trkpt lat="48.38114" lon="2.71105">
        <ele>275.85</ele>
        <time>2021-02-20T09:44:08Z</time>
      </trkpt>
      <trkpt lat="48.381" lon="2.71085">
        <ele>275.79</ele>
        <time>2021-02-20T09:44:26Z</time>
      </trkpt>
      <trkpt lat="48.38098" lon="2.71084">
        <ele>275.93</ele>
        <time>2021-02-20T09:44:27Z</time>
      </trkpt>
      <trkpt lat="48.38097" lon="2.71082">
        <ele>276.14</ele>
        <time>2021-02-20T09:44:28Z</time>
      </trkpt>
      <trkpt lat="48.38095" lon="2.71081">
        <ele>276.45</ele>
        <time>2021-02-20T09:44:29Z</time>
      </trkpt>
      <trkpt lat="48.3808" lon="2.71066">
        <ele>276.72</ele>
        <time>2021-02-20T09:44:42Z</time>
      </trkpt>
      <trkpt lat="48.38059" lon="2.71044">
        <ele>277.03</ele>
        <time>2021-02-20T09:45:03Z</time>
      </trkpt>
      <trkpt lat="48.38041" lon="2.7102">
        <ele>277.1</ele>
        <time>2021-02-20T09:45:22Z</time>
      </trkpt>
      <trkpt lat="48.38019" lon="2.70996">
        <ele>277.98</ele>
        <time>2021-02-20T09:45:43Z</time>
      </trkpt>
      <trkpt lat="48.38" lon="2.70974">
        <ele>278.27</ele>
        <time>2021-02-20T09:46:02Z</time>
      </trkpt>
      <trkpt lat="48.37986" lon="2.70957">
        <ele>277.66</ele>
        <time>2021-02-20T09:46:19Z</time>
      </trkpt>
      <trkpt lat="48.37963" lon="2.70935">
        <ele>278.64</ele>
        <time>2021-02-20T09:46:42Z</time>
      </trkpt>
      <trkpt lat="48.37942" lon="2.70915">
        <ele>278.99</ele>
        <time>2021-02-20T09:47:00Z</time>
      </trkpt>
      <trkpt lat="48.37923" lon="2.70894">
        <ele>278.98</ele>
        <time>2021-02-20T09:47:19Z</time>
      </trkpt>
      <trkpt lat="48.37898" lon="2.7087">
        <ele>279.51</ele>
        <time>2021-02-20T09:47:39Z</time>
      </trkpt>
      <trkpt lat="48.37875" lon="2.70844">
        <ele>279.92</ele>
        <time>2021-02-20T09:48:00Z</time>
      </trkpt>
      <trkpt lat="48.37855" lon="2.70823">
        <ele>279.85</ele>
        <time>2021-02-20T09:48:18Z</time>
      </trkpt>
      <trkpt lat="48.37838" lon="2.70806">
        <ele>279.9</ele>
        <time>2021-02-20T09:48:35Z</time>
      </trkpt>
      <trkpt lat="48.37825" lon="2.70795">
        <ele>279.81</ele>
        <time>2021-02-20T09:48:52Z</time>
      </trkpt>
      <trkpt lat="48.37822" lon="2.70793">
        <ele>279.83</ele>
        <time>2021-02-20T09:49:15Z</time>
      </trkpt>
      <trkpt lat="48.37816" lon="2.7079">
        <ele>279.67</ele>
        <time>2021-02-20T09:49:24Z</time>
      </trkpt>
      <trkpt lat="48.3781" lon="2.70786">
        <ele>278.51</ele>
        <time>2021-02-20T09:49:30Z</time>
      </trkpt>
      <trkpt lat="48.37809" lon="2.70784">
        <ele>278.43</ele>
        <time>2021-02-20T09:49:31Z</time>
      </trkpt>
      <trkpt lat="48.37808" lon="2.70783">
        <ele>278.48</ele>
        <time>2021-02-20T09:49:32Z</time>
      </trkpt>
      <trkpt lat="48.37792" lon="2.70762">
        <ele>280.08</ele>
        <time>2021-02-20T09:49:49Z</time>
      </trkpt>
      <trkpt lat="48.37772" lon="2.70742">
        <ele>278.99</ele>
        <time>2021-02-20T09:50:07Z</time>
      </trkpt>
      <trkpt lat="48.37753" lon="2.70723">
        <ele>278.99</ele>
        <time>2021-02-20T09:50:25Z</time>
      </trkpt>
      <trkpt lat="48.37732" lon="2.70701">
        <ele>278.53</ele>
        <time>2021-02-20T09:50:43Z</time>
      </trkpt>
      <trkpt lat="48.37715" lon="2.70684">
        <ele>278.11</ele>
        <time>2021-02-20T09:50:59Z</time>
      </trkpt>
      <trkpt lat="48.37695" lon="2.70663">
        <ele>277.4</ele>
        <time>2021-02-20T09:51:17Z</time>
      </trkpt>
      <trkpt lat="48.37678" lon="2.70642">
        <ele>274.57</ele>
        <time>2021-02-20T09:51:35Z</time>
      </trkpt>
      <trkpt lat="48.37677" lon="2.70641">
        <ele>274.45</ele>
        <time>2021-02-20T09:51:36Z</time>
      </trkpt>
      <trkpt lat="48.37667" lon="2.70607">
        <ele>274.49</ele>
        <time>2021-02-20T09:51:59Z</time>
      </trkpt>
      <trkpt lat="48.37669" lon="2.70578">
        <ele>275.19</ele>
        <time>2021-02-20T09:52:16Z</time>
      </trkpt>
      <trkpt lat="48.3767" lon="2.70566">
        <ele>275.6</ele>
        <time>2021-02-20T09:52:23Z</time>
      </trkpt>
      <trkpt lat="48.3767" lon="2.70564">
        <ele>275.67</ele>
        <time>2021-02-20T09:52:24Z</time>
      </trkpt>
      <trkpt lat="48.37671" lon="2.70563">
        <ele>275.73</ele>
        <time>2021-02-20T09:52:25Z</time>
      </trkpt>
      <trkpt lat="48.3767" lon="2.70561">
        <ele>275.82</ele>
        <time>2021-02-20T09:52:26Z</time>
      </trkpt>
      <trkpt lat="48.3767" lon="2.70559">
        <ele>275.9</ele>
        <time>2021-02-20T09:52:27Z</time>
      </trkpt>
      <trkpt lat="48.37676" lon="2.70529">
        <ele>276.47</ele>
        <time>2021-02-20T09:52:43Z</time>
      </trkpt>
      <trkpt lat="48.3768" lon="2.70503">
        <ele>275.74</ele>
        <time>2021-02-20T09:52:58Z</time>
      </trkpt>
      <trkpt lat="48.37683" lon="2.7048">
        <ele>276.78</ele>
        <time>2021-02-20T09:53:10Z</time>
      </trkpt>
      <trkpt lat="48.37687" lon="2.70453">
        <ele>274.28</ele>
        <time>2021-02-20T09:53:25Z</time>
      </trkpt>
      <trkpt lat="48.37692" lon="2.70417">
        <ele>275.67</ele>
        <time>2021-02-20T09:53:43Z</time>
      </trkpt>
      <trkpt lat="48.37698" lon="2.70387">
        <ele>275.95</ele>
        <time>2021-02-20T09:53:59Z</time>
      </trkpt>
      <trkpt lat="48.37701" lon="2.70351">
        <ele>276.27</ele>
        <time>2021-02-20T09:54:17Z</time>
      </trkpt>
      <trkpt lat="48.37707" lon="2.70319">
        <ele>276.7</ele>
        <time>2021-02-20T09:54:34Z</time>
      </trkpt>
      <trkpt lat="48.37712" lon="2.7029">
        <ele>276.57</ele>
        <time>2021-02-20T09:54:51Z</time>
      </trkpt>
      <trkpt lat="48.37716" lon="2.7025">
        <ele>276.12</ele>
        <time>2021-02-20T09:55:11Z</time>
      </trkpt>
      <trkpt lat="48.37718" lon="2.70237">
        <ele>274.77</ele>
        <time>2021-02-20T09:55:19Z</time>
      </trkpt>
      <trkpt lat="48.37718" lon="2.70235">
        <ele>274.75</ele>
        <time>2021-02-20T09:55:20Z</time>
      </trkpt>
      <trkpt lat="48.37716" lon="2.70202">
        <ele>274.09</ele>
        <time>2021-02-20T09:55:37Z</time>
      </trkpt>
      <trkpt lat="48.37717" lon="2.7019">
        <ele>273.02</ele>
        <time>2021-02-20T09:55:44Z</time>
      </trkpt>
      <trkpt lat="48.37718" lon="2.70186">
        <ele>272.67</ele>
        <time>2021-02-20T09:55:47Z</time>
      </trkpt>
      <trkpt lat="48.37724" lon="2.70161">
        <ele>270.99</ele>
        <time>2021-02-20T09:56:02Z</time>
      </trkpt>
      <trkpt lat="48.37727" lon="2.70129">
        <ele>268.64</ele>
        <time>2021-02-20T09:56:19Z</time>
      </trkpt>
      <trkpt lat="48.37731" lon="2.70105">
        <ele>267.24</ele>
        <time>2021-02-20T09:56:33Z</time>
      </trkpt>
      <trkpt lat="48.37733" lon="2.70087">
        <ele>266.49</ele>
        <time>2021-02-20T09:56:42Z</time>
      </trkpt>
      <trkpt lat="48.37733" lon="2.70085">
        <ele>266.37</ele>
        <time>2021-02-20T09:56:43Z</time>
      </trkpt>
      <trkpt lat="48.37733" lon="2.70083">
        <ele>266.27</ele>
        <time>2021-02-20T09:56:44Z</time>
      </trkpt>
      <trkpt lat="48.37733" lon="2.70081">
        <ele>266.09</ele>
        <time>2021-02-20T09:56:45Z</time>
      </trkpt>
      <trkpt lat="48.37734" lon="2.70079">
        <ele>266.03</ele>
        <time>2021-02-20T09:56:46Z</time>
      </trkpt>
      <trkpt lat="48.37734" lon="2.70077">
        <ele>265.99</ele>
        <time>2021-02-20T09:56:47Z</time>
      </trkpt>
      <trkpt lat="48.3774" lon="2.70044">
        <ele>264.2</ele>
        <time>2021-02-20T09:57:05Z</time>
      </trkpt>
      <trkpt lat="48.37745" lon="2.70012">
        <ele>262.95</ele>
        <time>2021-02-20T09:57:22Z</time>
      </trkpt>
      <trkpt lat="48.37746" lon="2.7001">
        <ele>262.85</ele>
        <time>2021-02-20T09:57:23Z</time>
      </trkpt>
      <trkpt lat="48.3775" lon="2.6999">
        <ele>261.95</ele>
        <time>2021-02-20T09:57:33Z</time>
      </trkpt>
      <trkpt lat="48.3775" lon="2.69989">
        <ele>261.89</ele>
        <time>2021-02-20T09:57:34Z</time>
      </trkpt>
      <trkpt lat="48.3775" lon="2.69987">
        <ele>261.84</ele>
        <time>2021-02-20T09:57:35Z</time>
      </trkpt>
      <trkpt lat="48.3775" lon="2.69985">
        <ele>261.81</ele>
        <time>2021-02-20T09:57:36Z</time>
      </trkpt>
      <trkpt lat="48.3775" lon="2.69983">
        <ele>261.79</ele>
        <time>2021-02-20T09:57:37Z</time>
      </trkpt>
      <trkpt lat="48.3775" lon="2.69981">
        <ele>261.78</ele>
        <time>2021-02-20T09:57:38Z</time>
      </trkpt>
      <trkpt lat="48.37756" lon="2.69944">
        <ele>260.49</ele>
        <time>2021-02-20T09:57:56Z</time>
      </trkpt>
      <trkpt lat="48.37761" lon="2.69908">
        <ele>258.26</ele>
        <time>2021-02-20T09:58:16Z</time>
      </trkpt>
      <trkpt lat="48.37764" lon="2.69868">
        <ele>256.42</ele>
        <time>2021-02-20T09:58:37Z</time>
      </trkpt>
      <trkpt lat="48.37767" lon="2.69842">
        <ele>255.99</ele>
        <time>2021-02-20T09:58:51Z</time>
      </trkpt>
      <trkpt lat="48.37755" lon="2.69836">
        <ele>257.95</ele>
        <time>2021-02-20T09:59:10Z</time>
      </trkpt>
      <trkpt lat="48.37743" lon="2.69837">
        <ele>260.28</ele>
        <time>2021-02-20T09:59:34Z</time>
      </trkpt>
      <trkpt lat="48.37741" lon="2.69837">
        <ele>260.49</ele>
        <time>2021-02-20T09:59:35Z</time>
      </trkpt>
      <trkpt lat="48.3772" lon="2.69846">
        <ele>263.61</ele>
        <time>2021-02-20T09:59:57Z</time>
      </trkpt>
      <trkpt lat="48.37688" lon="2.6988">
        <ele>266.67</ele>
        <time>2021-02-20T10:00:27Z</time>
      </trkpt>
      <trkpt lat="48.37676" lon="2.69915">
        <ele>269.73</ele>
        <time>2021-02-20T10:00:52Z</time>
      </trkpt>
      <trkpt lat="48.37666" lon="2.69963">
        <ele>272.12</ele>
        <time>2021-02-20T10:01:12Z</time>
      </trkpt>
      <trkpt lat="48.37666" lon="2.69966">
        <ele>272.85</ele>
        <time>2021-02-20T10:01:14Z</time>
      </trkpt>
      <trkpt lat="48.37659" lon="2.69978">
        <ele>273.26</ele>
        <time>2021-02-20T10:01:24Z</time>
      </trkpt>
      <trkpt lat="48.37654" lon="2.6998">
        <ele>273.41</ele>
        <time>2021-02-20T10:01:28Z</time>
      </trkpt>
      <trkpt lat="48.37638" lon="2.69991">
        <ele>273.75</ele>
        <time>2021-02-20T10:01:48Z</time>
      </trkpt>
      <trkpt lat="48.37638" lon="2.69992">
        <ele>273.59</ele>
        <time>2021-02-20T10:01:53Z</time>
      </trkpt>
      <trkpt lat="48.37634" lon="2.69992">
        <ele>273.6</ele>
        <time>2021-02-20T10:02:11Z</time>
      </trkpt>
      <trkpt lat="48.37625" lon="2.69988">
        <ele>272.96</ele>
        <time>2021-02-20T10:02:28Z</time>
      </trkpt>
      <trkpt lat="48.37611" lon="2.69966">
        <ele>269.92</ele>
        <time>2021-02-20T10:02:50Z</time>
      </trkpt>
      <trkpt lat="48.3761" lon="2.69967">
        <ele>269.86</ele>
        <time>2021-02-20T10:02:51Z</time>
      </trkpt>
      <trkpt lat="48.37604" lon="2.69976">
        <ele>269.46</ele>
        <time>2021-02-20T10:03:00Z</time>
      </trkpt>
      <trkpt lat="48.37603" lon="2.69977">
        <ele>269.45</ele>
        <time>2021-02-20T10:03:01Z</time>
      </trkpt>
      <trkpt lat="48.37594" lon="2.69997">
        <ele>269.29</ele>
        <time>2021-02-20T10:03:16Z</time>
      </trkpt>
      <trkpt lat="48.37593" lon="2.69999">
        <ele>269.25</ele>
        <time>2021-02-20T10:03:17Z</time>
      </trkpt>
      <trkpt lat="48.37583" lon="2.7001">
        <ele>268.16</ele>
        <time>2021-02-20T10:03:29Z</time>
      </trkpt>
      <trkpt lat="48.37563" lon="2.70016">
        <ele>266.46</ele>
        <time>2021-02-20T10:03:45Z</time>
      </trkpt>
      <trkpt lat="48.37545" lon="2.70017">
        <ele>264.14</ele>
        <time>2021-02-20T10:04:00Z</time>
      </trkpt>
      <trkpt lat="48.37529" lon="2.70007">
        <ele>263.35</ele>
        <time>2021-02-20T10:04:16Z</time>
      </trkpt>
      <trkpt lat="48.37528" lon="2.70006">
        <ele>263.2</ele>
        <time>2021-02-20T10:04:17Z</time>
      </trkpt>
      <trkpt lat="48.37506" lon="2.70001">
        <ele>261.49</ele>
        <time>2021-02-20T10:04:36Z</time>
      </trkpt>
      <trkpt lat="48.37508" lon="2.69973">
        <ele>262.22</ele>
        <time>2021-02-20T10:04:55Z</time>
      </trkpt>
      <trkpt lat="48.37509" lon="2.69958">
        <ele>261.88</ele>
        <time>2021-02-20T10:05:04Z</time>
      </trkpt>
      <trkpt lat="48.37508" lon="2.69927">
        <ele>260.96</ele>
        <time>2021-02-20T10:05:25Z</time>
      </trkpt>
      <trkpt lat="48.37509" lon="2.69895">
        <ele>260.72</ele>
        <time>2021-02-20T10:05:45Z</time>
      </trkpt>
      <trkpt lat="48.3751" lon="2.69859">
        <ele>260.61</ele>
        <time>2021-02-20T10:06:03Z</time>
      </trkpt>
      <trkpt lat="48.37512" lon="2.6983">
        <ele>259.11</ele>
        <time>2021-02-20T10:06:19Z</time>
      </trkpt>
      <trkpt lat="48.37513" lon="2.6981">
        <ele>258.76</ele>
        <time>2021-02-20T10:06:29Z</time>
      </trkpt>
      <trkpt lat="48.37516" lon="2.69775">
        <ele>258.27</ele>
        <time>2021-02-20T10:06:48Z</time>
      </trkpt>
      <trkpt lat="48.37523" lon="2.69726">
        <ele>257.89</ele>
        <time>2021-02-20T10:07:14Z</time>
      </trkpt>
      <trkpt lat="48.37529" lon="2.69675">
        <ele>256.91</ele>
        <time>2021-02-20T10:07:41Z</time>
      </trkpt>
      <trkpt lat="48.37527" lon="2.6963">
        <ele>256.48</ele>
        <time>2021-02-20T10:08:03Z</time>
      </trkpt>
      <trkpt lat="48.37528" lon="2.69592">
        <ele>256.35</ele>
        <time>2021-02-20T10:08:22Z</time>
      </trkpt>
      <trkpt lat="48.37532" lon="2.69578">
        <ele>256.09</ele>
        <time>2021-02-20T10:08:30Z</time>
      </trkpt>
      <trkpt lat="48.37531" lon="2.69575">
        <ele>256</ele>
        <time>2021-02-20T10:08:32Z</time>
      </trkpt>
      <trkpt lat="48.37531" lon="2.69573">
        <ele>255.96</ele>
        <time>2021-02-20T10:08:33Z</time>
      </trkpt>
      <trkpt lat="48.3753" lon="2.6957">
        <ele>255.94</ele>
        <time>2021-02-20T10:08:34Z</time>
      </trkpt>
      <trkpt lat="48.37531" lon="2.69547">
        <ele>255.71</ele>
        <time>2021-02-20T10:08:46Z</time>
      </trkpt>
      <trkpt lat="48.37531" lon="2.69546">
        <ele>255.71</ele>
        <time>2021-02-20T10:08:47Z</time>
      </trkpt>
      <trkpt lat="48.37531" lon="2.69544">
        <ele>255.71</ele>
        <time>2021-02-20T10:08:48Z</time>
      </trkpt>
      <trkpt lat="48.37531" lon="2.69541">
        <ele>255.68</ele>
        <time>2021-02-20T10:08:49Z</time>
      </trkpt>
      <trkpt lat="48.37532" lon="2.6954">
        <ele>255.6</ele>
        <time>2021-02-20T10:08:50Z</time>
      </trkpt>
      <trkpt lat="48.37532" lon="2.69538">
        <ele>255.58</ele>
        <time>2021-02-20T10:08:51Z</time>
      </trkpt>
      <trkpt lat="48.37532" lon="2.69536">
        <ele>255.56</ele>
        <time>2021-02-20T10:08:52Z</time>
      </trkpt>
      <trkpt lat="48.37532" lon="2.69533">
        <ele>255.56</ele>
        <time>2021-02-20T10:08:53Z</time>
      </trkpt>
      <trkpt lat="48.37532" lon="2.6953">
        <ele>255.55</ele>
        <time>2021-02-20T10:08:54Z</time>
      </trkpt>
      <trkpt lat="48.37533" lon="2.69529">
        <ele>255.54</ele>
        <time>2021-02-20T10:08:55Z</time>
      </trkpt>
      <trkpt lat="48.37533" lon="2.69527">
        <ele>255.51</ele>
        <time>2021-02-20T10:08:56Z</time>
      </trkpt>
      <trkpt lat="48.37534" lon="2.69525">
        <ele>255.45</ele>
        <time>2021-02-20T10:08:57Z</time>
      </trkpt>
      <trkpt lat="48.37534" lon="2.69523">
        <ele>255.39</ele>
        <time>2021-02-20T10:08:58Z</time>
      </trkpt>
      <trkpt lat="48.37537" lon="2.69487">
        <ele>254.49</ele>
        <time>2021-02-20T10:09:16Z</time>
      </trkpt>
      <trkpt lat="48.37538" lon="2.69451">
        <ele>254.22</ele>
        <time>2021-02-20T10:09:33Z</time>
      </trkpt>
      <trkpt lat="48.37539" lon="2.69448">
        <ele>254.24</ele>
        <time>2021-02-20T10:09:35Z</time>
      </trkpt>
      <trkpt lat="48.37539" lon="2.69446">
        <ele>254.25</ele>
        <time>2021-02-20T10:09:36Z</time>
      </trkpt>
      <trkpt lat="48.3754" lon="2.69444">
        <ele>254.25</ele>
        <time>2021-02-20T10:09:37Z</time>
      </trkpt>
      <trkpt lat="48.3754" lon="2.69443">
        <ele>254.25</ele>
        <time>2021-02-20T10:09:38Z</time>
      </trkpt>
      <trkpt lat="48.37541" lon="2.69438">
        <ele>254.26</ele>
        <time>2021-02-20T10:09:41Z</time>
      </trkpt>
      <trkpt lat="48.37541" lon="2.69435">
        <ele>254.26</ele>
        <time>2021-02-20T10:09:42Z</time>
      </trkpt>
      <trkpt lat="48.37541" lon="2.69433">
        <ele>254.24</ele>
        <time>2021-02-20T10:09:43Z</time>
      </trkpt>
      <trkpt lat="48.37542" lon="2.69431">
        <ele>254.2</ele>
        <time>2021-02-20T10:09:44Z</time>
      </trkpt>
      <trkpt lat="48.37542" lon="2.69429">
        <ele>254.17</ele>
        <time>2021-02-20T10:09:45Z</time>
      </trkpt>
      <trkpt lat="48.37542" lon="2.69427">
        <ele>254.15</ele>
        <time>2021-02-20T10:09:46Z</time>
      </trkpt>
      <trkpt lat="48.37543" lon="2.69424">
        <ele>254.11</ele>
        <time>2021-02-20T10:09:48Z</time>
      </trkpt>
      <trkpt lat="48.37543" lon="2.69421">
        <ele>254.07</ele>
        <time>2021-02-20T10:09:49Z</time>
      </trkpt>
      <trkpt lat="48.37543" lon="2.69419">
        <ele>254.03</ele>
        <time>2021-02-20T10:09:50Z</time>
      </trkpt>
      <trkpt lat="48.37543" lon="2.69417">
        <ele>254</ele>
        <time>2021-02-20T10:09:51Z</time>
      </trkpt>
      <trkpt lat="48.37543" lon="2.69393">
        <ele>253.6</ele>
        <time>2021-02-20T10:10:04Z</time>
      </trkpt>
      <trkpt lat="48.37544" lon="2.69391">
        <ele>253.58</ele>
        <time>2021-02-20T10:10:06Z</time>
      </trkpt>
      <trkpt lat="48.37544" lon="2.69389">
        <ele>253.58</ele>
        <time>2021-02-20T10:10:07Z</time>
      </trkpt>
      <trkpt lat="48.37544" lon="2.69387">
        <ele>253.55</ele>
        <time>2021-02-20T10:10:08Z</time>
      </trkpt>
      <trkpt lat="48.37544" lon="2.69386">
        <ele>253.48</ele>
        <time>2021-02-20T10:10:09Z</time>
      </trkpt>
      <trkpt lat="48.37544" lon="2.69385">
        <ele>253.39</ele>
        <time>2021-02-20T10:10:10Z</time>
      </trkpt>
      <trkpt lat="48.3755" lon="2.69363">
        <ele>252.36</ele>
        <time>2021-02-20T10:10:22Z</time>
      </trkpt>
      <trkpt lat="48.3755" lon="2.6936">
        <ele>252.23</ele>
        <time>2021-02-20T10:10:23Z</time>
      </trkpt>
      <trkpt lat="48.37552" lon="2.69358">
        <ele>252.13</ele>
        <time>2021-02-20T10:10:24Z</time>
      </trkpt>
      <trkpt lat="48.37552" lon="2.69356">
        <ele>252.01</ele>
        <time>2021-02-20T10:10:25Z</time>
      </trkpt>
      <trkpt lat="48.37553" lon="2.69354">
        <ele>251.97</ele>
        <time>2021-02-20T10:10:26Z</time>
      </trkpt>
      <trkpt lat="48.37554" lon="2.69352">
        <ele>251.92</ele>
        <time>2021-02-20T10:10:27Z</time>
      </trkpt>
      <trkpt lat="48.37555" lon="2.6935">
        <ele>251.87</ele>
        <time>2021-02-20T10:10:28Z</time>
      </trkpt>
      <trkpt lat="48.37555" lon="2.69349">
        <ele>251.79</ele>
        <time>2021-02-20T10:10:29Z</time>
      </trkpt>
      <trkpt lat="48.37556" lon="2.69345">
        <ele>251.64</ele>
        <time>2021-02-20T10:10:31Z</time>
      </trkpt>
      <trkpt lat="48.37555" lon="2.69343">
        <ele>251.59</ele>
        <time>2021-02-20T10:10:32Z</time>
      </trkpt>
      <trkpt lat="48.37556" lon="2.6934">
        <ele>251.48</ele>
        <time>2021-02-20T10:10:33Z</time>
      </trkpt>
      <trkpt lat="48.37556" lon="2.69338">
        <ele>251.42</ele>
        <time>2021-02-20T10:10:34Z</time>
      </trkpt>
      <trkpt lat="48.37556" lon="2.69334">
        <ele>251.94</ele>
        <time>2021-02-20T10:10:39Z</time>
      </trkpt>
      <trkpt lat="48.37558" lon="2.69329">
        <ele>251.77</ele>
        <time>2021-02-20T10:10:42Z</time>
      </trkpt>
      <trkpt lat="48.37558" lon="2.69327">
        <ele>251.73</ele>
        <time>2021-02-20T10:10:43Z</time>
      </trkpt>
      <trkpt lat="48.37562" lon="2.69304">
        <ele>250.67</ele>
        <time>2021-02-20T10:10:58Z</time>
      </trkpt>
      <trkpt lat="48.37565" lon="2.69282">
        <ele>250.58</ele>
        <time>2021-02-20T10:11:14Z</time>
      </trkpt>
      <trkpt lat="48.37571" lon="2.69246">
        <ele>250.14</ele>
        <time>2021-02-20T10:11:31Z</time>
      </trkpt>
      <trkpt lat="48.37576" lon="2.69212">
        <ele>249.24</ele>
        <time>2021-02-20T10:11:49Z</time>
      </trkpt>
      <trkpt lat="48.37578" lon="2.69205">
        <ele>249.13</ele>
        <time>2021-02-20T10:11:53Z</time>
      </trkpt>
      <trkpt lat="48.37578" lon="2.69204">
        <ele>249.1</ele>
        <time>2021-02-20T10:11:54Z</time>
      </trkpt>
      <trkpt lat="48.37578" lon="2.69202">
        <ele>249.03</ele>
        <time>2021-02-20T10:11:55Z</time>
      </trkpt>
      <trkpt lat="48.37579" lon="2.692">
        <ele>248.98</ele>
        <time>2021-02-20T10:11:56Z</time>
      </trkpt>
      <trkpt lat="48.3758" lon="2.69198">
        <ele>248.93</ele>
        <time>2021-02-20T10:11:57Z</time>
      </trkpt>
      <trkpt lat="48.37581" lon="2.69196">
        <ele>248.88</ele>
        <time>2021-02-20T10:11:58Z</time>
      </trkpt>
      <trkpt lat="48.37582" lon="2.69195">
        <ele>248.84</ele>
        <time>2021-02-20T10:11:59Z</time>
      </trkpt>
      <trkpt lat="48.37582" lon="2.69193">
        <ele>248.76</ele>
        <time>2021-02-20T10:12:00Z</time>
      </trkpt>
      <trkpt lat="48.37581" lon="2.69191">
        <ele>248.72</ele>
        <time>2021-02-20T10:12:01Z</time>
      </trkpt>
      <trkpt lat="48.37581" lon="2.69188">
        <ele>248.68</ele>
        <time>2021-02-20T10:12:02Z</time>
      </trkpt>
      <trkpt lat="48.37586" lon="2.69151">
        <ele>247.87</ele>
        <time>2021-02-20T10:12:19Z</time>
      </trkpt>
      <trkpt lat="48.3759" lon="2.69118">
        <ele>247.25</ele>
        <time>2021-02-20T10:12:35Z</time>
      </trkpt>
      <trkpt lat="48.37587" lon="2.69088">
        <ele>246.2</ele>
        <time>2021-02-20T10:12:52Z</time>
      </trkpt>
      <trkpt lat="48.37581" lon="2.69042">
        <ele>244.34</ele>
        <time>2021-02-20T10:13:19Z</time>
      </trkpt>
      <trkpt lat="48.3758" lon="2.69031">
        <ele>243.96</ele>
        <time>2021-02-20T10:13:24Z</time>
      </trkpt>
      <trkpt lat="48.37579" lon="2.69001">
        <ele>243.32</ele>
        <time>2021-02-20T10:13:39Z</time>
      </trkpt>
      <trkpt lat="48.37577" lon="2.68982">
        <ele>242.79</ele>
        <time>2021-02-20T10:13:48Z</time>
      </trkpt>
      <trkpt lat="48.37571" lon="2.68945">
        <ele>241.64</ele>
        <time>2021-02-20T10:14:05Z</time>
      </trkpt>
      <trkpt lat="48.3757" lon="2.68917">
        <ele>240.33</ele>
        <time>2021-02-20T10:14:20Z</time>
      </trkpt>
      <trkpt lat="48.37567" lon="2.68886">
        <ele>239.53</ele>
        <time>2021-02-20T10:14:37Z</time>
      </trkpt>
      <trkpt lat="48.37564" lon="2.68851">
        <ele>239.13</ele>
        <time>2021-02-20T10:14:54Z</time>
      </trkpt>
      <trkpt lat="48.37562" lon="2.68808">
        <ele>238.38</ele>
        <time>2021-02-20T10:15:13Z</time>
      </trkpt>
      <trkpt lat="48.37558" lon="2.68782">
        <ele>238.3</ele>
        <time>2021-02-20T10:15:25Z</time>
      </trkpt>
      <trkpt lat="48.37558" lon="2.6878">
        <ele>238.29</ele>
        <time>2021-02-20T10:15:26Z</time>
      </trkpt>
      <trkpt lat="48.37555" lon="2.68747">
        <ele>236.91</ele>
        <time>2021-02-20T10:15:43Z</time>
      </trkpt>
      <trkpt lat="48.37554" lon="2.68722">
        <ele>236.29</ele>
        <time>2021-02-20T10:15:58Z</time>
      </trkpt>
      <trkpt lat="48.37554" lon="2.68721">
        <ele>236</ele>
        <time>2021-02-20T10:15:59Z</time>
      </trkpt>
      <trkpt lat="48.3755" lon="2.68706">
        <ele>235.68</ele>
        <time>2021-02-20T10:16:14Z</time>
      </trkpt>
      <trkpt lat="48.37538" lon="2.68713">
        <ele>236.47</ele>
        <time>2021-02-20T10:16:27Z</time>
      </trkpt>
      <trkpt lat="48.37536" lon="2.68714">
        <ele>236.46</ele>
        <time>2021-02-20T10:16:28Z</time>
      </trkpt>
      <trkpt lat="48.37535" lon="2.68715">
        <ele>236.46</ele>
        <time>2021-02-20T10:16:29Z</time>
      </trkpt>
      <trkpt lat="48.37513" lon="2.68735">
        <ele>236.37</ele>
        <time>2021-02-20T10:16:48Z</time>
      </trkpt>
      <trkpt lat="48.37496" lon="2.68754">
        <ele>236.55</ele>
        <time>2021-02-20T10:17:05Z</time>
      </trkpt>
      <trkpt lat="48.37484" lon="2.68761">
        <ele>237.32</ele>
        <time>2021-02-20T10:17:22Z</time>
      </trkpt>
      <trkpt lat="48.37483" lon="2.68759">
        <ele>237.53</ele>
        <time>2021-02-20T10:17:24Z</time>
      </trkpt>
      <trkpt lat="48.37478" lon="2.68749">
        <ele>238.29</ele>
        <time>2021-02-20T10:17:34Z</time>
      </trkpt>
      <trkpt lat="48.37475" lon="2.68741">
        <ele>238.5</ele>
        <time>2021-02-20T10:17:39Z</time>
      </trkpt>
      <trkpt lat="48.37475" lon="2.6874">
        <ele>238.52</ele>
        <time>2021-02-20T10:17:40Z</time>
      </trkpt>
      <trkpt lat="48.37476" lon="2.68735">
        <ele>238.54</ele>
        <time>2021-02-20T10:17:43Z</time>
      </trkpt>
      <trkpt lat="48.37477" lon="2.68733">
        <ele>238.52</ele>
        <time>2021-02-20T10:17:44Z</time>
      </trkpt>
      <trkpt lat="48.37479" lon="2.68731">
        <ele>238.39</ele>
        <time>2021-02-20T10:17:46Z</time>
      </trkpt>
      <trkpt lat="48.37495" lon="2.68719">
        <ele>237.96</ele>
        <time>2021-02-20T10:18:02Z</time>
      </trkpt>
      <trkpt lat="48.37512" lon="2.68701">
        <ele>237.88</ele>
        <time>2021-02-20T10:18:19Z</time>
      </trkpt>
      <trkpt lat="48.37521" lon="2.68685">
        <ele>237.59</ele>
        <time>2021-02-20T10:18:32Z</time>
      </trkpt>
      <trkpt lat="48.3752" lon="2.68683">
        <ele>237.45</ele>
        <time>2021-02-20T10:18:34Z</time>
      </trkpt>
      <trkpt lat="48.37519" lon="2.68682">
        <ele>237.39</ele>
        <time>2021-02-20T10:18:35Z</time>
      </trkpt>
      <trkpt lat="48.37518" lon="2.68681">
        <ele>237.3</ele>
        <time>2021-02-20T10:18:36Z</time>
      </trkpt>
      <trkpt lat="48.37504" lon="2.68674">
        <ele>235.84</ele>
        <time>2021-02-20T10:18:54Z</time>
      </trkpt>
      <trkpt lat="48.37482" lon="2.68665">
        <ele>235.38</ele>
        <time>2021-02-20T10:19:17Z</time>
      </trkpt>
      <trkpt lat="48.37455" lon="2.68649">
        <ele>235.22</ele>
        <time>2021-02-20T10:19:39Z</time>
      </trkpt>
      <trkpt lat="48.37433" lon="2.68638">
        <ele>235.95</ele>
        <time>2021-02-20T10:20:00Z</time>
      </trkpt>
      <trkpt lat="48.37407" lon="2.68628">
        <ele>236.73</ele>
        <time>2021-02-20T10:20:20Z</time>
      </trkpt>
      <trkpt lat="48.37385" lon="2.6862">
        <ele>236.54</ele>
        <time>2021-02-20T10:20:37Z</time>
      </trkpt>
      <trkpt lat="48.37367" lon="2.6861">
        <ele>236.27</ele>
        <time>2021-02-20T10:20:52Z</time>
      </trkpt>
      <trkpt lat="48.37352" lon="2.68599">
        <ele>237.64</ele>
        <time>2021-02-20T10:21:09Z</time>
      </trkpt>
      <trkpt lat="48.37339" lon="2.68576">
        <ele>237.98</ele>
        <time>2021-02-20T10:21:26Z</time>
      </trkpt>
      <trkpt lat="48.37336" lon="2.68548">
        <ele>237.18</ele>
        <time>2021-02-20T10:21:43Z</time>
      </trkpt>
      <trkpt lat="48.37332" lon="2.68529">
        <ele>238.27</ele>
        <time>2021-02-20T10:21:53Z</time>
      </trkpt>
      <trkpt lat="48.37331" lon="2.68527">
        <ele>238.52</ele>
        <time>2021-02-20T10:21:54Z</time>
      </trkpt>
      <trkpt lat="48.37322" lon="2.68495">
        <ele>238.57</ele>
        <time>2021-02-20T10:22:11Z</time>
      </trkpt>
      <trkpt lat="48.3731" lon="2.6846">
        <ele>238.93</ele>
        <time>2021-02-20T10:22:27Z</time>
      </trkpt>
      <trkpt lat="48.37304" lon="2.6843">
        <ele>239.14</ele>
        <time>2021-02-20T10:22:44Z</time>
      </trkpt>
      <trkpt lat="48.37296" lon="2.68396">
        <ele>239.17</ele>
        <time>2021-02-20T10:23:03Z</time>
      </trkpt>
      <trkpt lat="48.37295" lon="2.68387">
        <ele>237.68</ele>
        <time>2021-02-20T10:23:09Z</time>
      </trkpt>
      <trkpt lat="48.37293" lon="2.68366">
        <ele>239.09</ele>
        <time>2021-02-20T10:23:22Z</time>
      </trkpt>
      <trkpt lat="48.37299" lon="2.68351">
        <ele>238.44</ele>
        <time>2021-02-20T10:23:33Z</time>
      </trkpt>
      <trkpt lat="48.37301" lon="2.68346">
        <ele>239.75</ele>
        <time>2021-02-20T10:23:38Z</time>
      </trkpt>
      <trkpt lat="48.37302" lon="2.68345">
        <ele>239.8</ele>
        <time>2021-02-20T10:23:39Z</time>
      </trkpt>
      <trkpt lat="48.37306" lon="2.68342">
        <ele>240</ele>
        <time>2021-02-20T10:23:43Z</time>
      </trkpt>
      <trkpt lat="48.37318" lon="2.68328">
        <ele>241.12</ele>
        <time>2021-02-20T10:23:58Z</time>
      </trkpt>
      <trkpt lat="48.37337" lon="2.68321">
        <ele>239.72</ele>
        <time>2021-02-20T10:24:16Z</time>
      </trkpt>
      <trkpt lat="48.37358" lon="2.6831">
        <ele>238.85</ele>
        <time>2021-02-20T10:24:36Z</time>
      </trkpt>
      <trkpt lat="48.3738" lon="2.68303">
        <ele>239.02</ele>
        <time>2021-02-20T10:24:54Z</time>
      </trkpt>
      <trkpt lat="48.37389" lon="2.68298">
        <ele>239.4</ele>
        <time>2021-02-20T10:25:01Z</time>
      </trkpt>
      <trkpt lat="48.37391" lon="2.68297">
        <ele>239.44</ele>
        <time>2021-02-20T10:25:02Z</time>
      </trkpt>
      <trkpt lat="48.37392" lon="2.68297">
        <ele>239.44</ele>
        <time>2021-02-20T10:25:03Z</time>
      </trkpt>
      <trkpt lat="48.37405" lon="2.68292">
        <ele>240.33</ele>
        <time>2021-02-20T10:25:20Z</time>
      </trkpt>
      <trkpt lat="48.37424" lon="2.68283">
        <ele>238.97</ele>
        <time>2021-02-20T10:25:37Z</time>
      </trkpt>
      <trkpt lat="48.37443" lon="2.68278">
        <ele>238.2</ele>
        <time>2021-02-20T10:25:52Z</time>
      </trkpt>
      <trkpt lat="48.3746" lon="2.68269">
        <ele>238.25</ele>
        <time>2021-02-20T10:26:06Z</time>
      </trkpt>
      <trkpt lat="48.37483" lon="2.68264">
        <ele>239.69</ele>
        <time>2021-02-20T10:26:24Z</time>
      </trkpt>
      <trkpt lat="48.37494" lon="2.68261">
        <ele>236.37</ele>
        <time>2021-02-20T10:26:37Z</time>
      </trkpt>
      <trkpt lat="48.37496" lon="2.68261">
        <ele>239.39</ele>
        <time>2021-02-20T10:26:44Z</time>
      </trkpt>
      <trkpt lat="48.37502" lon="2.68271">
        <ele>239.69</ele>
        <time>2021-02-20T10:26:57Z</time>
      </trkpt>
      <trkpt lat="48.37503" lon="2.68272">
        <ele>239.72</ele>
        <time>2021-02-20T10:26:58Z</time>
      </trkpt>
      <trkpt lat="48.37504" lon="2.68273">
        <ele>239.74</ele>
        <time>2021-02-20T10:26:59Z</time>
      </trkpt>
      <trkpt lat="48.37505" lon="2.68273">
        <ele>239.74</ele>
        <time>2021-02-20T10:27:00Z</time>
      </trkpt>
      <trkpt lat="48.37511" lon="2.68272">
        <ele>239.67</ele>
        <time>2021-02-20T10:27:06Z</time>
      </trkpt>
      <trkpt lat="48.37512" lon="2.68271">
        <ele>239.65</ele>
        <time>2021-02-20T10:27:07Z</time>
      </trkpt>
      <trkpt lat="48.37514" lon="2.68269">
        <ele>239.63</ele>
        <time>2021-02-20T10:27:09Z</time>
      </trkpt>
      <trkpt lat="48.37526" lon="2.68261">
        <ele>238.89</ele>
        <time>2021-02-20T10:27:25Z</time>
      </trkpt>
      <trkpt lat="48.37537" lon="2.68263">
        <ele>238.45</ele>
        <time>2021-02-20T10:27:34Z</time>
      </trkpt>
      <trkpt lat="48.37539" lon="2.68263">
        <ele>238.45</ele>
        <time>2021-02-20T10:27:35Z</time>
      </trkpt>
      <trkpt lat="48.37559" lon="2.68265">
        <ele>238.6</ele>
        <time>2021-02-20T10:27:50Z</time>
      </trkpt>
      <trkpt lat="48.37582" lon="2.68274">
        <ele>238.4</ele>
        <time>2021-02-20T10:28:07Z</time>
      </trkpt>
      <trkpt lat="48.376" lon="2.68272">
        <ele>238.33</ele>
        <time>2021-02-20T10:28:21Z</time>
      </trkpt>
      <trkpt lat="48.37619" lon="2.68271">
        <ele>238.02</ele>
        <time>2021-02-20T10:28:37Z</time>
      </trkpt>
      <trkpt lat="48.37639" lon="2.68273">
        <ele>237.75</ele>
        <time>2021-02-20T10:28:52Z</time>
      </trkpt>
      <trkpt lat="48.37656" lon="2.68275">
        <ele>238.28</ele>
        <time>2021-02-20T10:29:07Z</time>
      </trkpt>
      <trkpt lat="48.37661" lon="2.6828">
        <ele>237.35</ele>
        <time>2021-02-20T10:29:19Z</time>
      </trkpt>
      <trkpt lat="48.37663" lon="2.68279">
        <ele>237.27</ele>
        <time>2021-02-20T10:29:21Z</time>
      </trkpt>
      <trkpt lat="48.37665" lon="2.68279">
        <ele>237.24</ele>
        <time>2021-02-20T10:29:22Z</time>
      </trkpt>
      <trkpt lat="48.37666" lon="2.68279">
        <ele>237.14</ele>
        <time>2021-02-20T10:29:23Z</time>
      </trkpt>
      <trkpt lat="48.37678" lon="2.68276">
        <ele>237.03</ele>
        <time>2021-02-20T10:29:35Z</time>
      </trkpt>
      <trkpt lat="48.37701" lon="2.68281">
        <ele>238.24</ele>
        <time>2021-02-20T10:29:55Z</time>
      </trkpt>
      <trkpt lat="48.37723" lon="2.68282">
        <ele>238.74</ele>
        <time>2021-02-20T10:30:14Z</time>
      </trkpt>
      <trkpt lat="48.37742" lon="2.6829">
        <ele>240.33</ele>
        <time>2021-02-20T10:30:31Z</time>
      </trkpt>
      <trkpt lat="48.37766" lon="2.68298">
        <ele>240.37</ele>
        <time>2021-02-20T10:30:48Z</time>
      </trkpt>
      <trkpt lat="48.37789" lon="2.68285">
        <ele>238.61</ele>
        <time>2021-02-20T10:31:06Z</time>
      </trkpt>
      <trkpt lat="48.37807" lon="2.68267">
        <ele>237.13</ele>
        <time>2021-02-20T10:31:24Z</time>
      </trkpt>
      <trkpt lat="48.37811" lon="2.68266">
        <ele>236.64</ele>
        <time>2021-02-20T10:31:36Z</time>
      </trkpt>
      <trkpt lat="48.37819" lon="2.68263">
        <ele>236.64</ele>
        <time>2021-02-20T10:31:51Z</time>
      </trkpt>
      <trkpt lat="48.37836" lon="2.68256">
        <ele>235.93</ele>
        <time>2021-02-20T10:32:07Z</time>
      </trkpt>
      <trkpt lat="48.37838" lon="2.68254">
        <ele>235.78</ele>
        <time>2021-02-20T10:32:09Z</time>
      </trkpt>
      <trkpt lat="48.37852" lon="2.68241">
        <ele>235.24</ele>
        <time>2021-02-20T10:32:24Z</time>
      </trkpt>
      <trkpt lat="48.37875" lon="2.68224">
        <ele>235.04</ele>
        <time>2021-02-20T10:32:46Z</time>
      </trkpt>
      <trkpt lat="48.37878" lon="2.6822">
        <ele>235.43</ele>
        <time>2021-02-20T10:32:49Z</time>
      </trkpt>
      <trkpt lat="48.37879" lon="2.68218">
        <ele>235.46</ele>
        <time>2021-02-20T10:32:50Z</time>
      </trkpt>
      <trkpt lat="48.37878" lon="2.68195">
        <ele>234.55</ele>
        <time>2021-02-20T10:33:06Z</time>
      </trkpt>
      <trkpt lat="48.37876" lon="2.68172">
        <ele>230.92</ele>
        <time>2021-02-20T10:33:21Z</time>
      </trkpt>
      <trkpt lat="48.37873" lon="2.68165">
        <ele>234.47</ele>
        <time>2021-02-20T10:33:27Z</time>
      </trkpt>
      <trkpt lat="48.3787" lon="2.68162">
        <ele>237.67</ele>
        <time>2021-02-20T10:33:30Z</time>
      </trkpt>
      <trkpt lat="48.37866" lon="2.6814">
        <ele>237.37</ele>
        <time>2021-02-20T10:33:41Z</time>
      </trkpt>
      <trkpt lat="48.37859" lon="2.68121">
        <ele>236.94</ele>
        <time>2021-02-20T10:33:52Z</time>
      </trkpt>
      <trkpt lat="48.37859" lon="2.68115">
        <ele>237.05</ele>
        <time>2021-02-20T10:33:56Z</time>
      </trkpt>
      <trkpt lat="48.37859" lon="2.68113">
        <ele>237.13</ele>
        <time>2021-02-20T10:33:57Z</time>
      </trkpt>
      <trkpt lat="48.37859" lon="2.68111">
        <ele>237.23</ele>
        <time>2021-02-20T10:33:58Z</time>
      </trkpt>
      <trkpt lat="48.37861" lon="2.68101">
        <ele>237.61</ele>
        <time>2021-02-20T10:34:04Z</time>
      </trkpt>
      <trkpt lat="48.37863" lon="2.68089">
        <ele>238.22</ele>
        <time>2021-02-20T10:34:11Z</time>
      </trkpt>
      <trkpt lat="48.37862" lon="2.68087">
        <ele>238.22</ele>
        <time>2021-02-20T10:34:12Z</time>
      </trkpt>
      <trkpt lat="48.37858" lon="2.6808">
        <ele>238.9</ele>
        <time>2021-02-20T10:34:17Z</time>
      </trkpt>
      <trkpt lat="48.37858" lon="2.68077">
        <ele>239.22</ele>
        <time>2021-02-20T10:34:19Z</time>
      </trkpt>
      <trkpt lat="48.37859" lon="2.68075">
        <ele>239.29</ele>
        <time>2021-02-20T10:34:20Z</time>
      </trkpt>
      <trkpt lat="48.37858" lon="2.68066">
        <ele>239.87</ele>
        <time>2021-02-20T10:34:27Z</time>
      </trkpt>
      <trkpt lat="48.37856" lon="2.68062">
        <ele>240.11</ele>
        <time>2021-02-20T10:34:30Z</time>
      </trkpt>
      <trkpt lat="48.37852" lon="2.68045">
        <ele>241.44</ele>
        <time>2021-02-20T10:34:42Z</time>
      </trkpt>
      <trkpt lat="48.37851" lon="2.68043">
        <ele>241.62</ele>
        <time>2021-02-20T10:34:43Z</time>
      </trkpt>
      <trkpt lat="48.37843" lon="2.68031">
        <ele>244.51</ele>
        <time>2021-02-20T10:34:55Z</time>
      </trkpt>
      <trkpt lat="48.3784" lon="2.68016">
        <ele>246.19</ele>
        <time>2021-02-20T10:35:12Z</time>
      </trkpt>
      <trkpt lat="48.37836" lon="2.67999">
        <ele>249.32</ele>
        <time>2021-02-20T10:35:29Z</time>
      </trkpt>
      <trkpt lat="48.37834" lon="2.67997">
        <ele>250.03</ele>
        <time>2021-02-20T10:35:33Z</time>
      </trkpt>
      <trkpt lat="48.3783" lon="2.67994">
        <ele>250.65</ele>
        <time>2021-02-20T10:35:37Z</time>
      </trkpt>
      <trkpt lat="48.37819" lon="2.67991">
        <ele>253.16</ele>
        <time>2021-02-20T10:35:50Z</time>
      </trkpt>
      <trkpt lat="48.37818" lon="2.67991">
        <ele>253.35</ele>
        <time>2021-02-20T10:35:51Z</time>
      </trkpt>
      <trkpt lat="48.37817" lon="2.67991">
        <ele>253.78</ele>
        <time>2021-02-20T10:35:52Z</time>
      </trkpt>
      <trkpt lat="48.37811" lon="2.67992">
        <ele>255.01</ele>
        <time>2021-02-20T10:35:58Z</time>
      </trkpt>
      <trkpt lat="48.37794" lon="2.67993">
        <ele>257.97</ele>
        <time>2021-02-20T10:36:18Z</time>
      </trkpt>
      <trkpt lat="48.378" lon="2.67975">
        <ele>258.18</ele>
        <time>2021-02-20T10:36:38Z</time>
      </trkpt>
      <trkpt lat="48.37803" lon="2.6796">
        <ele>260.68</ele>
        <time>2021-02-20T10:36:53Z</time>
      </trkpt>
      <trkpt lat="48.37816" lon="2.67942">
        <ele>263.71</ele>
        <time>2021-02-20T10:37:13Z</time>
      </trkpt>
      <trkpt lat="48.37819" lon="2.6794">
        <ele>263.81</ele>
        <time>2021-02-20T10:37:36Z</time>
      </trkpt>
      <trkpt lat="48.37812" lon="2.67947">
        <ele>263.75</ele>
        <time>2021-02-20T10:37:56Z</time>
      </trkpt>
      <trkpt lat="48.37808" lon="2.67945">
        <ele>264.25</ele>
        <time>2021-02-20T10:38:14Z</time>
      </trkpt>
      <trkpt lat="48.37816" lon="2.67926">
        <ele>267.33</ele>
        <time>2021-02-20T10:38:37Z</time>
      </trkpt>
      <trkpt lat="48.37817" lon="2.67922">
        <ele>268.65</ele>
        <time>2021-02-20T10:38:40Z</time>
      </trkpt>
      <trkpt lat="48.37825" lon="2.67905">
        <ele>269.54</ele>
        <time>2021-02-20T10:39:04Z</time>
      </trkpt>
      <trkpt lat="48.37825" lon="2.67895">
        <ele>271.05</ele>
        <time>2021-02-20T10:39:20Z</time>
      </trkpt>
      <trkpt lat="48.3783" lon="2.67889">
        <ele>272.26</ele>
        <time>2021-02-20T10:39:37Z</time>
      </trkpt>
      <trkpt lat="48.37846" lon="2.67901">
        <ele>270.45</ele>
        <time>2021-02-20T10:40:00Z</time>
      </trkpt>
      <trkpt lat="48.37859" lon="2.67875">
        <ele>271.24</ele>
        <time>2021-02-20T10:40:25Z</time>
      </trkpt>
      <trkpt lat="48.37859" lon="2.67874">
        <ele>271.29</ele>
        <time>2021-02-20T10:40:26Z</time>
      </trkpt>
      <trkpt lat="48.37861" lon="2.67871">
        <ele>271.36</ele>
        <time>2021-02-20T10:40:28Z</time>
      </trkpt>
      <trkpt lat="48.3786" lon="2.67859">
        <ele>271.5</ele>
        <time>2021-02-20T10:40:42Z</time>
      </trkpt>
      <trkpt lat="48.3786" lon="2.6785">
        <ele>272.11</ele>
        <time>2021-02-20T10:40:48Z</time>
      </trkpt>
      <trkpt lat="48.37857" lon="2.67836">
        <ele>272.28</ele>
        <time>2021-02-20T10:40:58Z</time>
      </trkpt>
      <trkpt lat="48.37858" lon="2.67834">
        <ele>272.33</ele>
        <time>2021-02-20T10:40:59Z</time>
      </trkpt>
      <trkpt lat="48.37863" lon="2.67826">
        <ele>272.7</ele>
        <time>2021-02-20T10:41:08Z</time>
      </trkpt>
      <trkpt lat="48.37867" lon="2.67811">
        <ele>272.79</ele>
        <time>2021-02-20T10:41:19Z</time>
      </trkpt>
      <trkpt lat="48.37862" lon="2.67793">
        <ele>271.72</ele>
        <time>2021-02-20T10:41:34Z</time>
      </trkpt>
      <trkpt lat="48.37862" lon="2.67786">
        <ele>271.84</ele>
        <time>2021-02-20T10:41:38Z</time>
      </trkpt>
      <trkpt lat="48.37862" lon="2.67785">
        <ele>271.81</ele>
        <time>2021-02-20T10:41:39Z</time>
      </trkpt>
      <trkpt lat="48.37862" lon="2.67783">
        <ele>271.75</ele>
        <time>2021-02-20T10:41:40Z</time>
      </trkpt>
      <trkpt lat="48.37863" lon="2.67771">
        <ele>271.1</ele>
        <time>2021-02-20T10:41:48Z</time>
      </trkpt>
      <trkpt lat="48.37864" lon="2.67769">
        <ele>271.03</ele>
        <time>2021-02-20T10:41:49Z</time>
      </trkpt>
      <trkpt lat="48.37865" lon="2.67766">
        <ele>270.93</ele>
        <time>2021-02-20T10:41:50Z</time>
      </trkpt>
      <trkpt lat="48.37851" lon="2.67735">
        <ele>269.81</ele>
        <time>2021-02-20T10:42:09Z</time>
      </trkpt>
      <trkpt lat="48.37844" lon="2.6772">
        <ele>271.65</ele>
        <time>2021-02-20T10:42:30Z</time>
      </trkpt>
      <trkpt lat="48.37845" lon="2.67716">
        <ele>272.32</ele>
        <time>2021-02-20T10:42:53Z</time>
      </trkpt>
      <trkpt lat="48.37847" lon="2.67712">
        <ele>271.68</ele>
        <time>2021-02-20T10:43:17Z</time>
      </trkpt>
      <trkpt lat="48.37848" lon="2.67713">
        <ele>271.68</ele>
        <time>2021-02-20T10:43:18Z</time>
      </trkpt>
      <trkpt lat="48.37846" lon="2.67718">
        <ele>272.11</ele>
        <time>2021-02-20T10:43:54Z</time>
      </trkpt>
      <trkpt lat="48.37847" lon="2.67717">
        <ele>272.02</ele>
        <time>2021-02-20T10:44:01Z</time>
      </trkpt>
      <trkpt lat="48.37848" lon="2.67717">
        <ele>271.22</ele>
        <time>2021-02-20T10:44:34Z</time>
      </trkpt>
      <trkpt lat="48.37845" lon="2.67716">
        <ele>272.13</ele>
        <time>2021-02-20T10:45:07Z</time>
      </trkpt>
      <trkpt lat="48.37842" lon="2.67717">
        <ele>272.06</ele>
        <time>2021-02-20T10:45:27Z</time>
      </trkpt>
      <trkpt lat="48.3784" lon="2.67714">
        <ele>271.88</ele>
        <time>2021-02-20T10:46:01Z</time>
      </trkpt>
      <trkpt lat="48.3784" lon="2.67718">
        <ele>271.92</ele>
        <time>2021-02-20T10:46:26Z</time>
      </trkpt>
      <trkpt lat="48.3784" lon="2.67715">
        <ele>271.92</ele>
        <time>2021-02-20T10:46:44Z</time>
      </trkpt>
      <trkpt lat="48.3784" lon="2.67712">
        <ele>271.92</ele>
        <time>2021-02-20T10:47:05Z</time>
      </trkpt>
      <trkpt lat="48.3784" lon="2.67708">
        <ele>271.92</ele>
        <time>2021-02-20T10:47:36Z</time>
      </trkpt>
      <trkpt lat="48.37841" lon="2.67709">
        <ele>271.92</ele>
        <time>2021-02-20T10:47:57Z</time>
      </trkpt>
      <trkpt lat="48.3784" lon="2.67707">
        <ele>271.92</ele>
        <time>2021-02-20T10:48:20Z</time>
      </trkpt>
      <trkpt lat="48.37837" lon="2.67694">
        <ele>271.92</ele>
        <time>2021-02-20T10:48:30Z</time>
      </trkpt>
      <trkpt lat="48.37833" lon="2.67672">
        <ele>272.17</ele>
        <time>2021-02-20T10:48:46Z</time>
      </trkpt>
      <trkpt lat="48.37832" lon="2.67661">
        <ele>271.28</ele>
        <time>2021-02-20T10:48:53Z</time>
      </trkpt>
      <trkpt lat="48.3783" lon="2.67636">
        <ele>271.93</ele>
        <time>2021-02-20T10:49:07Z</time>
      </trkpt>
      <trkpt lat="48.37829" lon="2.67626">
        <ele>271.89</ele>
        <time>2021-02-20T10:49:12Z</time>
      </trkpt>
      <trkpt lat="48.37829" lon="2.67623">
        <ele>272.19</ele>
        <time>2021-02-20T10:49:13Z</time>
      </trkpt>
      <trkpt lat="48.37828" lon="2.67621">
        <ele>272.38</ele>
        <time>2021-02-20T10:49:14Z</time>
      </trkpt>
      <trkpt lat="48.37824" lon="2.67592">
        <ele>272.37</ele>
        <time>2021-02-20T10:49:31Z</time>
      </trkpt>
      <trkpt lat="48.37834" lon="2.67589">
        <ele>272.64</ele>
        <time>2021-02-20T10:49:43Z</time>
      </trkpt>
      <trkpt lat="48.37837" lon="2.67585">
        <ele>272.59</ele>
        <time>2021-02-20T10:49:46Z</time>
      </trkpt>
      <trkpt lat="48.37847" lon="2.6758">
        <ele>272.44</ele>
        <time>2021-02-20T10:49:56Z</time>
      </trkpt>
      <trkpt lat="48.3785" lon="2.67581">
        <ele>272.39</ele>
        <time>2021-02-20T10:49:59Z</time>
      </trkpt>
      <trkpt lat="48.37851" lon="2.67583">
        <ele>272.38</ele>
        <time>2021-02-20T10:50:00Z</time>
      </trkpt>
      <trkpt lat="48.3787" lon="2.67598">
        <ele>272.54</ele>
        <time>2021-02-20T10:50:18Z</time>
      </trkpt>
      <trkpt lat="48.37883" lon="2.67595">
        <ele>271.98</ele>
        <time>2021-02-20T10:50:33Z</time>
      </trkpt>
      <trkpt lat="48.3789" lon="2.6759">
        <ele>269.75</ele>
        <time>2021-02-20T10:50:44Z</time>
      </trkpt>
      <trkpt lat="48.37891" lon="2.67588">
        <ele>269.52</ele>
        <time>2021-02-20T10:50:45Z</time>
      </trkpt>
      <trkpt lat="48.37892" lon="2.67587">
        <ele>269.15</ele>
        <time>2021-02-20T10:50:46Z</time>
      </trkpt>
      <trkpt lat="48.37897" lon="2.67596">
        <ele>267.27</ele>
        <time>2021-02-20T10:50:59Z</time>
      </trkpt>
      <trkpt lat="48.37905" lon="2.67613">
        <ele>265.02</ele>
        <time>2021-02-20T10:51:14Z</time>
      </trkpt>
      <trkpt lat="48.37912" lon="2.6762">
        <ele>265.44</ele>
        <time>2021-02-20T10:51:31Z</time>
      </trkpt>
      <trkpt lat="48.37917" lon="2.67608">
        <ele>268.55</ele>
        <time>2021-02-20T10:51:49Z</time>
      </trkpt>
      <trkpt lat="48.37922" lon="2.67599">
        <ele>269.94</ele>
        <time>2021-02-20T10:51:58Z</time>
      </trkpt>
      <trkpt lat="48.37922" lon="2.67598">
        <ele>269.92</ele>
        <time>2021-02-20T10:51:59Z</time>
      </trkpt>
      <trkpt lat="48.37932" lon="2.67577">
        <ele>268.58</ele>
        <time>2021-02-20T10:52:20Z</time>
      </trkpt>
      <trkpt lat="48.37949" lon="2.67553">
        <ele>268.8</ele>
        <time>2021-02-20T10:52:42Z</time>
      </trkpt>
      <trkpt lat="48.3795" lon="2.67552">
        <ele>269.07</ele>
        <time>2021-02-20T10:52:43Z</time>
      </trkpt>
      <trkpt lat="48.37952" lon="2.67534">
        <ele>269.74</ele>
        <time>2021-02-20T10:53:01Z</time>
      </trkpt>
      <trkpt lat="48.37958" lon="2.67514">
        <ele>271.64</ele>
        <time>2021-02-20T10:53:17Z</time>
      </trkpt>
      <trkpt lat="48.37959" lon="2.67513">
        <ele>271.64</ele>
        <time>2021-02-20T10:53:18Z</time>
      </trkpt>
      <trkpt lat="48.3796" lon="2.67511">
        <ele>271.61</ele>
        <time>2021-02-20T10:53:19Z</time>
      </trkpt>
      <trkpt lat="48.37961" lon="2.67509">
        <ele>271.56</ele>
        <time>2021-02-20T10:53:20Z</time>
      </trkpt>
      <trkpt lat="48.37961" lon="2.67508">
        <ele>271.47</ele>
        <time>2021-02-20T10:53:21Z</time>
      </trkpt>
      <trkpt lat="48.37963" lon="2.67489">
        <ele>270.17</ele>
        <time>2021-02-20T10:53:36Z</time>
      </trkpt>
      <trkpt lat="48.37965" lon="2.67481">
        <ele>270.04</ele>
        <time>2021-02-20T10:53:57Z</time>
      </trkpt>
      <trkpt lat="48.37967" lon="2.6747">
        <ele>270</ele>
        <time>2021-02-20T10:54:18Z</time>
      </trkpt>
      <trkpt lat="48.37962" lon="2.67452">
        <ele>269.78</ele>
        <time>2021-02-20T10:54:41Z</time>
      </trkpt>
      <trkpt lat="48.37964" lon="2.67436">
        <ele>269.8</ele>
        <time>2021-02-20T10:54:58Z</time>
      </trkpt>
      <trkpt lat="48.37966" lon="2.67425">
        <ele>269.8</ele>
        <time>2021-02-20T10:55:18Z</time>
      </trkpt>
      <trkpt lat="48.37963" lon="2.67411">
        <ele>269.8</ele>
        <time>2021-02-20T10:55:34Z</time>
      </trkpt>
      <trkpt lat="48.37964" lon="2.67396">
        <ele>269.8</ele>
        <time>2021-02-20T10:55:48Z</time>
      </trkpt>
      <trkpt lat="48.37962" lon="2.67381">
        <ele>270.79</ele>
        <time>2021-02-20T10:56:04Z</time>
      </trkpt>
      <trkpt lat="48.37948" lon="2.67379">
        <ele>271</ele>
        <time>2021-02-20T10:56:24Z</time>
      </trkpt>
      <trkpt lat="48.37942" lon="2.67377">
        <ele>271.08</ele>
        <time>2021-02-20T10:56:30Z</time>
      </trkpt>
      <trkpt lat="48.37924" lon="2.67368">
        <ele>271.84</ele>
        <time>2021-02-20T10:56:47Z</time>
      </trkpt>
      <trkpt lat="48.3792" lon="2.67368">
        <ele>271.86</ele>
        <time>2021-02-20T10:56:51Z</time>
      </trkpt>
      <trkpt lat="48.37902" lon="2.67366">
        <ele>272.66</ele>
        <time>2021-02-20T10:57:08Z</time>
      </trkpt>
      <trkpt lat="48.37899" lon="2.67351">
        <ele>272.53</ele>
        <time>2021-02-20T10:57:24Z</time>
      </trkpt>
      <trkpt lat="48.37909" lon="2.67338">
        <ele>272.42</ele>
        <time>2021-02-20T10:57:43Z</time>
      </trkpt>
      <trkpt lat="48.37915" lon="2.67331">
        <ele>272.41</ele>
        <time>2021-02-20T10:57:52Z</time>
      </trkpt>
      <trkpt lat="48.37924" lon="2.67313">
        <ele>270.76</ele>
        <time>2021-02-20T10:58:10Z</time>
      </trkpt>
      <trkpt lat="48.3793" lon="2.67302">
        <ele>270.59</ele>
        <time>2021-02-20T10:58:22Z</time>
      </trkpt>
      <trkpt lat="48.37932" lon="2.67296">
        <ele>270.67</ele>
        <time>2021-02-20T10:58:27Z</time>
      </trkpt>
      <trkpt lat="48.37934" lon="2.67292">
        <ele>270.58</ele>
        <time>2021-02-20T10:58:30Z</time>
      </trkpt>
      <trkpt lat="48.37935" lon="2.67291">
        <ele>270.57</ele>
        <time>2021-02-20T10:58:31Z</time>
      </trkpt>
      <trkpt lat="48.37941" lon="2.67281">
        <ele>271.1</ele>
        <time>2021-02-20T10:58:39Z</time>
      </trkpt>
      <trkpt lat="48.37942" lon="2.6728">
        <ele>271.14</ele>
        <time>2021-02-20T10:58:40Z</time>
      </trkpt>
      <trkpt lat="48.37943" lon="2.67278">
        <ele>271.14</ele>
        <time>2021-02-20T10:58:41Z</time>
      </trkpt>
      <trkpt lat="48.3795" lon="2.67261">
        <ele>271.38</ele>
        <time>2021-02-20T10:58:54Z</time>
      </trkpt>
      <trkpt lat="48.3795" lon="2.67259">
        <ele>271.31</ele>
        <time>2021-02-20T10:58:55Z</time>
      </trkpt>
      <trkpt lat="48.37951" lon="2.67257">
        <ele>271.24</ele>
        <time>2021-02-20T10:58:56Z</time>
      </trkpt>
      <trkpt lat="48.37953" lon="2.67246">
        <ele>270.46</ele>
        <time>2021-02-20T10:59:04Z</time>
      </trkpt>
      <trkpt lat="48.37956" lon="2.67243">
        <ele>270.18</ele>
        <time>2021-02-20T10:59:18Z</time>
      </trkpt>
      <trkpt lat="48.37959" lon="2.67228">
        <ele>270.41</ele>
        <time>2021-02-20T10:59:37Z</time>
      </trkpt>
      <trkpt lat="48.37966" lon="2.67225">
        <ele>271.58</ele>
        <time>2021-02-20T10:59:55Z</time>
      </trkpt>
      <trkpt lat="48.37973" lon="2.67225">
        <ele>272.21</ele>
        <time>2021-02-20T11:00:09Z</time>
      </trkpt>
      <trkpt lat="48.37979" lon="2.67221">
        <ele>269.99</ele>
        <time>2021-02-20T11:00:17Z</time>
      </trkpt>
      <trkpt lat="48.37988" lon="2.67213">
        <ele>268.15</ele>
        <time>2021-02-20T11:00:32Z</time>
      </trkpt>
      <trkpt lat="48.37985" lon="2.67204">
        <ele>268.08</ele>
        <time>2021-02-20T11:00:41Z</time>
      </trkpt>
      <trkpt lat="48.37982" lon="2.67189">
        <ele>266.7</ele>
        <time>2021-02-20T11:00:56Z</time>
      </trkpt>
      <trkpt lat="48.37988" lon="2.6718">
        <ele>264.57</ele>
        <time>2021-02-20T11:01:11Z</time>
      </trkpt>
      <trkpt lat="48.37993" lon="2.67169">
        <ele>263.78</ele>
        <time>2021-02-20T11:01:28Z</time>
      </trkpt>
      <trkpt lat="48.37995" lon="2.67171">
        <ele>262.77</ele>
        <time>2021-02-20T11:01:45Z</time>
      </trkpt>
      <trkpt lat="48.37996" lon="2.67174">
        <ele>262.5</ele>
        <time>2021-02-20T11:02:03Z</time>
      </trkpt>
      <trkpt lat="48.37996" lon="2.67174">
        <ele>261.53</ele>
        <time>2021-02-20T11:02:05Z</time>
      </trkpt>
      <trkpt lat="48.37996" lon="2.67174">
        <ele>264.64</ele>
        <time>2021-02-20T11:02:14Z</time>
      </trkpt>
      <trkpt lat="48.37992" lon="2.67172">
        <ele>263.72</ele>
        <time>2021-02-20T11:02:32Z</time>
      </trkpt>
      <trkpt lat="48.3799" lon="2.67168">
        <ele>263.1</ele>
        <time>2021-02-20T11:02:45Z</time>
      </trkpt>
      <trkpt lat="48.37986" lon="2.6716">
        <ele>262.7</ele>
        <time>2021-02-20T11:02:55Z</time>
      </trkpt>
      <trkpt lat="48.3798" lon="2.67148">
        <ele>260.01</ele>
        <time>2021-02-20T11:03:11Z</time>
      </trkpt>
      <trkpt lat="48.37973" lon="2.67145">
        <ele>256.79</ele>
        <time>2021-02-20T11:03:25Z</time>
      </trkpt>
      <trkpt lat="48.37971" lon="2.67142">
        <ele>254.85</ele>
        <time>2021-02-20T11:03:43Z</time>
      </trkpt>
      <trkpt lat="48.37976" lon="2.67144">
        <ele>254.55</ele>
        <time>2021-02-20T11:04:18Z</time>
      </trkpt>
      <trkpt lat="48.37971" lon="2.67126">
        <ele>252.03</ele>
        <time>2021-02-20T11:04:41Z</time>
      </trkpt>
      <trkpt lat="48.3797" lon="2.67105">
        <ele>252.11</ele>
        <time>2021-02-20T11:05:04Z</time>
      </trkpt>
      <trkpt lat="48.37973" lon="2.67107">
        <ele>252.4</ele>
        <time>2021-02-20T11:05:19Z</time>
      </trkpt>
      <trkpt lat="48.37974" lon="2.67093">
        <ele>253.84</ele>
        <time>2021-02-20T11:05:36Z</time>
      </trkpt>
      <trkpt lat="48.3798" lon="2.67085">
        <ele>256.95</ele>
        <time>2021-02-20T11:05:52Z</time>
      </trkpt>
      <trkpt lat="48.37987" lon="2.67076">
        <ele>259.99</ele>
        <time>2021-02-20T11:06:06Z</time>
      </trkpt>
      <trkpt lat="48.37978" lon="2.67068">
        <ele>262.14</ele>
        <time>2021-02-20T11:06:25Z</time>
      </trkpt>
      <trkpt lat="48.37974" lon="2.67059">
        <ele>263.79</ele>
        <time>2021-02-20T11:06:48Z</time>
      </trkpt>
      <trkpt lat="48.37963" lon="2.67047">
        <ele>266.83</ele>
        <time>2021-02-20T11:07:05Z</time>
      </trkpt>
      <trkpt lat="48.37952" lon="2.6704">
        <ele>267.86</ele>
        <time>2021-02-20T11:07:23Z</time>
      </trkpt>
      <trkpt lat="48.37952" lon="2.6703">
        <ele>269.29</ele>
        <time>2021-02-20T11:07:36Z</time>
      </trkpt>
      <trkpt lat="48.37959" lon="2.67027">
        <ele>272.41</ele>
        <time>2021-02-20T11:07:56Z</time>
      </trkpt>
      <trkpt lat="48.37964" lon="2.67027">
        <ele>272.68</ele>
        <time>2021-02-20T11:08:20Z</time>
      </trkpt>
      <trkpt lat="48.37952" lon="2.67011">
        <ele>272.41</ele>
        <time>2021-02-20T11:08:43Z</time>
      </trkpt>
      <trkpt lat="48.3794" lon="2.67012">
        <ele>271.29</ele>
        <time>2021-02-20T11:08:56Z</time>
      </trkpt>
      <trkpt lat="48.37931" lon="2.67005">
        <ele>272.31</ele>
        <time>2021-02-20T11:09:13Z</time>
      </trkpt>
      <trkpt lat="48.37924" lon="2.67004">
        <ele>274.17</ele>
        <time>2021-02-20T11:09:41Z</time>
      </trkpt>
      <trkpt lat="48.37917" lon="2.67008">
        <ele>274.09</ele>
        <time>2021-02-20T11:10:15Z</time>
      </trkpt>
      <trkpt lat="48.37909" lon="2.67006">
        <ele>272.41</ele>
        <time>2021-02-20T11:10:34Z</time>
      </trkpt>
      <trkpt lat="48.37894" lon="2.67002">
        <ele>272.23</ele>
        <time>2021-02-20T11:10:52Z</time>
      </trkpt>
      <trkpt lat="48.37888" lon="2.66991">
        <ele>274.46</ele>
        <time>2021-02-20T11:11:13Z</time>
      </trkpt>
      <trkpt lat="48.37888" lon="2.66983">
        <ele>274.84</ele>
        <time>2021-02-20T11:11:29Z</time>
      </trkpt>
      <trkpt lat="48.37879" lon="2.66982">
        <ele>273.03</ele>
        <time>2021-02-20T11:11:47Z</time>
      </trkpt>
      <trkpt lat="48.3787" lon="2.66995">
        <ele>273.03</ele>
        <time>2021-02-20T11:12:09Z</time>
      </trkpt>
      <trkpt lat="48.37872" lon="2.67013">
        <ele>271.56</ele>
        <time>2021-02-20T11:12:29Z</time>
      </trkpt>
      <trkpt lat="48.37873" lon="2.67043">
        <ele>270.76</ele>
        <time>2021-02-20T11:12:53Z</time>
      </trkpt>
      <trkpt lat="48.37872" lon="2.67055">
        <ele>271.15</ele>
        <time>2021-02-20T11:13:01Z</time>
      </trkpt>
      <trkpt lat="48.37874" lon="2.67085">
        <ele>271.66</ele>
        <time>2021-02-20T11:13:23Z</time>
      </trkpt>
      <trkpt lat="48.37861" lon="2.67094">
        <ele>270.61</ele>
        <time>2021-02-20T11:13:44Z</time>
      </trkpt>
      <trkpt lat="48.37861" lon="2.67091">
        <ele>270.3</ele>
        <time>2021-02-20T11:14:12Z</time>
      </trkpt>
      <trkpt lat="48.37861" lon="2.67087">
        <ele>270.84</ele>
        <time>2021-02-20T11:14:21Z</time>
      </trkpt>
      <trkpt lat="48.37872" lon="2.67081">
        <ele>271.29</ele>
        <time>2021-02-20T11:14:36Z</time>
      </trkpt>
      <trkpt lat="48.37871" lon="2.67064">
        <ele>271.74</ele>
        <time>2021-02-20T11:14:55Z</time>
      </trkpt>
      <trkpt lat="48.3787" lon="2.6706">
        <ele>271.85</ele>
        <time>2021-02-20T11:14:58Z</time>
      </trkpt>
      <trkpt lat="48.37872" lon="2.67046">
        <ele>272.22</ele>
        <time>2021-02-20T11:15:11Z</time>
      </trkpt>
      <trkpt lat="48.37873" lon="2.67022">
        <ele>272.62</ele>
        <time>2021-02-20T11:15:28Z</time>
      </trkpt>
      <trkpt lat="48.3787" lon="2.67019">
        <ele>273.5</ele>
        <time>2021-02-20T11:15:47Z</time>
      </trkpt>
      <trkpt lat="48.37867" lon="2.67013">
        <ele>272.88</ele>
        <time>2021-02-20T11:16:06Z</time>
      </trkpt>
      <trkpt lat="48.37866" lon="2.67008">
        <ele>271.28</ele>
        <time>2021-02-20T11:16:26Z</time>
      </trkpt>
      <trkpt lat="48.37866" lon="2.67003">
        <ele>271.19</ele>
        <time>2021-02-20T11:16:41Z</time>
      </trkpt>
      <trkpt lat="48.3787" lon="2.67019">
        <ele>271.91</ele>
        <time>2021-02-20T11:16:58Z</time>
      </trkpt>
      <trkpt lat="48.37871" lon="2.6703">
        <ele>271.64</ele>
        <time>2021-02-20T11:17:06Z</time>
      </trkpt>
      <trkpt lat="48.37871" lon="2.67032">
        <ele>271.52</ele>
        <time>2021-02-20T11:17:07Z</time>
      </trkpt>
      <trkpt lat="48.37871" lon="2.67054">
        <ele>271.02</ele>
        <time>2021-02-20T11:17:26Z</time>
      </trkpt>
      <trkpt lat="48.37869" lon="2.6708">
        <ele>271.54</ele>
        <time>2021-02-20T11:17:47Z</time>
      </trkpt>
      <trkpt lat="48.37862" lon="2.67093">
        <ele>270.87</ele>
        <time>2021-02-20T11:18:00Z</time>
      </trkpt>
      <trkpt lat="48.3786" lon="2.67099">
        <ele>270.67</ele>
        <time>2021-02-20T11:18:04Z</time>
      </trkpt>
      <trkpt lat="48.37861" lon="2.67105">
        <ele>270.15</ele>
        <time>2021-02-20T11:18:20Z</time>
      </trkpt>
      <trkpt lat="48.37866" lon="2.67119">
        <ele>270.93</ele>
        <time>2021-02-20T11:18:41Z</time>
      </trkpt>
      <trkpt lat="48.37871" lon="2.67144">
        <ele>271.39</ele>
        <time>2021-02-20T11:19:06Z</time>
      </trkpt>
      <trkpt lat="48.37862" lon="2.67174">
        <ele>271.89</ele>
        <time>2021-02-20T11:19:30Z</time>
      </trkpt>
      <trkpt lat="48.37874" lon="2.67183">
        <ele>273.91</ele>
        <time>2021-02-20T11:19:47Z</time>
      </trkpt>
      <trkpt lat="48.37876" lon="2.67189">
        <ele>270.62</ele>
        <time>2021-02-20T11:19:53Z</time>
      </trkpt>
      <trkpt lat="48.37876" lon="2.67194">
        <ele>274</ele>
        <time>2021-02-20T11:19:57Z</time>
      </trkpt>
      <trkpt lat="48.37874" lon="2.67217">
        <ele>273.01</ele>
        <time>2021-02-20T11:20:16Z</time>
      </trkpt>
      <trkpt lat="48.3788" lon="2.67233">
        <ele>271.4</ele>
        <time>2021-02-20T11:20:33Z</time>
      </trkpt>
      <trkpt lat="48.37884" lon="2.67216">
        <ele>271.4</ele>
        <time>2021-02-20T11:20:53Z</time>
      </trkpt>
      <trkpt lat="48.37886" lon="2.67203">
        <ele>268.88</ele>
        <time>2021-02-20T11:21:04Z</time>
      </trkpt>
      <trkpt lat="48.3789" lon="2.6719">
        <ele>267.1</ele>
        <time>2021-02-20T11:21:24Z</time>
      </trkpt>
      <trkpt lat="48.37892" lon="2.6719">
        <ele>266.71</ele>
        <time>2021-02-20T11:21:50Z</time>
      </trkpt>
      <trkpt lat="48.3789" lon="2.67189">
        <ele>266.55</ele>
        <time>2021-02-20T11:22:00Z</time>
      </trkpt>
      <trkpt lat="48.37888" lon="2.6718">
        <ele>266.09</ele>
        <time>2021-02-20T11:22:06Z</time>
      </trkpt>
      <trkpt lat="48.379" lon="2.67162">
        <ele>263.9</ele>
        <time>2021-02-20T11:22:26Z</time>
      </trkpt>
      <trkpt lat="48.37905" lon="2.67141">
        <ele>260.9</ele>
        <time>2021-02-20T11:22:41Z</time>
      </trkpt>
      <trkpt lat="48.3791" lon="2.67128">
        <ele>257.9</ele>
        <time>2021-02-20T11:22:53Z</time>
      </trkpt>
      <trkpt lat="48.37919" lon="2.67129">
        <ele>254.8</ele>
        <time>2021-02-20T11:23:02Z</time>
      </trkpt>
      <trkpt lat="48.37925" lon="2.67131">
        <ele>254.53</ele>
        <time>2021-02-20T11:23:07Z</time>
      </trkpt>
      <trkpt lat="48.37939" lon="2.6715">
        <ele>251.52</ele>
        <time>2021-02-20T11:23:29Z</time>
      </trkpt>
      <trkpt lat="48.37942" lon="2.67172">
        <ele>251.45</ele>
        <time>2021-02-20T11:23:47Z</time>
      </trkpt>
      <trkpt lat="48.37935" lon="2.67199">
        <ele>252.74</ele>
        <time>2021-02-20T11:24:11Z</time>
      </trkpt>
      <trkpt lat="48.37931" lon="2.67212">
        <ele>252.86</ele>
        <time>2021-02-20T11:24:34Z</time>
      </trkpt>
      <trkpt lat="48.37924" lon="2.67237">
        <ele>252.81</ele>
        <time>2021-02-20T11:24:51Z</time>
      </trkpt>
      <trkpt lat="48.37917" lon="2.67262">
        <ele>254.3</ele>
        <time>2021-02-20T11:25:08Z</time>
      </trkpt>
      <trkpt lat="48.37916" lon="2.67287">
        <ele>257.2</ele>
        <time>2021-02-20T11:25:27Z</time>
      </trkpt>
      <trkpt lat="48.37915" lon="2.67288">
        <ele>257.35</ele>
        <time>2021-02-20T11:25:28Z</time>
      </trkpt>
      <trkpt lat="48.37917" lon="2.67278">
        <ele>258.3</ele>
        <time>2021-02-20T11:25:44Z</time>
      </trkpt>
      <trkpt lat="48.37908" lon="2.67276">
        <ele>256.35</ele>
        <time>2021-02-20T11:25:58Z</time>
      </trkpt>
      <trkpt lat="48.37896" lon="2.67299">
        <ele>258.44</ele>
        <time>2021-02-20T11:26:23Z</time>
      </trkpt>
      <trkpt lat="48.37892" lon="2.67314">
        <ele>261.44</ele>
        <time>2021-02-20T11:26:41Z</time>
      </trkpt>
      <trkpt lat="48.37883" lon="2.67319">
        <ele>264.45</ele>
        <time>2021-02-20T11:27:01Z</time>
      </trkpt>
      <trkpt lat="48.37882" lon="2.6733">
        <ele>267.52</ele>
        <time>2021-02-20T11:27:22Z</time>
      </trkpt>
      <trkpt lat="48.37876" lon="2.67345">
        <ele>270.53</ele>
        <time>2021-02-20T11:27:39Z</time>
      </trkpt>
      <trkpt lat="48.37867" lon="2.67374">
        <ele>273.38</ele>
        <time>2021-02-20T11:28:09Z</time>
      </trkpt>
      <trkpt lat="48.37861" lon="2.67374">
        <ele>273.89</ele>
        <time>2021-02-20T11:28:25Z</time>
      </trkpt>
      <trkpt lat="48.37855" lon="2.67362">
        <ele>273.7</ele>
        <time>2021-02-20T11:28:36Z</time>
      </trkpt>
      <trkpt lat="48.37852" lon="2.67355">
        <ele>274.51</ele>
        <time>2021-02-20T11:28:50Z</time>
      </trkpt>
      <trkpt lat="48.37846" lon="2.67342">
        <ele>274.86</ele>
        <time>2021-02-20T11:29:06Z</time>
      </trkpt>
      <trkpt lat="48.37834" lon="2.67318">
        <ele>275.11</ele>
        <time>2021-02-20T11:29:24Z</time>
      </trkpt>
      <trkpt lat="48.37824" lon="2.67295">
        <ele>275.45</ele>
        <time>2021-02-20T11:29:44Z</time>
      </trkpt>
      <trkpt lat="48.37817" lon="2.67282">
        <ele>274.95</ele>
        <time>2021-02-20T11:29:55Z</time>
      </trkpt>
      <trkpt lat="48.37812" lon="2.67272">
        <ele>275.1</ele>
        <time>2021-02-20T11:30:03Z</time>
      </trkpt>
      <trkpt lat="48.37812" lon="2.67271">
        <ele>275.15</ele>
        <time>2021-02-20T11:30:04Z</time>
      </trkpt>
      <trkpt lat="48.37799" lon="2.67249">
        <ele>274.56</ele>
        <time>2021-02-20T11:30:23Z</time>
      </trkpt>
      <trkpt lat="48.37798" lon="2.67245">
        <ele>275.35</ele>
        <time>2021-02-20T11:30:36Z</time>
      </trkpt>
      <trkpt lat="48.37798" lon="2.67248">
        <ele>273.16</ele>
        <time>2021-02-20T11:30:45Z</time>
      </trkpt>
      <trkpt lat="48.37799" lon="2.67255">
        <ele>276.35</ele>
        <time>2021-02-20T11:30:54Z</time>
      </trkpt>
      <trkpt lat="48.37798" lon="2.67258">
        <ele>274.93</ele>
        <time>2021-02-20T11:30:58Z</time>
      </trkpt>
      <trkpt lat="48.37798" lon="2.67258">
        <ele>275.73</ele>
        <time>2021-02-20T11:31:17Z</time>
      </trkpt>
      <trkpt lat="48.37802" lon="2.67255">
        <ele>275.4</ele>
        <time>2021-02-20T11:31:45Z</time>
      </trkpt>
      <trkpt lat="48.37799" lon="2.67251">
        <ele>274.81</ele>
        <time>2021-02-20T11:32:31Z</time>
      </trkpt>
      <trkpt lat="48.37798" lon="2.67251">
        <ele>274.81</ele>
        <time>2021-02-20T11:33:33Z</time>
      </trkpt>
      <trkpt lat="48.37797" lon="2.67253">
        <ele>274.81</ele>
        <time>2021-02-20T11:34:47Z</time>
      </trkpt>
      <trkpt lat="48.37798" lon="2.67254">
        <ele>274.81</ele>
        <time>2021-02-20T11:35:57Z</time>
      </trkpt>
      <trkpt lat="48.37799" lon="2.67256">
        <ele>274.81</ele>
        <time>2021-02-20T11:37:01Z</time>
      </trkpt>
      <trkpt lat="48.37798" lon="2.67251">
        <ele>274.81</ele>
        <time>2021-02-20T11:37:57Z</time>
      </trkpt>
      <trkpt lat="48.37799" lon="2.67252">
        <ele>274.81</ele>
        <time>2021-02-20T11:38:47Z</time>
      </trkpt>
      <trkpt lat="48.37797" lon="2.6725">
        <ele>274.81</ele>
        <time>2021-02-20T11:40:11Z</time>
      </trkpt>
      <trkpt lat="48.37799" lon="2.67258">
        <ele>274.81</ele>
        <time>2021-02-20T11:41:08Z</time>
      </trkpt>
      <trkpt lat="48.37801" lon="2.67258">
        <ele>274.81</ele>
        <time>2021-02-20T11:42:14Z</time>
      </trkpt>
      <trkpt lat="48.37801" lon="2.67257">
        <ele>274.81</ele>
        <time>2021-02-20T11:43:17Z</time>
      </trkpt>
      <trkpt lat="48.37798" lon="2.67254">
        <ele>274.81</ele>
        <time>2021-02-20T11:44:11Z</time>
      </trkpt>
      <trkpt lat="48.378" lon="2.67256">
        <ele>274.81</ele>
        <time>2021-02-20T11:45:24Z</time>
      </trkpt>
      <trkpt lat="48.37798" lon="2.67256">
        <ele>274.81</ele>
        <time>2021-02-20T11:46:47Z</time>
      </trkpt>
      <trkpt lat="48.37799" lon="2.67256">
        <ele>274.81</ele>
        <time>2021-02-20T11:47:48Z</time>
      </trkpt>
      <trkpt lat="48.37801" lon="2.67254">
        <ele>274.81</ele>
        <time>2021-02-20T11:48:47Z</time>
      </trkpt>
      <trkpt lat="48.378" lon="2.67254">
        <ele>274.81</ele>
        <time>2021-02-20T11:49:50Z</time>
      </trkpt>
      <trkpt lat="48.378" lon="2.67255">
        <ele>274.81</ele>
        <time>2021-02-20T11:50:32Z</time>
      </trkpt>
      <trkpt lat="48.37797" lon="2.67256">
        <ele>274.81</ele>
        <time>2021-02-20T11:51:41Z</time>
      </trkpt>
      <trkpt lat="48.37799" lon="2.67256">
        <ele>274.81</ele>
        <time>2021-02-20T11:52:47Z</time>
      </trkpt>
      <trkpt lat="48.37799" lon="2.67258">
        <ele>274.81</ele>
        <time>2021-02-20T11:53:50Z</time>
      </trkpt>
      <trkpt lat="48.37799" lon="2.67258">
        <ele>274.81</ele>
        <time>2021-02-20T11:55:41Z</time>
      </trkpt>
      <trkpt lat="48.37797" lon="2.67259">
        <ele>274.81</ele>
        <time>2021-02-20T11:57:32Z</time>
      </trkpt>
      <trkpt lat="48.37797" lon="2.67258">
        <ele>277.48</ele>
        <time>2021-02-20T11:57:52Z</time>
      </trkpt>
      <trkpt lat="48.37793" lon="2.67254">
        <ele>276.07</ele>
        <time>2021-02-20T11:58:11Z</time>
      </trkpt>
      <trkpt lat="48.37791" lon="2.6726">
        <ele>275.36</ele>
        <time>2021-02-20T11:58:36Z</time>
      </trkpt>
      <trkpt lat="48.37793" lon="2.67252">
        <ele>275.13</ele>
        <time>2021-02-20T11:59:07Z</time>
      </trkpt>
      <trkpt lat="48.37792" lon="2.67251">
        <ele>275.04</ele>
        <time>2021-02-20T11:59:32Z</time>
      </trkpt>
      <trkpt lat="48.37791" lon="2.67247">
        <ele>275.37</ele>
        <time>2021-02-20T11:59:53Z</time>
      </trkpt>
      <trkpt lat="48.37792" lon="2.67244">
        <ele>275.37</ele>
        <time>2021-02-20T12:00:15Z</time>
      </trkpt>
      <trkpt lat="48.37793" lon="2.67244">
        <ele>275.37</ele>
        <time>2021-02-20T12:00:36Z</time>
      </trkpt>
      <trkpt lat="48.37793" lon="2.67244">
        <ele>275.37</ele>
        <time>2021-02-20T12:00:50Z</time>
      </trkpt>
      <trkpt lat="48.37793" lon="2.67247">
        <ele>275.37</ele>
        <time>2021-02-20T12:01:17Z</time>
      </trkpt>
      <trkpt lat="48.37793" lon="2.67237">
        <ele>275.37</ele>
        <time>2021-02-20T12:01:31Z</time>
      </trkpt>
      <trkpt lat="48.37796" lon="2.67218">
        <ele>275.84</ele>
        <time>2021-02-20T12:01:48Z</time>
      </trkpt>
      <trkpt lat="48.37797" lon="2.67203">
        <ele>274.63</ele>
        <time>2021-02-20T12:02:01Z</time>
      </trkpt>
      <trkpt lat="48.37799" lon="2.67198">
        <ele>273.78</ele>
        <time>2021-02-20T12:02:05Z</time>
      </trkpt>
      <trkpt lat="48.37799" lon="2.67195">
        <ele>273.65</ele>
        <time>2021-02-20T12:02:06Z</time>
      </trkpt>
      <trkpt lat="48.37799" lon="2.6719">
        <ele>273.54</ele>
        <time>2021-02-20T12:02:07Z</time>
      </trkpt>
      <trkpt lat="48.37799" lon="2.67184">
        <ele>273.39</ele>
        <time>2021-02-20T12:02:08Z</time>
      </trkpt>
      <trkpt lat="48.378" lon="2.67178">
        <ele>273.17</ele>
        <time>2021-02-20T12:02:09Z</time>
      </trkpt>
      <trkpt lat="48.37805" lon="2.67142">
        <ele>268.71</ele>
        <time>2021-02-20T12:02:17Z</time>
      </trkpt>
      <trkpt lat="48.37806" lon="2.67129">
        <ele>265.43</ele>
        <time>2021-02-20T12:02:24Z</time>
      </trkpt>
      <trkpt lat="48.37807" lon="2.6711">
        <ele>262.42</ele>
        <time>2021-02-20T12:02:39Z</time>
      </trkpt>
      <trkpt lat="48.37806" lon="2.67095">
        <ele>261.31</ele>
        <time>2021-02-20T12:02:57Z</time>
      </trkpt>
      <trkpt lat="48.37809" lon="2.6708">
        <ele>260.62</ele>
        <time>2021-02-20T12:03:15Z</time>
      </trkpt>
      <trkpt lat="48.37809" lon="2.67053">
        <ele>259.38</ele>
        <time>2021-02-20T12:03:32Z</time>
      </trkpt>
      <trkpt lat="48.3781" lon="2.67048">
        <ele>259.14</ele>
        <time>2021-02-20T12:03:35Z</time>
      </trkpt>
      <trkpt lat="48.37811" lon="2.67042">
        <ele>258.86</ele>
        <time>2021-02-20T12:03:38Z</time>
      </trkpt>
      <trkpt lat="48.37811" lon="2.6704">
        <ele>258.8</ele>
        <time>2021-02-20T12:03:39Z</time>
      </trkpt>
      <trkpt lat="48.37813" lon="2.6701">
        <ele>257.94</ele>
        <time>2021-02-20T12:03:58Z</time>
      </trkpt>
      <trkpt lat="48.37815" lon="2.66963">
        <ele>255.1</ele>
        <time>2021-02-20T12:04:22Z</time>
      </trkpt>
      <trkpt lat="48.37818" lon="2.66937">
        <ele>254.42</ele>
        <time>2021-02-20T12:04:38Z</time>
      </trkpt>
      <trkpt lat="48.3782" lon="2.66902">
        <ele>253.4</ele>
        <time>2021-02-20T12:04:56Z</time>
      </trkpt>
      <trkpt lat="48.3782" lon="2.66862">
        <ele>251.78</ele>
        <time>2021-02-20T12:05:16Z</time>
      </trkpt>
      <trkpt lat="48.3782" lon="2.66847">
        <ele>251.5</ele>
        <time>2021-02-20T12:05:28Z</time>
      </trkpt>
      <trkpt lat="48.3782" lon="2.66845">
        <ele>251.5</ele>
        <time>2021-02-20T12:05:29Z</time>
      </trkpt>
      <trkpt lat="48.3782" lon="2.66844">
        <ele>251.5</ele>
        <time>2021-02-20T12:05:30Z</time>
      </trkpt>
      <trkpt lat="48.37824" lon="2.66808">
        <ele>251.06</ele>
        <time>2021-02-20T12:05:50Z</time>
      </trkpt>
      <trkpt lat="48.37826" lon="2.66781">
        <ele>249.96</ele>
        <time>2021-02-20T12:06:06Z</time>
      </trkpt>
      <trkpt lat="48.37829" lon="2.66753">
        <ele>248.15</ele>
        <time>2021-02-20T12:06:22Z</time>
      </trkpt>
      <trkpt lat="48.37833" lon="2.66728">
        <ele>247.66</ele>
        <time>2021-02-20T12:06:37Z</time>
      </trkpt>
      <trkpt lat="48.37835" lon="2.66685">
        <ele>246.69</ele>
        <time>2021-02-20T12:06:58Z</time>
      </trkpt>
      <trkpt lat="48.37836" lon="2.66655">
        <ele>248.1</ele>
        <time>2021-02-20T12:07:15Z</time>
      </trkpt>
      <trkpt lat="48.37835" lon="2.66624">
        <ele>247.45</ele>
        <time>2021-02-20T12:07:33Z</time>
      </trkpt>
      <trkpt lat="48.37835" lon="2.66616">
        <ele>247.43</ele>
        <time>2021-02-20T12:07:38Z</time>
      </trkpt>
      <trkpt lat="48.37836" lon="2.66613">
        <ele>247.51</ele>
        <time>2021-02-20T12:07:40Z</time>
      </trkpt>
      <trkpt lat="48.37841" lon="2.6659">
        <ele>248.69</ele>
        <time>2021-02-20T12:07:57Z</time>
      </trkpt>
      <trkpt lat="48.37845" lon="2.66558">
        <ele>249.9</ele>
        <time>2021-02-20T12:08:19Z</time>
      </trkpt>
      <trkpt lat="48.37856" lon="2.66513">
        <ele>251.17</ele>
        <time>2021-02-20T12:08:47Z</time>
      </trkpt>
      <trkpt lat="48.3786" lon="2.66495">
        <ele>252.37</ele>
        <time>2021-02-20T12:08:58Z</time>
      </trkpt>
      <trkpt lat="48.3786" lon="2.66493">
        <ele>252.53</ele>
        <time>2021-02-20T12:08:59Z</time>
      </trkpt>
      <trkpt lat="48.37863" lon="2.66463">
        <ele>255.56</ele>
        <time>2021-02-20T12:09:15Z</time>
      </trkpt>
      <trkpt lat="48.37868" lon="2.66433">
        <ele>256.43</ele>
        <time>2021-02-20T12:09:33Z</time>
      </trkpt>
      <trkpt lat="48.37875" lon="2.66395">
        <ele>257.46</ele>
        <time>2021-02-20T12:09:59Z</time>
      </trkpt>
      <trkpt lat="48.37879" lon="2.66354">
        <ele>259.5</ele>
        <time>2021-02-20T12:10:24Z</time>
      </trkpt>
      <trkpt lat="48.37889" lon="2.66335">
        <ele>260.41</ele>
        <time>2021-02-20T12:10:39Z</time>
      </trkpt>
      <trkpt lat="48.3791" lon="2.66347">
        <ele>260.37</ele>
        <time>2021-02-20T12:11:03Z</time>
      </trkpt>
      <trkpt lat="48.3793" lon="2.66346">
        <ele>263.65</ele>
        <time>2021-02-20T12:11:25Z</time>
      </trkpt>
      <trkpt lat="48.37934" lon="2.66352">
        <ele>264.26</ele>
        <time>2021-02-20T12:11:33Z</time>
      </trkpt>
      <trkpt lat="48.37954" lon="2.66359">
        <ele>264.95</ele>
        <time>2021-02-20T12:11:55Z</time>
      </trkpt>
      <trkpt lat="48.3797" lon="2.66356">
        <ele>262.17</ele>
        <time>2021-02-20T12:12:17Z</time>
      </trkpt>
      <trkpt lat="48.37982" lon="2.66361">
        <ele>259.11</ele>
        <time>2021-02-20T12:12:31Z</time>
      </trkpt>
      <trkpt lat="48.37983" lon="2.66362">
        <ele>258.88</ele>
        <time>2021-02-20T12:12:32Z</time>
      </trkpt>
      <trkpt lat="48.37984" lon="2.66364">
        <ele>258.67</ele>
        <time>2021-02-20T12:12:33Z</time>
      </trkpt>
      <trkpt lat="48.37985" lon="2.66365">
        <ele>258.37</ele>
        <time>2021-02-20T12:12:34Z</time>
      </trkpt>
      <trkpt lat="48.37991" lon="2.66378">
        <ele>254.66</ele>
        <time>2021-02-20T12:12:43Z</time>
      </trkpt>
      <trkpt lat="48.37992" lon="2.66379">
        <ele>254.3</ele>
        <time>2021-02-20T12:12:44Z</time>
      </trkpt>
      <trkpt lat="48.38002" lon="2.66385">
        <ele>251</ele>
        <time>2021-02-20T12:12:52Z</time>
      </trkpt>
      <trkpt lat="48.38011" lon="2.66387">
        <ele>248.76</ele>
        <time>2021-02-20T12:13:06Z</time>
      </trkpt>
      <trkpt lat="48.38024" lon="2.66405">
        <ele>247.87</ele>
        <time>2021-02-20T12:13:26Z</time>
      </trkpt>
      <trkpt lat="48.38026" lon="2.66408">
        <ele>247.58</ele>
        <time>2021-02-20T12:13:30Z</time>
      </trkpt>
      <trkpt lat="48.38028" lon="2.66411">
        <ele>247.15</ele>
        <time>2021-02-20T12:13:33Z</time>
      </trkpt>
      <trkpt lat="48.38029" lon="2.66413">
        <ele>247.07</ele>
        <time>2021-02-20T12:13:34Z</time>
      </trkpt>
      <trkpt lat="48.38033" lon="2.66423">
        <ele>245.85</ele>
        <time>2021-02-20T12:13:43Z</time>
      </trkpt>
      <trkpt lat="48.38035" lon="2.66426">
        <ele>244.93</ele>
        <time>2021-02-20T12:13:59Z</time>
      </trkpt>
      <trkpt lat="48.38039" lon="2.66423">
        <ele>243.96</ele>
        <time>2021-02-20T12:14:29Z</time>
      </trkpt>
      <trkpt lat="48.38041" lon="2.66428">
        <ele>244.8</ele>
        <time>2021-02-20T12:14:34Z</time>
      </trkpt>
      <trkpt lat="48.38042" lon="2.66429">
        <ele>244.85</ele>
        <time>2021-02-20T12:14:35Z</time>
      </trkpt>
      <trkpt lat="48.38046" lon="2.66433">
        <ele>244.87</ele>
        <time>2021-02-20T12:14:39Z</time>
      </trkpt>
      <trkpt lat="48.38052" lon="2.66445">
        <ele>244.81</ele>
        <time>2021-02-20T12:14:47Z</time>
      </trkpt>
      <trkpt lat="48.38073" lon="2.66481">
        <ele>241.56</ele>
        <time>2021-02-20T12:15:11Z</time>
      </trkpt>
      <trkpt lat="48.38074" lon="2.66484">
        <ele>240.6</ele>
        <time>2021-02-20T12:15:13Z</time>
      </trkpt>
      <trkpt lat="48.3808" lon="2.66496">
        <ele>240.6</ele>
        <time>2021-02-20T12:15:21Z</time>
      </trkpt>
      <trkpt lat="48.38082" lon="2.66503">
        <ele>240.62</ele>
        <time>2021-02-20T12:15:30Z</time>
      </trkpt>
      <trkpt lat="48.38082" lon="2.66505">
        <ele>240.47</ele>
        <time>2021-02-20T12:15:31Z</time>
      </trkpt>
      <trkpt lat="48.38084" lon="2.66506">
        <ele>240.34</ele>
        <time>2021-02-20T12:15:32Z</time>
      </trkpt>
      <trkpt lat="48.38086" lon="2.6651">
        <ele>240.2</ele>
        <time>2021-02-20T12:15:35Z</time>
      </trkpt>
      <trkpt lat="48.38088" lon="2.66511">
        <ele>240.16</ele>
        <time>2021-02-20T12:15:36Z</time>
      </trkpt>
      <trkpt lat="48.38088" lon="2.66513">
        <ele>240.11</ele>
        <time>2021-02-20T12:15:37Z</time>
      </trkpt>
      <trkpt lat="48.38107" lon="2.66515">
        <ele>240.06</ele>
        <time>2021-02-20T12:15:52Z</time>
      </trkpt>
      <trkpt lat="48.3811" lon="2.66504">
        <ele>239.72</ele>
        <time>2021-02-20T12:16:12Z</time>
      </trkpt>
      <trkpt lat="48.38114" lon="2.66474">
        <ele>239.36</ele>
        <time>2021-02-20T12:16:29Z</time>
      </trkpt>
      <trkpt lat="48.38115" lon="2.66439">
        <ele>239.08</ele>
        <time>2021-02-20T12:16:47Z</time>
      </trkpt>
      <trkpt lat="48.38115" lon="2.66407">
        <ele>238.7</ele>
        <time>2021-02-20T12:17:04Z</time>
      </trkpt>
      <trkpt lat="48.38119" lon="2.66372">
        <ele>239.13</ele>
        <time>2021-02-20T12:17:25Z</time>
      </trkpt>
      <trkpt lat="48.38123" lon="2.66332">
        <ele>239.72</ele>
        <time>2021-02-20T12:17:45Z</time>
      </trkpt>
      <trkpt lat="48.38127" lon="2.66298">
        <ele>239.85</ele>
        <time>2021-02-20T12:18:03Z</time>
      </trkpt>
      <trkpt lat="48.38131" lon="2.66278">
        <ele>238.98</ele>
        <time>2021-02-20T12:18:16Z</time>
      </trkpt>
      <trkpt lat="48.38134" lon="2.66254">
        <ele>240.11</ele>
        <time>2021-02-20T12:18:32Z</time>
      </trkpt>
      <trkpt lat="48.38136" lon="2.66239">
        <ele>240.89</ele>
        <time>2021-02-20T12:18:42Z</time>
      </trkpt>
      <trkpt lat="48.38143" lon="2.66206">
        <ele>240.65</ele>
        <time>2021-02-20T12:19:03Z</time>
      </trkpt>
      <trkpt lat="48.3815" lon="2.66175">
        <ele>240.36</ele>
        <time>2021-02-20T12:19:19Z</time>
      </trkpt>
      <trkpt lat="48.38152" lon="2.66137">
        <ele>239.74</ele>
        <time>2021-02-20T12:19:37Z</time>
      </trkpt>
      <trkpt lat="48.38153" lon="2.66102">
        <ele>240.28</ele>
        <time>2021-02-20T12:19:56Z</time>
      </trkpt>
      <trkpt lat="48.38159" lon="2.66063">
        <ele>239.85</ele>
        <time>2021-02-20T12:20:18Z</time>
      </trkpt>
      <trkpt lat="48.38157" lon="2.66018">
        <ele>239.58</ele>
        <time>2021-02-20T12:20:40Z</time>
      </trkpt>
      <trkpt lat="48.3816" lon="2.65985">
        <ele>238.86</ele>
        <time>2021-02-20T12:20:59Z</time>
      </trkpt>
      <trkpt lat="48.38159" lon="2.6595">
        <ele>238.31</ele>
        <time>2021-02-20T12:21:19Z</time>
      </trkpt>
      <trkpt lat="48.38158" lon="2.65934">
        <ele>238.51</ele>
        <time>2021-02-20T12:21:25Z</time>
      </trkpt>
      <trkpt lat="48.38156" lon="2.65906">
        <ele>238.8</ele>
        <time>2021-02-20T12:21:42Z</time>
      </trkpt>
      <trkpt lat="48.38155" lon="2.65859">
        <ele>239.21</ele>
        <time>2021-02-20T12:22:07Z</time>
      </trkpt>
      <trkpt lat="48.38154" lon="2.65838">
        <ele>239.12</ele>
        <time>2021-02-20T12:22:20Z</time>
      </trkpt>
      <trkpt lat="48.38154" lon="2.65835">
        <ele>239.12</ele>
        <time>2021-02-20T12:22:21Z</time>
      </trkpt>
      <trkpt lat="48.38151" lon="2.65825">
        <ele>239.11</ele>
        <time>2021-02-20T12:22:23Z</time>
      </trkpt>
      <trkpt lat="48.38151" lon="2.65822">
        <ele>239.11</ele>
        <time>2021-02-20T12:22:24Z</time>
      </trkpt>
      <trkpt lat="48.38151" lon="2.6582">
        <ele>239.11</ele>
        <time>2021-02-20T12:22:25Z</time>
      </trkpt>
      <trkpt lat="48.38151" lon="2.65817">
        <ele>239.11</ele>
        <time>2021-02-20T12:22:26Z</time>
      </trkpt>
      <trkpt lat="48.38147" lon="2.65796">
        <ele>239.63</ele>
        <time>2021-02-20T12:22:38Z</time>
      </trkpt>
      <trkpt lat="48.38144" lon="2.65764">
        <ele>239.95</ele>
        <time>2021-02-20T12:22:55Z</time>
      </trkpt>
      <trkpt lat="48.38138" lon="2.65737">
        <ele>239.93</ele>
        <time>2021-02-20T12:23:12Z</time>
      </trkpt>
      <trkpt lat="48.38139" lon="2.65711">
        <ele>240.77</ele>
        <time>2021-02-20T12:23:26Z</time>
      </trkpt>
      <trkpt lat="48.3814" lon="2.65675">
        <ele>240.84</ele>
        <time>2021-02-20T12:23:44Z</time>
      </trkpt>
      <trkpt lat="48.38141" lon="2.65648">
        <ele>241.53</ele>
        <time>2021-02-20T12:24:03Z</time>
      </trkpt>
      <trkpt lat="48.38147" lon="2.65614">
        <ele>241.87</ele>
        <time>2021-02-20T12:24:22Z</time>
      </trkpt>
      <trkpt lat="48.38158" lon="2.65593">
        <ele>241.18</ele>
        <time>2021-02-20T12:24:43Z</time>
      </trkpt>
      <trkpt lat="48.38172" lon="2.65559">
        <ele>242.71</ele>
        <time>2021-02-20T12:25:07Z</time>
      </trkpt>
      <trkpt lat="48.38184" lon="2.65504">
        <ele>244.43</ele>
        <time>2021-02-20T12:25:37Z</time>
      </trkpt>
      <trkpt lat="48.38183" lon="2.65468">
        <ele>244.93</ele>
        <time>2021-02-20T12:25:57Z</time>
      </trkpt>
      <trkpt lat="48.38185" lon="2.65421">
        <ele>247.93</ele>
        <time>2021-02-20T12:26:27Z</time>
      </trkpt>
      <trkpt lat="48.38185" lon="2.65405">
        <ele>249.88</ele>
        <time>2021-02-20T12:26:36Z</time>
      </trkpt>
      <trkpt lat="48.38196" lon="2.65358">
        <ele>250.59</ele>
        <time>2021-02-20T12:27:04Z</time>
      </trkpt>
      <trkpt lat="48.38203" lon="2.65322">
        <ele>252.08</ele>
        <time>2021-02-20T12:27:27Z</time>
      </trkpt>
      <trkpt lat="48.38202" lon="2.65278">
        <ele>254.05</ele>
        <time>2021-02-20T12:27:53Z</time>
      </trkpt>
      <trkpt lat="48.38213" lon="2.65235">
        <ele>256.49</ele>
        <time>2021-02-20T12:28:17Z</time>
      </trkpt>
      <trkpt lat="48.38215" lon="2.6523">
        <ele>256.65</ele>
        <time>2021-02-20T12:28:20Z</time>
      </trkpt>
      <trkpt lat="48.38229" lon="2.65199">
        <ele>258.57</ele>
        <time>2021-02-20T12:28:41Z</time>
      </trkpt>
      <trkpt lat="48.38237" lon="2.65168">
        <ele>260.68</ele>
        <time>2021-02-20T12:29:02Z</time>
      </trkpt>
      <trkpt lat="48.38246" lon="2.65125">
        <ele>262.52</ele>
        <time>2021-02-20T12:29:29Z</time>
      </trkpt>
      <trkpt lat="48.38249" lon="2.65095">
        <ele>264.2</ele>
        <time>2021-02-20T12:29:50Z</time>
      </trkpt>
      <trkpt lat="48.38257" lon="2.65049">
        <ele>266.44</ele>
        <time>2021-02-20T12:30:16Z</time>
      </trkpt>
      <trkpt lat="48.38258" lon="2.65031">
        <ele>267.85</ele>
        <time>2021-02-20T12:30:26Z</time>
      </trkpt>
      <trkpt lat="48.3826" lon="2.64999">
        <ele>268.79</ele>
        <time>2021-02-20T12:30:43Z</time>
      </trkpt>
      <trkpt lat="48.3826" lon="2.64966">
        <ele>271.27</ele>
        <time>2021-02-20T12:31:00Z</time>
      </trkpt>
      <trkpt lat="48.38262" lon="2.64947">
        <ele>273.21</ele>
        <time>2021-02-20T12:31:15Z</time>
      </trkpt>
      <trkpt lat="48.38269" lon="2.64921">
        <ele>272.91</ele>
        <time>2021-02-20T12:31:33Z</time>
      </trkpt>
      <trkpt lat="48.38272" lon="2.64907">
        <ele>275.92</ele>
        <time>2021-02-20T12:31:40Z</time>
      </trkpt>
      <trkpt lat="48.38283" lon="2.64879">
        <ele>275.95</ele>
        <time>2021-02-20T12:31:59Z</time>
      </trkpt>
      <trkpt lat="48.3829" lon="2.64842">
        <ele>277</ele>
        <time>2021-02-20T12:32:19Z</time>
      </trkpt>
      <trkpt lat="48.38294" lon="2.6482">
        <ele>277.4</ele>
        <time>2021-02-20T12:32:37Z</time>
      </trkpt>
      <trkpt lat="48.38294" lon="2.64822">
        <ele>277.42</ele>
        <time>2021-02-20T12:32:55Z</time>
      </trkpt>
      <trkpt lat="48.38294" lon="2.64818">
        <ele>276.28</ele>
        <time>2021-02-20T12:33:32Z</time>
      </trkpt>
      <trkpt lat="48.38293" lon="2.64819">
        <ele>279.16</ele>
        <time>2021-02-20T12:34:29Z</time>
      </trkpt>
      <trkpt lat="48.38292" lon="2.64822">
        <ele>279.92</ele>
        <time>2021-02-20T12:34:46Z</time>
      </trkpt>
      <trkpt lat="48.38293" lon="2.6482">
        <ele>278.06</ele>
        <time>2021-02-20T12:35:10Z</time>
      </trkpt>
      <trkpt lat="48.38296" lon="2.64823">
        <ele>278.25</ele>
        <time>2021-02-20T12:35:31Z</time>
      </trkpt>
      <trkpt lat="48.38302" lon="2.64832">
        <ele>278.88</ele>
        <time>2021-02-20T12:35:46Z</time>
      </trkpt>
      <trkpt lat="48.38303" lon="2.64834">
        <ele>279.04</ele>
        <time>2021-02-20T12:35:49Z</time>
      </trkpt>
      <trkpt lat="48.38304" lon="2.64836">
        <ele>279.06</ele>
        <time>2021-02-20T12:35:50Z</time>
      </trkpt>
      <trkpt lat="48.38305" lon="2.64837">
        <ele>279.06</ele>
        <time>2021-02-20T12:35:51Z</time>
      </trkpt>
      <trkpt lat="48.38319" lon="2.64864">
        <ele>278.79</ele>
        <time>2021-02-20T12:36:11Z</time>
      </trkpt>
      <trkpt lat="48.38327" lon="2.64881">
        <ele>278.73</ele>
        <time>2021-02-20T12:36:25Z</time>
      </trkpt>
      <trkpt lat="48.38328" lon="2.64882">
        <ele>278.73</ele>
        <time>2021-02-20T12:36:26Z</time>
      </trkpt>
      <trkpt lat="48.38328" lon="2.64883">
        <ele>278.73</ele>
        <time>2021-02-20T12:36:27Z</time>
      </trkpt>
      <trkpt lat="48.38336" lon="2.64897">
        <ele>278.93</ele>
        <time>2021-02-20T12:36:38Z</time>
      </trkpt>
      <trkpt lat="48.3834" lon="2.64904">
        <ele>279.33</ele>
        <time>2021-02-20T12:36:43Z</time>
      </trkpt>
      <trkpt lat="48.38346" lon="2.64909">
        <ele>279.5</ele>
        <time>2021-02-20T12:36:48Z</time>
      </trkpt>
      <trkpt lat="48.38355" lon="2.64926">
        <ele>279.83</ele>
        <time>2021-02-20T12:37:03Z</time>
      </trkpt>
      <trkpt lat="48.38362" lon="2.64944">
        <ele>280.71</ele>
        <time>2021-02-20T12:37:18Z</time>
      </trkpt>
      <trkpt lat="48.38378" lon="2.64964">
        <ele>280.44</ele>
        <time>2021-02-20T12:37:34Z</time>
      </trkpt>
      <trkpt lat="48.38381" lon="2.64968">
        <ele>279.95</ele>
        <time>2021-02-20T12:37:37Z</time>
      </trkpt>
      <trkpt lat="48.3839" lon="2.64987">
        <ele>280.32</ele>
        <time>2021-02-20T12:37:51Z</time>
      </trkpt>
      <trkpt lat="48.38392" lon="2.64989">
        <ele>280.32</ele>
        <time>2021-02-20T12:37:52Z</time>
      </trkpt>
      <trkpt lat="48.38416" lon="2.65032">
        <ele>280.17</ele>
        <time>2021-02-20T12:38:22Z</time>
      </trkpt>
      <trkpt lat="48.38437" lon="2.65059">
        <ele>280.37</ele>
        <time>2021-02-20T12:38:40Z</time>
      </trkpt>
      <trkpt lat="48.38459" lon="2.65087">
        <ele>279.99</ele>
        <time>2021-02-20T12:38:59Z</time>
      </trkpt>
      <trkpt lat="48.38478" lon="2.65119">
        <ele>280.52</ele>
        <time>2021-02-20T12:39:22Z</time>
      </trkpt>
      <trkpt lat="48.38496" lon="2.65147">
        <ele>279.23</ele>
        <time>2021-02-20T12:39:42Z</time>
      </trkpt>
      <trkpt lat="48.38498" lon="2.6515">
        <ele>279.09</ele>
        <time>2021-02-20T12:39:44Z</time>
      </trkpt>
      <trkpt lat="48.38499" lon="2.65151">
        <ele>279.17</ele>
        <time>2021-02-20T12:39:45Z</time>
      </trkpt>
      <trkpt lat="48.385" lon="2.65152">
        <ele>279.24</ele>
        <time>2021-02-20T12:39:46Z</time>
      </trkpt>
      <trkpt lat="48.38501" lon="2.65154">
        <ele>279.28</ele>
        <time>2021-02-20T12:39:47Z</time>
      </trkpt>
      <trkpt lat="48.38502" lon="2.65155">
        <ele>279.3</ele>
        <time>2021-02-20T12:39:48Z</time>
      </trkpt>
      <trkpt lat="48.38503" lon="2.65157">
        <ele>279.3</ele>
        <time>2021-02-20T12:39:49Z</time>
      </trkpt>
      <trkpt lat="48.38504" lon="2.65158">
        <ele>279.23</ele>
        <time>2021-02-20T12:39:50Z</time>
      </trkpt>
      <trkpt lat="48.38504" lon="2.6516">
        <ele>279.2</ele>
        <time>2021-02-20T12:39:51Z</time>
      </trkpt>
      <trkpt lat="48.38504" lon="2.65161">
        <ele>279.14</ele>
        <time>2021-02-20T12:39:52Z</time>
      </trkpt>
      <trkpt lat="48.38505" lon="2.65163">
        <ele>279.06</ele>
        <time>2021-02-20T12:39:53Z</time>
      </trkpt>
      <trkpt lat="48.38506" lon="2.65165">
        <ele>278.95</ele>
        <time>2021-02-20T12:39:54Z</time>
      </trkpt>
      <trkpt lat="48.38506" lon="2.65167">
        <ele>278.86</ele>
        <time>2021-02-20T12:39:55Z</time>
      </trkpt>
      <trkpt lat="48.38507" lon="2.65169">
        <ele>278.8</ele>
        <time>2021-02-20T12:39:56Z</time>
      </trkpt>
      <trkpt lat="48.38508" lon="2.65171">
        <ele>278.76</ele>
        <time>2021-02-20T12:39:57Z</time>
      </trkpt>
      <trkpt lat="48.38509" lon="2.65173">
        <ele>278.72</ele>
        <time>2021-02-20T12:39:58Z</time>
      </trkpt>
      <trkpt lat="48.38511" lon="2.65174">
        <ele>278.67</ele>
        <time>2021-02-20T12:39:59Z</time>
      </trkpt>
      <trkpt lat="48.38512" lon="2.65176">
        <ele>278.59</ele>
        <time>2021-02-20T12:40:00Z</time>
      </trkpt>
      <trkpt lat="48.38513" lon="2.65178">
        <ele>278.52</ele>
        <time>2021-02-20T12:40:01Z</time>
      </trkpt>
      <trkpt lat="48.38515" lon="2.65179">
        <ele>278.47</ele>
        <time>2021-02-20T12:40:02Z</time>
      </trkpt>
      <trkpt lat="48.38516" lon="2.6518">
        <ele>278.44</ele>
        <time>2021-02-20T12:40:03Z</time>
      </trkpt>
      <trkpt lat="48.38517" lon="2.65182">
        <ele>278.43</ele>
        <time>2021-02-20T12:40:04Z</time>
      </trkpt>
      <trkpt lat="48.38528" lon="2.65179">
        <ele>278.2</ele>
        <time>2021-02-20T12:40:20Z</time>
      </trkpt>
      <trkpt lat="48.3853" lon="2.65176">
        <ele>278.23</ele>
        <time>2021-02-20T12:40:22Z</time>
      </trkpt>
      <trkpt lat="48.38531" lon="2.65174">
        <ele>278.24</ele>
        <time>2021-02-20T12:40:23Z</time>
      </trkpt>
      <trkpt lat="48.38546" lon="2.65158">
        <ele>277.67</ele>
        <time>2021-02-20T12:40:38Z</time>
      </trkpt>
      <trkpt lat="48.38561" lon="2.65144">
        <ele>276.33</ele>
        <time>2021-02-20T12:40:53Z</time>
      </trkpt>
      <trkpt lat="48.38577" lon="2.65127">
        <ele>274.77</ele>
        <time>2021-02-20T12:41:09Z</time>
      </trkpt>
      <trkpt lat="48.38596" lon="2.6511">
        <ele>273.88</ele>
        <time>2021-02-20T12:41:25Z</time>
      </trkpt>
      <trkpt lat="48.38615" lon="2.65097">
        <ele>270.84</ele>
        <time>2021-02-20T12:41:32Z</time>
      </trkpt>
      <trkpt lat="48.38628" lon="2.65089">
        <ele>266.66</ele>
        <time>2021-02-20T12:41:37Z</time>
      </trkpt>
      <trkpt lat="48.38636" lon="2.6508">
        <ele>263.43</ele>
        <time>2021-02-20T12:41:44Z</time>
      </trkpt>
      <trkpt lat="48.38646" lon="2.65073">
        <ele>260.61</ele>
        <time>2021-02-20T12:41:52Z</time>
      </trkpt>
      <trkpt lat="48.38666" lon="2.6506">
        <ele>258.87</ele>
        <time>2021-02-20T12:42:10Z</time>
      </trkpt>
      <trkpt lat="48.38689" lon="2.65042">
        <ele>256.64</ele>
        <time>2021-02-20T12:42:31Z</time>
      </trkpt>
      <trkpt lat="48.38697" lon="2.65037">
        <ele>256.03</ele>
        <time>2021-02-20T12:42:39Z</time>
      </trkpt>
      <trkpt lat="48.38698" lon="2.65036">
        <ele>255.91</ele>
        <time>2021-02-20T12:42:40Z</time>
      </trkpt>
      <trkpt lat="48.38699" lon="2.65036">
        <ele>255.79</ele>
        <time>2021-02-20T12:42:41Z</time>
      </trkpt>
      <trkpt lat="48.38717" lon="2.65024">
        <ele>254.68</ele>
        <time>2021-02-20T12:42:57Z</time>
      </trkpt>
      <trkpt lat="48.38718" lon="2.65023">
        <ele>254.56</ele>
        <time>2021-02-20T12:42:58Z</time>
      </trkpt>
      <trkpt lat="48.38719" lon="2.65022">
        <ele>254.47</ele>
        <time>2021-02-20T12:42:59Z</time>
      </trkpt>
      <trkpt lat="48.3872" lon="2.65021">
        <ele>254.37</ele>
        <time>2021-02-20T12:43:00Z</time>
      </trkpt>
      <trkpt lat="48.38722" lon="2.65021">
        <ele>254.25</ele>
        <time>2021-02-20T12:43:01Z</time>
      </trkpt>
      <trkpt lat="48.38738" lon="2.6501">
        <ele>252.78</ele>
        <time>2021-02-20T12:43:17Z</time>
      </trkpt>
      <trkpt lat="48.38759" lon="2.64998">
        <ele>251.98</ele>
        <time>2021-02-20T12:43:35Z</time>
      </trkpt>
      <trkpt lat="48.38784" lon="2.64983">
        <ele>250.58</ele>
        <time>2021-02-20T12:43:57Z</time>
      </trkpt>
      <trkpt lat="48.38805" lon="2.64969">
        <ele>249.83</ele>
        <time>2021-02-20T12:44:18Z</time>
      </trkpt>
      <trkpt lat="48.38827" lon="2.64952">
        <ele>249.93</ele>
        <time>2021-02-20T12:44:38Z</time>
      </trkpt>
      <trkpt lat="48.38848" lon="2.64938">
        <ele>250.06</ele>
        <time>2021-02-20T12:44:57Z</time>
      </trkpt>
      <trkpt lat="48.38862" lon="2.64928">
        <ele>250.73</ele>
        <time>2021-02-20T12:45:14Z</time>
      </trkpt>
      <trkpt lat="48.38869" lon="2.64918">
        <ele>250.17</ele>
        <time>2021-02-20T12:45:29Z</time>
      </trkpt>
      <trkpt lat="48.38869" lon="2.64915">
        <ele>250.22</ele>
        <time>2021-02-20T12:45:31Z</time>
      </trkpt>
      <trkpt lat="48.3887" lon="2.64913">
        <ele>250.23</ele>
        <time>2021-02-20T12:45:32Z</time>
      </trkpt>
      <trkpt lat="48.38876" lon="2.64881">
        <ele>249.54</ele>
        <time>2021-02-20T12:45:51Z</time>
      </trkpt>
      <trkpt lat="48.38879" lon="2.64863">
        <ele>251.63</ele>
        <time>2021-02-20T12:46:02Z</time>
      </trkpt>
      <trkpt lat="48.38884" lon="2.64839">
        <ele>251.82</ele>
        <time>2021-02-20T12:46:16Z</time>
      </trkpt>
      <trkpt lat="48.3889" lon="2.64806">
        <ele>252.29</ele>
        <time>2021-02-20T12:46:36Z</time>
      </trkpt>
      <trkpt lat="48.38891" lon="2.64804">
        <ele>252.55</ele>
        <time>2021-02-20T12:46:37Z</time>
      </trkpt>
      <trkpt lat="48.38899" lon="2.64762">
        <ele>251.87</ele>
        <time>2021-02-20T12:47:00Z</time>
      </trkpt>
      <trkpt lat="48.38905" lon="2.64721">
        <ele>252.48</ele>
        <time>2021-02-20T12:47:19Z</time>
      </trkpt>
      <trkpt lat="48.38911" lon="2.64678">
        <ele>253.58</ele>
        <time>2021-02-20T12:47:43Z</time>
      </trkpt>
      <trkpt lat="48.38916" lon="2.64645">
        <ele>254.41</ele>
        <time>2021-02-20T12:48:00Z</time>
      </trkpt>
      <trkpt lat="48.3892" lon="2.64612">
        <ele>255.12</ele>
        <time>2021-02-20T12:48:17Z</time>
      </trkpt>
      <trkpt lat="48.38927" lon="2.64577">
        <ele>255.91</ele>
        <time>2021-02-20T12:48:36Z</time>
      </trkpt>
      <trkpt lat="48.38936" lon="2.64534">
        <ele>257.06</ele>
        <time>2021-02-20T12:49:00Z</time>
      </trkpt>
      <trkpt lat="48.38942" lon="2.64493">
        <ele>258.11</ele>
        <time>2021-02-20T12:49:23Z</time>
      </trkpt>
      <trkpt lat="48.38947" lon="2.64457">
        <ele>258.89</ele>
        <time>2021-02-20T12:49:44Z</time>
      </trkpt>
      <trkpt lat="48.38952" lon="2.64414">
        <ele>259.12</ele>
        <time>2021-02-20T12:50:06Z</time>
      </trkpt>
      <trkpt lat="48.38956" lon="2.64384">
        <ele>258.97</ele>
        <time>2021-02-20T12:50:22Z</time>
      </trkpt>
      <trkpt lat="48.38956" lon="2.64381">
        <ele>259.03</ele>
        <time>2021-02-20T12:50:23Z</time>
      </trkpt>
      <trkpt lat="48.38956" lon="2.64379">
        <ele>259.15</ele>
        <time>2021-02-20T12:50:24Z</time>
      </trkpt>
      <trkpt lat="48.38956" lon="2.64376">
        <ele>259.29</ele>
        <time>2021-02-20T12:50:25Z</time>
      </trkpt>
      <trkpt lat="48.38956" lon="2.64374">
        <ele>259.36</ele>
        <time>2021-02-20T12:50:26Z</time>
      </trkpt>
      <trkpt lat="48.38956" lon="2.64371">
        <ele>259.4</ele>
        <time>2021-02-20T12:50:27Z</time>
      </trkpt>
      <trkpt lat="48.38956" lon="2.64369">
        <ele>259.42</ele>
        <time>2021-02-20T12:50:28Z</time>
      </trkpt>
      <trkpt lat="48.38963" lon="2.64333">
        <ele>259.18</ele>
        <time>2021-02-20T12:50:46Z</time>
      </trkpt>
      <trkpt lat="48.38963" lon="2.64323">
        <ele>259.22</ele>
        <time>2021-02-20T12:50:50Z</time>
      </trkpt>
      <trkpt lat="48.38963" lon="2.64321">
        <ele>259.24</ele>
        <time>2021-02-20T12:50:51Z</time>
      </trkpt>
      <trkpt lat="48.38965" lon="2.6428">
        <ele>259.78</ele>
        <time>2021-02-20T12:51:10Z</time>
      </trkpt>
      <trkpt lat="48.38971" lon="2.64246">
        <ele>259.76</ele>
        <time>2021-02-20T12:51:28Z</time>
      </trkpt>
      <trkpt lat="48.38976" lon="2.64212">
        <ele>260.13</ele>
        <time>2021-02-20T12:51:47Z</time>
      </trkpt>
      <trkpt lat="48.3898" lon="2.64181">
        <ele>260.06</ele>
        <time>2021-02-20T12:52:03Z</time>
      </trkpt>
      <trkpt lat="48.3898" lon="2.64153">
        <ele>260.03</ele>
        <time>2021-02-20T12:52:19Z</time>
      </trkpt>
      <trkpt lat="48.38983" lon="2.64125">
        <ele>259.87</ele>
        <time>2021-02-20T12:52:33Z</time>
      </trkpt>
      <trkpt lat="48.38984" lon="2.64123">
        <ele>259.89</ele>
        <time>2021-02-20T12:52:34Z</time>
      </trkpt>
      <trkpt lat="48.38985" lon="2.64121">
        <ele>259.97</ele>
        <time>2021-02-20T12:52:35Z</time>
      </trkpt>
      <trkpt lat="48.38986" lon="2.64118">
        <ele>260.14</ele>
        <time>2021-02-20T12:52:36Z</time>
      </trkpt>
      <trkpt lat="48.38987" lon="2.64115">
        <ele>260.38</ele>
        <time>2021-02-20T12:52:37Z</time>
      </trkpt>
      <trkpt lat="48.38987" lon="2.64113">
        <ele>260.55</ele>
        <time>2021-02-20T12:52:38Z</time>
      </trkpt>
      <trkpt lat="48.38988" lon="2.6411">
        <ele>260.67</ele>
        <time>2021-02-20T12:52:39Z</time>
      </trkpt>
      <trkpt lat="48.38987" lon="2.64084">
        <ele>261.04</ele>
        <time>2021-02-20T12:52:52Z</time>
      </trkpt>
      <trkpt lat="48.38989" lon="2.64075">
        <ele>262.23</ele>
        <time>2021-02-20T12:52:58Z</time>
      </trkpt>
      <trkpt lat="48.3899" lon="2.64075">
        <ele>262.26</ele>
        <time>2021-02-20T12:52:59Z</time>
      </trkpt>
      <trkpt lat="48.39009" lon="2.64067">
        <ele>262.44</ele>
        <time>2021-02-20T12:53:15Z</time>
      </trkpt>
      <trkpt lat="48.39021" lon="2.64061">
        <ele>263.16</ele>
        <time>2021-02-20T12:53:31Z</time>
      </trkpt>
      <trkpt lat="48.39038" lon="2.64067">
        <ele>266.23</ele>
        <time>2021-02-20T12:53:52Z</time>
      </trkpt>
      <trkpt lat="48.39052" lon="2.64071">
        <ele>269.34</ele>
        <time>2021-02-20T12:54:06Z</time>
      </trkpt>
      <trkpt lat="48.39064" lon="2.64071">
        <ele>272.48</ele>
        <time>2021-02-20T12:54:21Z</time>
      </trkpt>
      <trkpt lat="48.39071" lon="2.64069">
        <ele>275.6</ele>
        <time>2021-02-20T12:54:36Z</time>
      </trkpt>
      <trkpt lat="48.39076" lon="2.64074">
        <ele>278.67</ele>
        <time>2021-02-20T12:54:50Z</time>
      </trkpt>
      <trkpt lat="48.3908" lon="2.64084">
        <ele>281.76</ele>
        <time>2021-02-20T12:55:05Z</time>
      </trkpt>
      <trkpt lat="48.39088" lon="2.64081">
        <ele>284.87</ele>
        <time>2021-02-20T12:55:19Z</time>
      </trkpt>
      <trkpt lat="48.391" lon="2.64078">
        <ele>287.48</ele>
        <time>2021-02-20T12:55:42Z</time>
      </trkpt>
      <trkpt lat="48.39102" lon="2.64075">
        <ele>287.13</ele>
        <time>2021-02-20T12:56:07Z</time>
      </trkpt>
      <trkpt lat="48.39102" lon="2.64079">
        <ele>287.24</ele>
        <time>2021-02-20T12:56:27Z</time>
      </trkpt>
      <trkpt lat="48.39112" lon="2.6408">
        <ele>286.16</ele>
        <time>2021-02-20T12:56:43Z</time>
      </trkpt>
      <trkpt lat="48.3912" lon="2.64086">
        <ele>283.94</ele>
        <time>2021-02-20T12:56:53Z</time>
      </trkpt>
      <trkpt lat="48.39121" lon="2.64087">
        <ele>283.74</ele>
        <time>2021-02-20T12:56:54Z</time>
      </trkpt>
      <trkpt lat="48.39129" lon="2.64087">
        <ele>281.54</ele>
        <time>2021-02-20T12:57:01Z</time>
      </trkpt>
      <trkpt lat="48.3913" lon="2.64082">
        <ele>280.97</ele>
        <time>2021-02-20T12:57:04Z</time>
      </trkpt>
      <trkpt lat="48.39131" lon="2.64078">
        <ele>280.26</ele>
        <time>2021-02-20T12:57:07Z</time>
      </trkpt>
      <trkpt lat="48.39133" lon="2.64077">
        <ele>280.02</ele>
        <time>2021-02-20T12:57:08Z</time>
      </trkpt>
      <trkpt lat="48.39134" lon="2.64078">
        <ele>279.83</ele>
        <time>2021-02-20T12:57:09Z</time>
      </trkpt>
      <trkpt lat="48.39136" lon="2.64078">
        <ele>279.65</ele>
        <time>2021-02-20T12:57:10Z</time>
      </trkpt>
      <trkpt lat="48.39137" lon="2.64076">
        <ele>279.39</ele>
        <time>2021-02-20T12:57:11Z</time>
      </trkpt>
      <trkpt lat="48.39138" lon="2.64074">
        <ele>279.05</ele>
        <time>2021-02-20T12:57:12Z</time>
      </trkpt>
      <trkpt lat="48.39139" lon="2.64072">
        <ele>278.5</ele>
        <time>2021-02-20T12:57:13Z</time>
      </trkpt>
      <trkpt lat="48.39141" lon="2.6407">
        <ele>277.19</ele>
        <time>2021-02-20T12:57:14Z</time>
      </trkpt>
      <trkpt lat="48.39142" lon="2.64067">
        <ele>276.15</ele>
        <time>2021-02-20T12:57:16Z</time>
      </trkpt>
      <trkpt lat="48.39144" lon="2.64068">
        <ele>275.6</ele>
        <time>2021-02-20T12:57:17Z</time>
      </trkpt>
      <trkpt lat="48.39145" lon="2.64068">
        <ele>275.06</ele>
        <time>2021-02-20T12:57:18Z</time>
      </trkpt>
      <trkpt lat="48.39146" lon="2.64068">
        <ele>274.61</ele>
        <time>2021-02-20T12:57:19Z</time>
      </trkpt>
      <trkpt lat="48.39148" lon="2.64068">
        <ele>274.23</ele>
        <time>2021-02-20T12:57:20Z</time>
      </trkpt>
      <trkpt lat="48.39151" lon="2.64067">
        <ele>273.81</ele>
        <time>2021-02-20T12:57:21Z</time>
      </trkpt>
      <trkpt lat="48.39154" lon="2.64066">
        <ele>273.28</ele>
        <time>2021-02-20T12:57:22Z</time>
      </trkpt>
      <trkpt lat="48.39159" lon="2.64065">
        <ele>270</ele>
        <time>2021-02-20T12:57:27Z</time>
      </trkpt>
      <trkpt lat="48.39166" lon="2.64067">
        <ele>266.74</ele>
        <time>2021-02-20T12:57:33Z</time>
      </trkpt>
      <trkpt lat="48.39187" lon="2.64074">
        <ele>264.4</ele>
        <time>2021-02-20T12:57:50Z</time>
      </trkpt>
      <trkpt lat="48.39189" lon="2.64076">
        <ele>264.17</ele>
        <time>2021-02-20T12:57:52Z</time>
      </trkpt>
      <trkpt lat="48.39197" lon="2.64078">
        <ele>263.57</ele>
        <time>2021-02-20T12:57:56Z</time>
      </trkpt>
      <trkpt lat="48.39207" lon="2.64082">
        <ele>261.18</ele>
        <time>2021-02-20T12:58:02Z</time>
      </trkpt>
      <trkpt lat="48.39219" lon="2.64087">
        <ele>259.64</ele>
        <time>2021-02-20T12:58:16Z</time>
      </trkpt>
      <trkpt lat="48.39223" lon="2.64087">
        <ele>259.57</ele>
        <time>2021-02-20T12:58:18Z</time>
      </trkpt>
      <trkpt lat="48.39238" lon="2.64094">
        <ele>257.68</ele>
        <time>2021-02-20T12:58:27Z</time>
      </trkpt>
      <trkpt lat="48.39243" lon="2.64102">
        <ele>254.87</ele>
        <time>2021-02-20T12:58:36Z</time>
      </trkpt>
      <trkpt lat="48.3925" lon="2.64109">
        <ele>253.8</ele>
        <time>2021-02-20T12:58:43Z</time>
      </trkpt>
      <trkpt lat="48.39262" lon="2.64109">
        <ele>252.7</ele>
        <time>2021-02-20T12:59:01Z</time>
      </trkpt>
      <trkpt lat="48.39269" lon="2.64102">
        <ele>252.61</ele>
        <time>2021-02-20T12:59:19Z</time>
      </trkpt>
      <trkpt lat="48.39273" lon="2.64092">
        <ele>252.08</ele>
        <time>2021-02-20T12:59:36Z</time>
      </trkpt>
      <trkpt lat="48.39279" lon="2.64098">
        <ele>253.1</ele>
        <time>2021-02-20T13:00:05Z</time>
      </trkpt>
      <trkpt lat="48.3928" lon="2.64097">
        <ele>253.1</ele>
        <time>2021-02-20T13:00:24Z</time>
      </trkpt>
      <trkpt lat="48.39278" lon="2.64096">
        <ele>253.1</ele>
        <time>2021-02-20T13:00:44Z</time>
      </trkpt>
      <trkpt lat="48.39278" lon="2.64092">
        <ele>253.1</ele>
        <time>2021-02-20T13:01:08Z</time>
      </trkpt>
      <trkpt lat="48.39278" lon="2.64089">
        <ele>253.1</ele>
        <time>2021-02-20T13:01:26Z</time>
      </trkpt>
      <trkpt lat="48.39275" lon="2.64088">
        <ele>253.1</ele>
        <time>2021-02-20T13:01:53Z</time>
      </trkpt>
      <trkpt lat="48.39281" lon="2.64091">
        <ele>253.1</ele>
        <time>2021-02-20T13:02:16Z</time>
      </trkpt>
      <trkpt lat="48.3928" lon="2.64092">
        <ele>253.1</ele>
        <time>2021-02-20T13:02:29Z</time>
      </trkpt>
      <trkpt lat="48.39279" lon="2.64089">
        <ele>253.1</ele>
        <time>2021-02-20T13:02:31Z</time>
      </trkpt>
      <trkpt lat="48.3928" lon="2.64089">
        <ele>253.1</ele>
        <time>2021-02-20T13:02:33Z</time>
      </trkpt>
      <trkpt lat="48.39272" lon="2.64061">
        <ele>252.99</ele>
        <time>2021-02-20T13:02:50Z</time>
      </trkpt>
      <trkpt lat="48.39271" lon="2.64059">
        <ele>252.97</ele>
        <time>2021-02-20T13:02:51Z</time>
      </trkpt>
      <trkpt lat="48.39271" lon="2.64054">
        <ele>253.13</ele>
        <time>2021-02-20T13:02:54Z</time>
      </trkpt>
      <trkpt lat="48.39268" lon="2.64039">
        <ele>253.72</ele>
        <time>2021-02-20T13:03:03Z</time>
      </trkpt>
      <trkpt lat="48.39268" lon="2.64037">
        <ele>253.76</ele>
        <time>2021-02-20T13:03:04Z</time>
      </trkpt>
      <trkpt lat="48.39269" lon="2.64036">
        <ele>253.8</ele>
        <time>2021-02-20T13:03:05Z</time>
      </trkpt>
      <trkpt lat="48.39269" lon="2.64034">
        <ele>253.84</ele>
        <time>2021-02-20T13:03:06Z</time>
      </trkpt>
      <trkpt lat="48.3927" lon="2.64032">
        <ele>253.86</ele>
        <time>2021-02-20T13:03:07Z</time>
      </trkpt>
      <trkpt lat="48.39273" lon="2.64006">
        <ele>254.6</ele>
        <time>2021-02-20T13:03:24Z</time>
      </trkpt>
      <trkpt lat="48.39275" lon="2.63978">
        <ele>254.9</ele>
        <time>2021-02-20T13:03:40Z</time>
      </trkpt>
      <trkpt lat="48.39272" lon="2.6395">
        <ele>255.51</ele>
        <time>2021-02-20T13:03:56Z</time>
      </trkpt>
      <trkpt lat="48.39272" lon="2.63921">
        <ele>256.08</ele>
        <time>2021-02-20T13:04:15Z</time>
      </trkpt>
      <trkpt lat="48.39274" lon="2.63891">
        <ele>257.03</ele>
        <time>2021-02-20T13:04:37Z</time>
      </trkpt>
      <trkpt lat="48.39271" lon="2.63861">
        <ele>258.05</ele>
        <time>2021-02-20T13:04:56Z</time>
      </trkpt>
      <trkpt lat="48.39266" lon="2.63822">
        <ele>258.88</ele>
        <time>2021-02-20T13:05:19Z</time>
      </trkpt>
      <trkpt lat="48.39267" lon="2.63795">
        <ele>259.86</ele>
        <time>2021-02-20T13:05:36Z</time>
      </trkpt>
      <trkpt lat="48.39278" lon="2.63759">
        <ele>261.52</ele>
        <time>2021-02-20T13:05:58Z</time>
      </trkpt>
      <trkpt lat="48.39293" lon="2.6374">
        <ele>263.08</ele>
        <time>2021-02-20T13:06:17Z</time>
      </trkpt>
      <trkpt lat="48.39308" lon="2.63719">
        <ele>264.79</ele>
        <time>2021-02-20T13:06:36Z</time>
      </trkpt>
      <trkpt lat="48.39316" lon="2.63692">
        <ele>265.84</ele>
        <time>2021-02-20T13:06:57Z</time>
      </trkpt>
      <trkpt lat="48.39316" lon="2.63656">
        <ele>267.58</ele>
        <time>2021-02-20T13:07:19Z</time>
      </trkpt>
      <trkpt lat="48.39316" lon="2.63654">
        <ele>267.65</ele>
        <time>2021-02-20T13:07:20Z</time>
      </trkpt>
      <trkpt lat="48.39308" lon="2.63619">
        <ele>269.21</ele>
        <time>2021-02-20T13:07:44Z</time>
      </trkpt>
      <trkpt lat="48.39304" lon="2.6357">
        <ele>272.25</ele>
        <time>2021-02-20T13:08:14Z</time>
      </trkpt>
      <trkpt lat="48.39302" lon="2.6354">
        <ele>274.03</ele>
        <time>2021-02-20T13:08:32Z</time>
      </trkpt>
      <trkpt lat="48.39308" lon="2.63503">
        <ele>274.85</ele>
        <time>2021-02-20T13:08:53Z</time>
      </trkpt>
      <trkpt lat="48.39313" lon="2.63476">
        <ele>275.41</ele>
        <time>2021-02-20T13:09:06Z</time>
      </trkpt>
      <trkpt lat="48.3932" lon="2.63439">
        <ele>276.25</ele>
        <time>2021-02-20T13:09:28Z</time>
      </trkpt>
      <trkpt lat="48.39325" lon="2.63398">
        <ele>278.01</ele>
        <time>2021-02-20T13:09:51Z</time>
      </trkpt>
      <trkpt lat="48.39327" lon="2.6336">
        <ele>279.88</ele>
        <time>2021-02-20T13:10:11Z</time>
      </trkpt>
      <trkpt lat="48.39328" lon="2.63326">
        <ele>281.72</ele>
        <time>2021-02-20T13:10:31Z</time>
      </trkpt>
      <trkpt lat="48.39334" lon="2.63276">
        <ele>284.37</ele>
        <time>2021-02-20T13:11:00Z</time>
      </trkpt>
      <trkpt lat="48.39334" lon="2.63229">
        <ele>286.72</ele>
        <time>2021-02-20T13:11:26Z</time>
      </trkpt>
      <trkpt lat="48.39334" lon="2.63227">
        <ele>286.77</ele>
        <time>2021-02-20T13:11:27Z</time>
      </trkpt>
      <trkpt lat="48.39336" lon="2.63215">
        <ele>287.28</ele>
        <time>2021-02-20T13:11:33Z</time>
      </trkpt>
      <trkpt lat="48.39338" lon="2.63178">
        <ele>289.11</ele>
        <time>2021-02-20T13:11:51Z</time>
      </trkpt>
      <trkpt lat="48.3934" lon="2.63169">
        <ele>289.65</ele>
        <time>2021-02-20T13:11:57Z</time>
      </trkpt>
      <trkpt lat="48.39342" lon="2.63163">
        <ele>289.83</ele>
        <time>2021-02-20T13:12:01Z</time>
      </trkpt>
      <trkpt lat="48.39344" lon="2.63158">
        <ele>289.93</ele>
        <time>2021-02-20T13:12:05Z</time>
      </trkpt>
      <trkpt lat="48.39356" lon="2.63144">
        <ele>289.7</ele>
        <time>2021-02-20T13:12:20Z</time>
      </trkpt>
      <trkpt lat="48.39391" lon="2.63135">
        <ele>291.41</ele>
        <time>2021-02-20T13:12:51Z</time>
      </trkpt>
      <trkpt lat="48.39422" lon="2.63133">
        <ele>291.65</ele>
        <time>2021-02-20T13:13:16Z</time>
      </trkpt>
      <trkpt lat="48.39427" lon="2.63137">
        <ele>291.77</ele>
        <time>2021-02-20T13:13:20Z</time>
      </trkpt>
      <trkpt lat="48.39429" lon="2.63138">
        <ele>291.78</ele>
        <time>2021-02-20T13:13:21Z</time>
      </trkpt>
      <trkpt lat="48.3943" lon="2.6314">
        <ele>291.78</ele>
        <time>2021-02-20T13:13:22Z</time>
      </trkpt>
      <trkpt lat="48.39432" lon="2.63143">
        <ele>291.79</ele>
        <time>2021-02-20T13:13:23Z</time>
      </trkpt>
      <trkpt lat="48.39434" lon="2.63145">
        <ele>291.82</ele>
        <time>2021-02-20T13:13:24Z</time>
      </trkpt>
      <trkpt lat="48.39434" lon="2.63147">
        <ele>291.84</ele>
        <time>2021-02-20T13:13:25Z</time>
      </trkpt>
      <trkpt lat="48.39435" lon="2.63149">
        <ele>291.86</ele>
        <time>2021-02-20T13:13:26Z</time>
      </trkpt>
      <trkpt lat="48.39436" lon="2.63151">
        <ele>291.87</ele>
        <time>2021-02-20T13:13:27Z</time>
      </trkpt>
      <trkpt lat="48.39437" lon="2.63153">
        <ele>291.89</ele>
        <time>2021-02-20T13:13:28Z</time>
      </trkpt>
      <trkpt lat="48.39442" lon="2.63166">
        <ele>292.02</ele>
        <time>2021-02-20T13:13:40Z</time>
      </trkpt>
      <trkpt lat="48.39442" lon="2.63168">
        <ele>292.04</ele>
        <time>2021-02-20T13:14:07Z</time>
      </trkpt>
      <trkpt lat="48.39442" lon="2.63172">
        <ele>292.75</ele>
        <time>2021-02-20T13:14:37Z</time>
      </trkpt>
      <trkpt lat="48.39441" lon="2.63166">
        <ele>292.9</ele>
        <time>2021-02-20T13:14:55Z</time>
      </trkpt>
      <trkpt lat="48.39442" lon="2.63169">
        <ele>293.05</ele>
        <time>2021-02-20T13:15:19Z</time>
      </trkpt>
      <trkpt lat="48.39444" lon="2.63181">
        <ele>293.27</ele>
        <time>2021-02-20T13:15:37Z</time>
      </trkpt>
      <trkpt lat="48.39454" lon="2.63209">
        <ele>293.17</ele>
        <time>2021-02-20T13:15:56Z</time>
      </trkpt>
      <trkpt lat="48.39462" lon="2.6324">
        <ele>293.17</ele>
        <time>2021-02-20T13:16:14Z</time>
      </trkpt>
      <trkpt lat="48.39469" lon="2.63272">
        <ele>292.8</ele>
        <time>2021-02-20T13:16:32Z</time>
      </trkpt>
      <trkpt lat="48.39477" lon="2.6331">
        <ele>292.7</ele>
        <time>2021-02-20T13:16:53Z</time>
      </trkpt>
      <trkpt lat="48.39487" lon="2.63353">
        <ele>292.71</ele>
        <time>2021-02-20T13:17:16Z</time>
      </trkpt>
      <trkpt lat="48.39493" lon="2.63375">
        <ele>292.68</ele>
        <time>2021-02-20T13:17:28Z</time>
      </trkpt>
      <trkpt lat="48.39493" lon="2.63377">
        <ele>292.71</ele>
        <time>2021-02-20T13:17:29Z</time>
      </trkpt>
      <trkpt lat="48.39493" lon="2.63379">
        <ele>292.71</ele>
        <time>2021-02-20T13:17:30Z</time>
      </trkpt>
      <trkpt lat="48.39502" lon="2.63413">
        <ele>292.86</ele>
        <time>2021-02-20T13:17:49Z</time>
      </trkpt>
      <trkpt lat="48.39505" lon="2.63431">
        <ele>292.54</ele>
        <time>2021-02-20T13:17:59Z</time>
      </trkpt>
      <trkpt lat="48.39512" lon="2.63461">
        <ele>292.76</ele>
        <time>2021-02-20T13:18:16Z</time>
      </trkpt>
      <trkpt lat="48.39521" lon="2.63492">
        <ele>291.6</ele>
        <time>2021-02-20T13:18:33Z</time>
      </trkpt>
      <trkpt lat="48.39528" lon="2.63503">
        <ele>290.95</ele>
        <time>2021-02-20T13:18:40Z</time>
      </trkpt>
      <trkpt lat="48.3953" lon="2.63507">
        <ele>290.74</ele>
        <time>2021-02-20T13:18:43Z</time>
      </trkpt>
      <trkpt lat="48.39545" lon="2.63525">
        <ele>289.41</ele>
        <time>2021-02-20T13:19:00Z</time>
      </trkpt>
      <trkpt lat="48.39556" lon="2.63526">
        <ele>291.25</ele>
        <time>2021-02-20T13:19:09Z</time>
      </trkpt>
      <trkpt lat="48.39569" lon="2.63524">
        <ele>290.51</ele>
        <time>2021-02-20T13:19:18Z</time>
      </trkpt>
      <trkpt lat="48.39575" lon="2.63543">
        <ele>290.39</ele>
        <time>2021-02-20T13:19:37Z</time>
      </trkpt>
      <trkpt lat="48.39573" lon="2.6356">
        <ele>290.67</ele>
        <time>2021-02-20T13:19:45Z</time>
      </trkpt>
      <trkpt lat="48.39571" lon="2.63586">
        <ele>290.73</ele>
        <time>2021-02-20T13:19:58Z</time>
      </trkpt>
      <trkpt lat="48.39571" lon="2.63588">
        <ele>290.75</ele>
        <time>2021-02-20T13:19:59Z</time>
      </trkpt>
      <trkpt lat="48.39572" lon="2.63614">
        <ele>290.81</ele>
        <time>2021-02-20T13:20:14Z</time>
      </trkpt>
      <trkpt lat="48.39571" lon="2.63673">
        <ele>291.38</ele>
        <time>2021-02-20T13:20:42Z</time>
      </trkpt>
      <trkpt lat="48.39573" lon="2.63698">
        <ele>290.09</ele>
        <time>2021-02-20T13:20:54Z</time>
      </trkpt>
      <trkpt lat="48.39581" lon="2.6372">
        <ele>291.14</ele>
        <time>2021-02-20T13:21:06Z</time>
      </trkpt>
      <trkpt lat="48.39589" lon="2.63754">
        <ele>292.25</ele>
        <time>2021-02-20T13:21:26Z</time>
      </trkpt>
      <trkpt lat="48.39594" lon="2.6377">
        <ele>291.33</ele>
        <time>2021-02-20T13:21:34Z</time>
      </trkpt>
      <trkpt lat="48.39594" lon="2.63772">
        <ele>291.16</ele>
        <time>2021-02-20T13:21:35Z</time>
      </trkpt>
      <trkpt lat="48.39594" lon="2.63774">
        <ele>291.04</ele>
        <time>2021-02-20T13:21:36Z</time>
      </trkpt>
      <trkpt lat="48.39595" lon="2.63776">
        <ele>290.96</ele>
        <time>2021-02-20T13:21:37Z</time>
      </trkpt>
      <trkpt lat="48.39595" lon="2.63778">
        <ele>290.92</ele>
        <time>2021-02-20T13:21:38Z</time>
      </trkpt>
      <trkpt lat="48.39596" lon="2.6378">
        <ele>290.88</ele>
        <time>2021-02-20T13:21:39Z</time>
      </trkpt>
      <trkpt lat="48.39596" lon="2.63782">
        <ele>290.85</ele>
        <time>2021-02-20T13:21:40Z</time>
      </trkpt>
      <trkpt lat="48.39596" lon="2.63783">
        <ele>290.82</ele>
        <time>2021-02-20T13:21:41Z</time>
      </trkpt>
      <trkpt lat="48.39596" lon="2.63797">
        <ele>290.64</ele>
        <time>2021-02-20T13:21:48Z</time>
      </trkpt>
      <trkpt lat="48.39597" lon="2.63799">
        <ele>290.64</ele>
        <time>2021-02-20T13:21:49Z</time>
      </trkpt>
      <trkpt lat="48.39603" lon="2.63831">
        <ele>290</ele>
        <time>2021-02-20T13:22:06Z</time>
      </trkpt>
      <trkpt lat="48.39604" lon="2.63834">
        <ele>289.94</ele>
        <time>2021-02-20T13:22:08Z</time>
      </trkpt>
      <trkpt lat="48.39606" lon="2.63869">
        <ele>289.62</ele>
        <time>2021-02-20T13:22:29Z</time>
      </trkpt>
      <trkpt lat="48.39606" lon="2.63886">
        <ele>289.3</ele>
        <time>2021-02-20T13:22:39Z</time>
      </trkpt>
      <trkpt lat="48.39607" lon="2.63897">
        <ele>288.34</ele>
        <time>2021-02-20T13:22:46Z</time>
      </trkpt>
      <trkpt lat="48.39609" lon="2.63932">
        <ele>286.79</ele>
        <time>2021-02-20T13:23:05Z</time>
      </trkpt>
      <trkpt lat="48.3961" lon="2.63972">
        <ele>284.72</ele>
        <time>2021-02-20T13:23:26Z</time>
      </trkpt>
      <trkpt lat="48.39614" lon="2.64008">
        <ele>284.03</ele>
        <time>2021-02-20T13:23:46Z</time>
      </trkpt>
      <trkpt lat="48.39613" lon="2.64033">
        <ele>283.94</ele>
        <time>2021-02-20T13:24:01Z</time>
      </trkpt>
      <trkpt lat="48.39619" lon="2.64039">
        <ele>283.31</ele>
        <time>2021-02-20T13:24:08Z</time>
      </trkpt>
      <trkpt lat="48.3962" lon="2.64037">
        <ele>283.17</ele>
        <time>2021-02-20T13:24:10Z</time>
      </trkpt>
      <trkpt lat="48.39627" lon="2.64015">
        <ele>280.66</ele>
        <time>2021-02-20T13:24:27Z</time>
      </trkpt>
      <trkpt lat="48.39637" lon="2.6399">
        <ele>278.16</ele>
        <time>2021-02-20T13:24:43Z</time>
      </trkpt>
      <trkpt lat="48.39638" lon="2.6399">
        <ele>278.01</ele>
        <time>2021-02-20T13:24:44Z</time>
      </trkpt>
      <trkpt lat="48.39639" lon="2.6399">
        <ele>277.86</ele>
        <time>2021-02-20T13:24:45Z</time>
      </trkpt>
      <trkpt lat="48.39641" lon="2.6399">
        <ele>277.7</ele>
        <time>2021-02-20T13:24:46Z</time>
      </trkpt>
      <trkpt lat="48.39642" lon="2.63989">
        <ele>277.35</ele>
        <time>2021-02-20T13:24:47Z</time>
      </trkpt>
      <trkpt lat="48.39643" lon="2.63989">
        <ele>277.19</ele>
        <time>2021-02-20T13:24:48Z</time>
      </trkpt>
      <trkpt lat="48.39644" lon="2.63989">
        <ele>277</ele>
        <time>2021-02-20T13:24:49Z</time>
      </trkpt>
      <trkpt lat="48.39646" lon="2.6399">
        <ele>276.75</ele>
        <time>2021-02-20T13:24:50Z</time>
      </trkpt>
      <trkpt lat="48.39649" lon="2.63992">
        <ele>275.95</ele>
        <time>2021-02-20T13:24:53Z</time>
      </trkpt>
      <trkpt lat="48.39667" lon="2.63997">
        <ele>273.25</ele>
        <time>2021-02-20T13:25:08Z</time>
      </trkpt>
      <trkpt lat="48.39678" lon="2.63998">
        <ele>271.37</ele>
        <time>2021-02-20T13:25:19Z</time>
      </trkpt>
      <trkpt lat="48.3968" lon="2.63999">
        <ele>271.19</ele>
        <time>2021-02-20T13:25:20Z</time>
      </trkpt>
      <trkpt lat="48.39681" lon="2.64">
        <ele>271.03</ele>
        <time>2021-02-20T13:25:21Z</time>
      </trkpt>
      <trkpt lat="48.39682" lon="2.64002">
        <ele>270.9</ele>
        <time>2021-02-20T13:25:22Z</time>
      </trkpt>
      <trkpt lat="48.39692" lon="2.64023">
        <ele>267.65</ele>
        <time>2021-02-20T13:25:39Z</time>
      </trkpt>
      <trkpt lat="48.39696" lon="2.6403">
        <ele>266.53</ele>
        <time>2021-02-20T13:25:55Z</time>
      </trkpt>
      <trkpt lat="48.39692" lon="2.64025">
        <ele>267.13</ele>
        <time>2021-02-20T13:26:21Z</time>
      </trkpt>
      <trkpt lat="48.39696" lon="2.64033">
        <ele>267.1</ele>
        <time>2021-02-20T13:26:40Z</time>
      </trkpt>
      <trkpt lat="48.39696" lon="2.64035">
        <ele>267.03</ele>
        <time>2021-02-20T13:26:41Z</time>
      </trkpt>
      <trkpt lat="48.39712" lon="2.64064">
        <ele>264.47</ele>
        <time>2021-02-20T13:27:00Z</time>
      </trkpt>
      <trkpt lat="48.39715" lon="2.6407">
        <ele>264.06</ele>
        <time>2021-02-20T13:27:04Z</time>
      </trkpt>
      <trkpt lat="48.39715" lon="2.64072">
        <ele>263.94</ele>
        <time>2021-02-20T13:27:05Z</time>
      </trkpt>
      <trkpt lat="48.39716" lon="2.64074">
        <ele>263.78</ele>
        <time>2021-02-20T13:27:06Z</time>
      </trkpt>
      <trkpt lat="48.3972" lon="2.64107">
        <ele>261.22</ele>
        <time>2021-02-20T13:27:24Z</time>
      </trkpt>
      <trkpt lat="48.3972" lon="2.64126">
        <ele>260.78</ele>
        <time>2021-02-20T13:27:32Z</time>
      </trkpt>
      <trkpt lat="48.3972" lon="2.64128">
        <ele>260.64</ele>
        <time>2021-02-20T13:27:33Z</time>
      </trkpt>
      <trkpt lat="48.39721" lon="2.6413">
        <ele>260.54</ele>
        <time>2021-02-20T13:27:34Z</time>
      </trkpt>
      <trkpt lat="48.39721" lon="2.64131">
        <ele>260.47</ele>
        <time>2021-02-20T13:27:35Z</time>
      </trkpt>
      <trkpt lat="48.39722" lon="2.64133">
        <ele>260.42</ele>
        <time>2021-02-20T13:27:36Z</time>
      </trkpt>
      <trkpt lat="48.39723" lon="2.64134">
        <ele>260.39</ele>
        <time>2021-02-20T13:27:37Z</time>
      </trkpt>
      <trkpt lat="48.39724" lon="2.64136">
        <ele>260.28</ele>
        <time>2021-02-20T13:27:38Z</time>
      </trkpt>
      <trkpt lat="48.39724" lon="2.64137">
        <ele>260.22</ele>
        <time>2021-02-20T13:27:39Z</time>
      </trkpt>
      <trkpt lat="48.3973" lon="2.64163">
        <ele>258.86</ele>
        <time>2021-02-20T13:27:56Z</time>
      </trkpt>
      <trkpt lat="48.39736" lon="2.64181">
        <ele>258.02</ele>
        <time>2021-02-20T13:28:08Z</time>
      </trkpt>
      <trkpt lat="48.39738" lon="2.64182">
        <ele>257.98</ele>
        <time>2021-02-20T13:28:09Z</time>
      </trkpt>
      <trkpt lat="48.39739" lon="2.64183">
        <ele>257.91</ele>
        <time>2021-02-20T13:28:10Z</time>
      </trkpt>
      <trkpt lat="48.39752" lon="2.64193">
        <ele>256.64</ele>
        <time>2021-02-20T13:28:24Z</time>
      </trkpt>
      <trkpt lat="48.39753" lon="2.64193">
        <ele>256.51</ele>
        <time>2021-02-20T13:28:25Z</time>
      </trkpt>
      <trkpt lat="48.39768" lon="2.64211">
        <ele>255.2</ele>
        <time>2021-02-20T13:28:41Z</time>
      </trkpt>
      <trkpt lat="48.39777" lon="2.64216">
        <ele>254.46</ele>
        <time>2021-02-20T13:28:49Z</time>
      </trkpt>
      <trkpt lat="48.39785" lon="2.64223">
        <ele>254.69</ele>
        <time>2021-02-20T13:28:58Z</time>
      </trkpt>
      <trkpt lat="48.39791" lon="2.64232">
        <ele>254.15</ele>
        <time>2021-02-20T13:29:13Z</time>
      </trkpt>
      <trkpt lat="48.39787" lon="2.64243">
        <ele>253.64</ele>
        <time>2021-02-20T13:29:29Z</time>
      </trkpt>
      <trkpt lat="48.39787" lon="2.6425">
        <ele>254.1</ele>
        <time>2021-02-20T13:29:49Z</time>
      </trkpt>
      <trkpt lat="48.39782" lon="2.64265">
        <ele>253.93</ele>
        <time>2021-02-20T13:30:01Z</time>
      </trkpt>
      <trkpt lat="48.39781" lon="2.64266">
        <ele>253.92</ele>
        <time>2021-02-20T13:30:02Z</time>
      </trkpt>
      <trkpt lat="48.39776" lon="2.64288">
        <ele>252.56</ele>
        <time>2021-02-20T13:30:17Z</time>
      </trkpt>
      <trkpt lat="48.39782" lon="2.64313">
        <ele>252.64</ele>
        <time>2021-02-20T13:30:34Z</time>
      </trkpt>
      <trkpt lat="48.39785" lon="2.64317">
        <ele>254.07</ele>
        <time>2021-02-20T13:30:37Z</time>
      </trkpt>
      <trkpt lat="48.39806" lon="2.64333">
        <ele>254.56</ele>
        <time>2021-02-20T13:30:55Z</time>
      </trkpt>
      <trkpt lat="48.39825" lon="2.64348">
        <ele>256.15</ele>
        <time>2021-02-20T13:31:13Z</time>
      </trkpt>
      <trkpt lat="48.39831" lon="2.64353">
        <ele>256.53</ele>
        <time>2021-02-20T13:31:18Z</time>
      </trkpt>
      <trkpt lat="48.39851" lon="2.64372">
        <ele>258.11</ele>
        <time>2021-02-20T13:31:36Z</time>
      </trkpt>
      <trkpt lat="48.39866" lon="2.6439">
        <ele>259.57</ele>
        <time>2021-02-20T13:31:54Z</time>
      </trkpt>
      <trkpt lat="48.39886" lon="2.64402">
        <ele>260.85</ele>
        <time>2021-02-20T13:32:10Z</time>
      </trkpt>
      <trkpt lat="48.39905" lon="2.64414">
        <ele>263.17</ele>
        <time>2021-02-20T13:32:31Z</time>
      </trkpt>
      <trkpt lat="48.39929" lon="2.64418">
        <ele>266.26</ele>
        <time>2021-02-20T13:32:53Z</time>
      </trkpt>
      <trkpt lat="48.39943" lon="2.64416">
        <ele>267.68</ele>
        <time>2021-02-20T13:33:16Z</time>
      </trkpt>
      <trkpt lat="48.39951" lon="2.64412">
        <ele>269.77</ele>
        <time>2021-02-20T13:33:24Z</time>
      </trkpt>
      <trkpt lat="48.3997" lon="2.64424">
        <ele>272.89</ele>
        <time>2021-02-20T13:33:44Z</time>
      </trkpt>
      <trkpt lat="48.39988" lon="2.64436">
        <ele>275.95</ele>
        <time>2021-02-20T13:34:01Z</time>
      </trkpt>
      <trkpt lat="48.40002" lon="2.64434">
        <ele>278.47</ele>
        <time>2021-02-20T13:34:17Z</time>
      </trkpt>
      <trkpt lat="48.40013" lon="2.64428">
        <ele>281.55</ele>
        <time>2021-02-20T13:34:31Z</time>
      </trkpt>
      <trkpt lat="48.40023" lon="2.64413">
        <ele>284.59</ele>
        <time>2021-02-20T13:34:47Z</time>
      </trkpt>
      <trkpt lat="48.40028" lon="2.64398">
        <ele>287.7</ele>
        <time>2021-02-20T13:35:00Z</time>
      </trkpt>
      <trkpt lat="48.40033" lon="2.64372">
        <ele>290.72</ele>
        <time>2021-02-20T13:35:18Z</time>
      </trkpt>
      <trkpt lat="48.40038" lon="2.64349">
        <ele>291.85</ele>
        <time>2021-02-20T13:35:36Z</time>
      </trkpt>
      <trkpt lat="48.40044" lon="2.64327">
        <ele>292.29</ele>
        <time>2021-02-20T13:35:53Z</time>
      </trkpt>
      <trkpt lat="48.40046" lon="2.64308">
        <ele>292.33</ele>
        <time>2021-02-20T13:36:14Z</time>
      </trkpt>
      <trkpt lat="48.40047" lon="2.6431">
        <ele>291.66</ele>
        <time>2021-02-20T13:36:35Z</time>
      </trkpt>
      <trkpt lat="48.40044" lon="2.64311">
        <ele>291.89</ele>
        <time>2021-02-20T13:37:26Z</time>
      </trkpt>
      <trkpt lat="48.40044" lon="2.6431">
        <ele>291.89</ele>
        <time>2021-02-20T13:37:36Z</time>
      </trkpt>
      <trkpt lat="48.40047" lon="2.64316">
        <ele>291.89</ele>
        <time>2021-02-20T13:38:02Z</time>
      </trkpt>
      <trkpt lat="48.40046" lon="2.64315">
        <ele>291.89</ele>
        <time>2021-02-20T13:38:25Z</time>
      </trkpt>
      <trkpt lat="48.40047" lon="2.64308">
        <ele>291.89</ele>
        <time>2021-02-20T13:38:47Z</time>
      </trkpt>
      <trkpt lat="48.40059" lon="2.64308">
        <ele>291.89</ele>
        <time>2021-02-20T13:39:09Z</time>
      </trkpt>
      <trkpt lat="48.40089" lon="2.64306">
        <ele>293.11</ele>
        <time>2021-02-20T13:39:35Z</time>
      </trkpt>
      <trkpt lat="48.40119" lon="2.64306">
        <ele>294.07</ele>
        <time>2021-02-20T13:40:00Z</time>
      </trkpt>
      <trkpt lat="48.40146" lon="2.64304">
        <ele>294.29</ele>
        <time>2021-02-20T13:40:25Z</time>
      </trkpt>
      <trkpt lat="48.40164" lon="2.64299">
        <ele>293.25</ele>
        <time>2021-02-20T13:40:37Z</time>
      </trkpt>
      <trkpt lat="48.40171" lon="2.64291">
        <ele>293.73</ele>
        <time>2021-02-20T13:40:43Z</time>
      </trkpt>
      <trkpt lat="48.40175" lon="2.64287">
        <ele>294.16</ele>
        <time>2021-02-20T13:40:46Z</time>
      </trkpt>
      <trkpt lat="48.40177" lon="2.64286">
        <ele>294.05</ele>
        <time>2021-02-20T13:40:47Z</time>
      </trkpt>
      <trkpt lat="48.40188" lon="2.64283">
        <ele>293.31</ele>
        <time>2021-02-20T13:40:57Z</time>
      </trkpt>
      <trkpt lat="48.40201" lon="2.64287">
        <ele>293.2</ele>
        <time>2021-02-20T13:41:09Z</time>
      </trkpt>
      <trkpt lat="48.40203" lon="2.64287">
        <ele>293.17</ele>
        <time>2021-02-20T13:41:11Z</time>
      </trkpt>
      <trkpt lat="48.40225" lon="2.64293">
        <ele>293.07</ele>
        <time>2021-02-20T13:41:34Z</time>
      </trkpt>
      <trkpt lat="48.40236" lon="2.64294">
        <ele>292.89</ele>
        <time>2021-02-20T13:41:52Z</time>
      </trkpt>
      <trkpt lat="48.40235" lon="2.64305">
        <ele>293.77</ele>
        <time>2021-02-20T13:42:08Z</time>
      </trkpt>
      <trkpt lat="48.40234" lon="2.64308">
        <ele>293.68</ele>
        <time>2021-02-20T13:42:10Z</time>
      </trkpt>
      <trkpt lat="48.40234" lon="2.6431">
        <ele>293.64</ele>
        <time>2021-02-20T13:42:11Z</time>
      </trkpt>
      <trkpt lat="48.40234" lon="2.64327">
        <ele>293.98</ele>
        <time>2021-02-20T13:42:27Z</time>
      </trkpt>
      <trkpt lat="48.40237" lon="2.64328">
        <ele>292.95</ele>
        <time>2021-02-20T13:42:49Z</time>
      </trkpt>
      <trkpt lat="48.40236" lon="2.64323">
        <ele>292.73</ele>
        <time>2021-02-20T13:43:16Z</time>
      </trkpt>
      <trkpt lat="48.4024" lon="2.64321">
        <ele>292.73</ele>
        <time>2021-02-20T13:43:37Z</time>
      </trkpt>
      <trkpt lat="48.40241" lon="2.6432">
        <ele>292.73</ele>
        <time>2021-02-20T13:43:39Z</time>
      </trkpt>
      <trkpt lat="48.40242" lon="2.64319">
        <ele>292.73</ele>
        <time>2021-02-20T13:43:40Z</time>
      </trkpt>
      <trkpt lat="48.40247" lon="2.64316">
        <ele>289.63</ele>
        <time>2021-02-20T13:43:48Z</time>
      </trkpt>
      <trkpt lat="48.40251" lon="2.64322">
        <ele>288.29</ele>
        <time>2021-02-20T13:44:05Z</time>
      </trkpt>
      <trkpt lat="48.40244" lon="2.64355">
        <ele>288.02</ele>
        <time>2021-02-20T13:44:29Z</time>
      </trkpt>
      <trkpt lat="48.40243" lon="2.6439">
        <ele>287.92</ele>
        <time>2021-02-20T13:44:48Z</time>
      </trkpt>
      <trkpt lat="48.40244" lon="2.6442">
        <ele>287.59</ele>
        <time>2021-02-20T13:45:06Z</time>
      </trkpt>
      <trkpt lat="48.40243" lon="2.64449">
        <ele>287.84</ele>
        <time>2021-02-20T13:45:20Z</time>
      </trkpt>
      <trkpt lat="48.4024" lon="2.64485">
        <ele>288.68</ele>
        <time>2021-02-20T13:45:42Z</time>
      </trkpt>
      <trkpt lat="48.40236" lon="2.64513">
        <ele>287.65</ele>
        <time>2021-02-20T13:45:59Z</time>
      </trkpt>
      <trkpt lat="48.40232" lon="2.64537">
        <ele>287.92</ele>
        <time>2021-02-20T13:46:18Z</time>
      </trkpt>
      <trkpt lat="48.4023" lon="2.64543">
        <ele>287.56</ele>
        <time>2021-02-20T13:46:25Z</time>
      </trkpt>
      <trkpt lat="48.40229" lon="2.64546">
        <ele>287.51</ele>
        <time>2021-02-20T13:46:27Z</time>
      </trkpt>
      <trkpt lat="48.40224" lon="2.64573">
        <ele>288.01</ele>
        <time>2021-02-20T13:46:43Z</time>
      </trkpt>
      <trkpt lat="48.40219" lon="2.64589">
        <ele>288.42</ele>
        <time>2021-02-20T13:46:55Z</time>
      </trkpt>
      <trkpt lat="48.40218" lon="2.6459">
        <ele>288.39</ele>
        <time>2021-02-20T13:46:56Z</time>
      </trkpt>
      <trkpt lat="48.40217" lon="2.64592">
        <ele>288.36</ele>
        <time>2021-02-20T13:46:57Z</time>
      </trkpt>
      <trkpt lat="48.40207" lon="2.6462">
        <ele>288.35</ele>
        <time>2021-02-20T13:47:15Z</time>
      </trkpt>
      <trkpt lat="48.40205" lon="2.64626">
        <ele>288.46</ele>
        <time>2021-02-20T13:47:24Z</time>
      </trkpt>
      <trkpt lat="48.40203" lon="2.6463">
        <ele>288.51</ele>
        <time>2021-02-20T13:47:26Z</time>
      </trkpt>
      <trkpt lat="48.40199" lon="2.64635">
        <ele>288.66</ele>
        <time>2021-02-20T13:47:31Z</time>
      </trkpt>
      <trkpt lat="48.40183" lon="2.64664">
        <ele>288.8</ele>
        <time>2021-02-20T13:47:52Z</time>
      </trkpt>
      <trkpt lat="48.40167" lon="2.64696">
        <ele>288.82</ele>
        <time>2021-02-20T13:48:13Z</time>
      </trkpt>
      <trkpt lat="48.40154" lon="2.64722">
        <ele>289.44</ele>
        <time>2021-02-20T13:48:30Z</time>
      </trkpt>
      <trkpt lat="48.40142" lon="2.64755">
        <ele>288.82</ele>
        <time>2021-02-20T13:48:51Z</time>
      </trkpt>
      <trkpt lat="48.40133" lon="2.64784">
        <ele>287.1</ele>
        <time>2021-02-20T13:49:09Z</time>
      </trkpt>
      <trkpt lat="48.40127" lon="2.64802">
        <ele>289.66</ele>
        <time>2021-02-20T13:49:19Z</time>
      </trkpt>
      <trkpt lat="48.40116" lon="2.64856">
        <ele>288.28</ele>
        <time>2021-02-20T13:49:46Z</time>
      </trkpt>
      <trkpt lat="48.40118" lon="2.64899">
        <ele>288.42</ele>
        <time>2021-02-20T13:50:07Z</time>
      </trkpt>
      <trkpt lat="48.40112" lon="2.64928">
        <ele>287.64</ele>
        <time>2021-02-20T13:50:24Z</time>
      </trkpt>
      <trkpt lat="48.40101" lon="2.64962">
        <ele>287.97</ele>
        <time>2021-02-20T13:50:42Z</time>
      </trkpt>
      <trkpt lat="48.40098" lon="2.64992">
        <ele>288.59</ele>
        <time>2021-02-20T13:50:59Z</time>
      </trkpt>
      <trkpt lat="48.40101" lon="2.65011">
        <ele>288.65</ele>
        <time>2021-02-20T13:51:08Z</time>
      </trkpt>
      <trkpt lat="48.40099" lon="2.65046">
        <ele>288.25</ele>
        <time>2021-02-20T13:51:27Z</time>
      </trkpt>
      <trkpt lat="48.40095" lon="2.65078">
        <ele>287.9</ele>
        <time>2021-02-20T13:51:44Z</time>
      </trkpt>
      <trkpt lat="48.40094" lon="2.65082">
        <ele>287.89</ele>
        <time>2021-02-20T13:51:46Z</time>
      </trkpt>
      <trkpt lat="48.40094" lon="2.65084">
        <ele>287.9</ele>
        <time>2021-02-20T13:51:47Z</time>
      </trkpt>
      <trkpt lat="48.40094" lon="2.65086">
        <ele>287.91</ele>
        <time>2021-02-20T13:51:48Z</time>
      </trkpt>
      <trkpt lat="48.40093" lon="2.65088">
        <ele>287.92</ele>
        <time>2021-02-20T13:51:49Z</time>
      </trkpt>
      <trkpt lat="48.40093" lon="2.65089">
        <ele>287.92</ele>
        <time>2021-02-20T13:51:50Z</time>
      </trkpt>
      <trkpt lat="48.40092" lon="2.65091">
        <ele>287.92</ele>
        <time>2021-02-20T13:51:51Z</time>
      </trkpt>
      <trkpt lat="48.40092" lon="2.65093">
        <ele>287.92</ele>
        <time>2021-02-20T13:51:52Z</time>
      </trkpt>
      <trkpt lat="48.40083" lon="2.6512">
        <ele>287.8</ele>
        <time>2021-02-20T13:52:09Z</time>
      </trkpt>
      <trkpt lat="48.40082" lon="2.65133">
        <ele>287.87</ele>
        <time>2021-02-20T13:52:17Z</time>
      </trkpt>
      <trkpt lat="48.40081" lon="2.65135">
        <ele>287.89</ele>
        <time>2021-02-20T13:52:18Z</time>
      </trkpt>
      <trkpt lat="48.40071" lon="2.65163">
        <ele>287.63</ele>
        <time>2021-02-20T13:52:36Z</time>
      </trkpt>
      <trkpt lat="48.4007" lon="2.6517">
        <ele>288.15</ele>
        <time>2021-02-20T13:52:40Z</time>
      </trkpt>
      <trkpt lat="48.40066" lon="2.65202">
        <ele>287.93</ele>
        <time>2021-02-20T13:52:59Z</time>
      </trkpt>
      <trkpt lat="48.40063" lon="2.65215">
        <ele>287.78</ele>
        <time>2021-02-20T13:53:06Z</time>
      </trkpt>
      <trkpt lat="48.40061" lon="2.6522">
        <ele>284.11</ele>
        <time>2021-02-20T13:53:09Z</time>
      </trkpt>
      <trkpt lat="48.40059" lon="2.65226">
        <ele>288.21</ele>
        <time>2021-02-20T13:53:13Z</time>
      </trkpt>
      <trkpt lat="48.4005" lon="2.65243">
        <ele>288.67</ele>
        <time>2021-02-20T13:53:25Z</time>
      </trkpt>
      <trkpt lat="48.40038" lon="2.65277">
        <ele>289.02</ele>
        <time>2021-02-20T13:53:43Z</time>
      </trkpt>
      <trkpt lat="48.40041" lon="2.653">
        <ele>288.2</ele>
        <time>2021-02-20T13:53:59Z</time>
      </trkpt>
      <trkpt lat="48.40036" lon="2.65339">
        <ele>287.89</ele>
        <time>2021-02-20T13:54:21Z</time>
      </trkpt>
      <trkpt lat="48.40032" lon="2.65358">
        <ele>286.96</ele>
        <time>2021-02-20T13:54:31Z</time>
      </trkpt>
      <trkpt lat="48.40033" lon="2.65366">
        <ele>286.76</ele>
        <time>2021-02-20T13:54:35Z</time>
      </trkpt>
      <trkpt lat="48.40033" lon="2.65368">
        <ele>286.73</ele>
        <time>2021-02-20T13:54:36Z</time>
      </trkpt>
      <trkpt lat="48.40033" lon="2.65371">
        <ele>286.72</ele>
        <time>2021-02-20T13:54:37Z</time>
      </trkpt>
      <trkpt lat="48.40033" lon="2.65373">
        <ele>286.71</ele>
        <time>2021-02-20T13:54:38Z</time>
      </trkpt>
      <trkpt lat="48.40033" lon="2.65375">
        <ele>286.71</ele>
        <time>2021-02-20T13:54:39Z</time>
      </trkpt>
      <trkpt lat="48.40032" lon="2.65398">
        <ele>286.9</ele>
        <time>2021-02-20T13:54:52Z</time>
      </trkpt>
      <trkpt lat="48.4002" lon="2.65422">
        <ele>287.2</ele>
        <time>2021-02-20T13:55:08Z</time>
      </trkpt>
      <trkpt lat="48.39999" lon="2.65436">
        <ele>288.52</ele>
        <time>2021-02-20T13:55:27Z</time>
      </trkpt>
      <trkpt lat="48.39996" lon="2.65446">
        <ele>288.66</ele>
        <time>2021-02-20T13:55:34Z</time>
      </trkpt>
      <trkpt lat="48.39995" lon="2.65448">
        <ele>288.69</ele>
        <time>2021-02-20T13:55:35Z</time>
      </trkpt>
      <trkpt lat="48.39994" lon="2.65449">
        <ele>288.71</ele>
        <time>2021-02-20T13:55:36Z</time>
      </trkpt>
      <trkpt lat="48.39994" lon="2.65451">
        <ele>288.71</ele>
        <time>2021-02-20T13:55:37Z</time>
      </trkpt>
      <trkpt lat="48.39993" lon="2.65452">
        <ele>288.72</ele>
        <time>2021-02-20T13:55:38Z</time>
      </trkpt>
      <trkpt lat="48.39988" lon="2.65463">
        <ele>288.47</ele>
        <time>2021-02-20T13:55:46Z</time>
      </trkpt>
      <trkpt lat="48.39984" lon="2.65478">
        <ele>288.99</ele>
        <time>2021-02-20T13:55:58Z</time>
      </trkpt>
      <trkpt lat="48.39983" lon="2.65479">
        <ele>288.94</ele>
        <time>2021-02-20T13:55:59Z</time>
      </trkpt>
      <trkpt lat="48.39982" lon="2.65486">
        <ele>288.26</ele>
        <time>2021-02-20T13:56:04Z</time>
      </trkpt>
      <trkpt lat="48.39981" lon="2.65487">
        <ele>288.12</ele>
        <time>2021-02-20T13:56:05Z</time>
      </trkpt>
      <trkpt lat="48.39981" lon="2.65494">
        <ele>287.35</ele>
        <time>2021-02-20T13:56:10Z</time>
      </trkpt>
      <trkpt lat="48.39981" lon="2.65496">
        <ele>287.25</ele>
        <time>2021-02-20T13:56:11Z</time>
      </trkpt>
      <trkpt lat="48.39981" lon="2.65498">
        <ele>287.16</ele>
        <time>2021-02-20T13:56:12Z</time>
      </trkpt>
      <trkpt lat="48.39986" lon="2.65519">
        <ele>287.12</ele>
        <time>2021-02-20T13:56:28Z</time>
      </trkpt>
      <trkpt lat="48.39989" lon="2.65527">
        <ele>287.78</ele>
        <time>2021-02-20T13:56:48Z</time>
      </trkpt>
      <trkpt lat="48.39994" lon="2.65539">
        <ele>287.78</ele>
        <time>2021-02-20T13:57:13Z</time>
      </trkpt>
      <trkpt lat="48.39988" lon="2.65551">
        <ele>287.78</ele>
        <time>2021-02-20T13:57:35Z</time>
      </trkpt>
      <trkpt lat="48.39985" lon="2.65558">
        <ele>287.78</ele>
        <time>2021-02-20T13:57:48Z</time>
      </trkpt>
      <trkpt lat="48.3998" lon="2.65565">
        <ele>287.78</ele>
        <time>2021-02-20T13:58:02Z</time>
      </trkpt>
      <trkpt lat="48.3998" lon="2.65569">
        <ele>287.78</ele>
        <time>2021-02-20T13:58:04Z</time>
      </trkpt>
      <trkpt lat="48.39979" lon="2.65573">
        <ele>284.4</ele>
        <time>2021-02-20T13:58:08Z</time>
      </trkpt>
      <trkpt lat="48.39979" lon="2.65578">
        <ele>282.34</ele>
        <time>2021-02-20T13:58:11Z</time>
      </trkpt>
      <trkpt lat="48.3998" lon="2.65579">
        <ele>281.93</ele>
        <time>2021-02-20T13:58:12Z</time>
      </trkpt>
      <trkpt lat="48.39982" lon="2.65599">
        <ele>279.4</ele>
        <time>2021-02-20T13:58:28Z</time>
      </trkpt>
      <trkpt lat="48.39982" lon="2.65603">
        <ele>277.09</ele>
        <time>2021-02-20T13:58:33Z</time>
      </trkpt>
      <trkpt lat="48.39984" lon="2.65613">
        <ele>277.86</ele>
        <time>2021-02-20T13:58:40Z</time>
      </trkpt>
      <trkpt lat="48.39984" lon="2.65614">
        <ele>277.89</ele>
        <time>2021-02-20T13:58:41Z</time>
      </trkpt>
      <trkpt lat="48.39984" lon="2.65616">
        <ele>277.9</ele>
        <time>2021-02-20T13:58:42Z</time>
      </trkpt>
      <trkpt lat="48.39985" lon="2.65618">
        <ele>277.84</ele>
        <time>2021-02-20T13:58:43Z</time>
      </trkpt>
      <trkpt lat="48.39988" lon="2.6562">
        <ele>276.93</ele>
        <time>2021-02-20T13:58:56Z</time>
      </trkpt>
      <trkpt lat="48.39987" lon="2.65623">
        <ele>277.23</ele>
        <time>2021-02-20T13:59:16Z</time>
      </trkpt>
      <trkpt lat="48.39986" lon="2.65635">
        <ele>276.42</ele>
        <time>2021-02-20T13:59:34Z</time>
      </trkpt>
      <trkpt lat="48.3999" lon="2.65654">
        <ele>274.9</ele>
        <time>2021-02-20T13:59:50Z</time>
      </trkpt>
      <trkpt lat="48.3999" lon="2.65655">
        <ele>274.82</ele>
        <time>2021-02-20T13:59:51Z</time>
      </trkpt>
      <trkpt lat="48.39991" lon="2.65657">
        <ele>274.74</ele>
        <time>2021-02-20T13:59:52Z</time>
      </trkpt>
      <trkpt lat="48.39991" lon="2.6566">
        <ele>274.51</ele>
        <time>2021-02-20T13:59:54Z</time>
      </trkpt>
      <trkpt lat="48.39994" lon="2.6568">
        <ele>273.56</ele>
        <time>2021-02-20T14:00:12Z</time>
      </trkpt>
      <trkpt lat="48.39997" lon="2.65694">
        <ele>273.33</ele>
        <time>2021-02-20T14:00:23Z</time>
      </trkpt>
      <trkpt lat="48.39998" lon="2.65696">
        <ele>273.17</ele>
        <time>2021-02-20T14:00:24Z</time>
      </trkpt>
      <trkpt lat="48.40006" lon="2.65713">
        <ele>271.7</ele>
        <time>2021-02-20T14:00:38Z</time>
      </trkpt>
      <trkpt lat="48.40013" lon="2.65716">
        <ele>271.77</ele>
        <time>2021-02-20T14:00:52Z</time>
      </trkpt>
      <trkpt lat="48.40003" lon="2.65725">
        <ele>271.6</ele>
        <time>2021-02-20T14:01:10Z</time>
      </trkpt>
      <trkpt lat="48.39999" lon="2.65735">
        <ele>272.38</ele>
        <time>2021-02-20T14:01:25Z</time>
      </trkpt>
      <trkpt lat="48.39993" lon="2.6575">
        <ele>271.38</ele>
        <time>2021-02-20T14:01:41Z</time>
      </trkpt>
      <trkpt lat="48.39992" lon="2.65751">
        <ele>271.35</ele>
        <time>2021-02-20T14:01:42Z</time>
      </trkpt>
      <trkpt lat="48.39991" lon="2.65753">
        <ele>271.14</ele>
        <time>2021-02-20T14:01:43Z</time>
      </trkpt>
      <trkpt lat="48.39987" lon="2.65759">
        <ele>270.45</ele>
        <time>2021-02-20T14:01:49Z</time>
      </trkpt>
      <trkpt lat="48.39987" lon="2.6576">
        <ele>270.35</ele>
        <time>2021-02-20T14:01:50Z</time>
      </trkpt>
      <trkpt lat="48.39986" lon="2.65762">
        <ele>270.16</ele>
        <time>2021-02-20T14:01:51Z</time>
      </trkpt>
      <trkpt lat="48.39992" lon="2.65768">
        <ele>269.4</ele>
        <time>2021-02-20T14:02:06Z</time>
      </trkpt>
      <trkpt lat="48.39992" lon="2.65771">
        <ele>267.39</ele>
        <time>2021-02-20T14:02:14Z</time>
      </trkpt>
      <trkpt lat="48.39991" lon="2.65778">
        <ele>270.5</ele>
        <time>2021-02-20T14:02:20Z</time>
      </trkpt>
      <trkpt lat="48.39995" lon="2.65794">
        <ele>267.46</ele>
        <time>2021-02-20T14:02:43Z</time>
      </trkpt>
      <trkpt lat="48.39987" lon="2.65804">
        <ele>268.71</ele>
        <time>2021-02-20T14:03:04Z</time>
      </trkpt>
      <trkpt lat="48.39979" lon="2.65818">
        <ele>269.29</ele>
        <time>2021-02-20T14:03:21Z</time>
      </trkpt>
      <trkpt lat="48.39968" lon="2.65848">
        <ele>271.41</ele>
        <time>2021-02-20T14:03:48Z</time>
      </trkpt>
      <trkpt lat="48.39969" lon="2.65864">
        <ele>273.2</ele>
        <time>2021-02-20T14:04:08Z</time>
      </trkpt>
      <trkpt lat="48.39969" lon="2.6587">
        <ele>273.79</ele>
        <time>2021-02-20T14:04:13Z</time>
      </trkpt>
      <trkpt lat="48.39967" lon="2.65883">
        <ele>274.77</ele>
        <time>2021-02-20T14:04:23Z</time>
      </trkpt>
      <trkpt lat="48.39961" lon="2.65898">
        <ele>276.43</ele>
        <time>2021-02-20T14:04:42Z</time>
      </trkpt>
      <trkpt lat="48.39956" lon="2.65906">
        <ele>276.43</ele>
        <time>2021-02-20T14:05:06Z</time>
      </trkpt>
      <trkpt lat="48.39951" lon="2.65927">
        <ele>278.11</ele>
        <time>2021-02-20T14:05:24Z</time>
      </trkpt>
      <trkpt lat="48.39951" lon="2.6594">
        <ele>278.9</ele>
        <time>2021-02-20T14:05:34Z</time>
      </trkpt>
      <trkpt lat="48.39941" lon="2.65953">
        <ele>280.68</ele>
        <time>2021-02-20T14:05:52Z</time>
      </trkpt>
      <trkpt lat="48.39938" lon="2.65963">
        <ele>280.11</ele>
        <time>2021-02-20T14:06:16Z</time>
      </trkpt>
      <trkpt lat="48.39941" lon="2.65968">
        <ele>280.12</ele>
        <time>2021-02-20T14:06:24Z</time>
      </trkpt>
      <trkpt lat="48.39942" lon="2.65972">
        <ele>280.12</ele>
        <time>2021-02-20T14:06:26Z</time>
      </trkpt>
      <trkpt lat="48.39933" lon="2.65989">
        <ele>279.67</ele>
        <time>2021-02-20T14:06:40Z</time>
      </trkpt>
      <trkpt lat="48.39928" lon="2.66011">
        <ele>281.09</ele>
        <time>2021-02-20T14:06:57Z</time>
      </trkpt>
      <trkpt lat="48.3992" lon="2.66045">
        <ele>281</ele>
        <time>2021-02-20T14:07:20Z</time>
      </trkpt>
      <trkpt lat="48.39904" lon="2.66074">
        <ele>279.16</ele>
        <time>2021-02-20T14:07:45Z</time>
      </trkpt>
      <trkpt lat="48.39899" lon="2.66093">
        <ele>276.33</ele>
        <time>2021-02-20T14:08:06Z</time>
      </trkpt>
      <trkpt lat="48.39903" lon="2.66102">
        <ele>275.41</ele>
        <time>2021-02-20T14:08:15Z</time>
      </trkpt>
      <trkpt lat="48.399" lon="2.66113">
        <ele>273.91</ele>
        <time>2021-02-20T14:08:29Z</time>
      </trkpt>
      <trkpt lat="48.399" lon="2.66126">
        <ele>271.7</ele>
        <time>2021-02-20T14:08:45Z</time>
      </trkpt>
      <trkpt lat="48.399" lon="2.66128">
        <ele>271.53</ele>
        <time>2021-02-20T14:08:46Z</time>
      </trkpt>
      <trkpt lat="48.39901" lon="2.66129">
        <ele>271.37</ele>
        <time>2021-02-20T14:08:47Z</time>
      </trkpt>
      <trkpt lat="48.39901" lon="2.66131">
        <ele>271.15</ele>
        <time>2021-02-20T14:08:48Z</time>
      </trkpt>
      <trkpt lat="48.39908" lon="2.66135">
        <ele>266.59</ele>
        <time>2021-02-20T14:08:55Z</time>
      </trkpt>
      <trkpt lat="48.3991" lon="2.66136">
        <ele>264.87</ele>
        <time>2021-02-20T14:08:57Z</time>
      </trkpt>
      <trkpt lat="48.39911" lon="2.66136">
        <ele>266.96</ele>
        <time>2021-02-20T14:08:58Z</time>
      </trkpt>
      <trkpt lat="48.39913" lon="2.66136">
        <ele>270.3</ele>
        <time>2021-02-20T14:09:00Z</time>
      </trkpt>
      <trkpt lat="48.39921" lon="2.6614">
        <ele>267.16</ele>
        <time>2021-02-20T14:09:11Z</time>
      </trkpt>
      <trkpt lat="48.39927" lon="2.66144">
        <ele>265.15</ele>
        <time>2021-02-20T14:09:30Z</time>
      </trkpt>
      <trkpt lat="48.39932" lon="2.66149">
        <ele>261.97</ele>
        <time>2021-02-20T14:09:41Z</time>
      </trkpt>
      <trkpt lat="48.39936" lon="2.66159">
        <ele>260.08</ele>
        <time>2021-02-20T14:09:59Z</time>
      </trkpt>
      <trkpt lat="48.39944" lon="2.66155">
        <ele>259.67</ele>
        <time>2021-02-20T14:10:16Z</time>
      </trkpt>
      <trkpt lat="48.39952" lon="2.66153">
        <ele>260.19</ele>
        <time>2021-02-20T14:10:31Z</time>
      </trkpt>
      <trkpt lat="48.39968" lon="2.66153">
        <ele>257.89</ele>
        <time>2021-02-20T14:10:48Z</time>
      </trkpt>
      <trkpt lat="48.39969" lon="2.66153">
        <ele>257.76</ele>
        <time>2021-02-20T14:10:50Z</time>
      </trkpt>
      <trkpt lat="48.39976" lon="2.66155">
        <ele>256.99</ele>
        <time>2021-02-20T14:10:58Z</time>
      </trkpt>
      <trkpt lat="48.39981" lon="2.66157">
        <ele>256.68</ele>
        <time>2021-02-20T14:11:02Z</time>
      </trkpt>
      <trkpt lat="48.39983" lon="2.66158">
        <ele>256.46</ele>
        <time>2021-02-20T14:11:04Z</time>
      </trkpt>
      <trkpt lat="48.40003" lon="2.66165">
        <ele>254.2</ele>
        <time>2021-02-20T14:11:23Z</time>
      </trkpt>
      <trkpt lat="48.40021" lon="2.66173">
        <ele>251.54</ele>
        <time>2021-02-20T14:11:43Z</time>
      </trkpt>
      <trkpt lat="48.40044" lon="2.66192">
        <ele>248.53</ele>
        <time>2021-02-20T14:12:09Z</time>
      </trkpt>
      <trkpt lat="48.40059" lon="2.66211">
        <ele>246.78</ele>
        <time>2021-02-20T14:12:31Z</time>
      </trkpt>
      <trkpt lat="48.40059" lon="2.66219">
        <ele>247.56</ele>
        <time>2021-02-20T14:12:55Z</time>
      </trkpt>
      <trkpt lat="48.40059" lon="2.6622">
        <ele>247.56</ele>
        <time>2021-02-20T14:12:56Z</time>
      </trkpt>
      <trkpt lat="48.40059" lon="2.66222">
        <ele>247.54</ele>
        <time>2021-02-20T14:12:57Z</time>
      </trkpt>
      <trkpt lat="48.40059" lon="2.66224">
        <ele>247.49</ele>
        <time>2021-02-20T14:12:58Z</time>
      </trkpt>
      <trkpt lat="48.40058" lon="2.66225">
        <ele>247.44</ele>
        <time>2021-02-20T14:12:59Z</time>
      </trkpt>
      <trkpt lat="48.40058" lon="2.66227">
        <ele>247.38</ele>
        <time>2021-02-20T14:13:00Z</time>
      </trkpt>
      <trkpt lat="48.40058" lon="2.66229">
        <ele>247.32</ele>
        <time>2021-02-20T14:13:01Z</time>
      </trkpt>
      <trkpt lat="48.40058" lon="2.6623">
        <ele>247.23</ele>
        <time>2021-02-20T14:13:02Z</time>
      </trkpt>
      <trkpt lat="48.40058" lon="2.66232">
        <ele>247.14</ele>
        <time>2021-02-20T14:13:03Z</time>
      </trkpt>
      <trkpt lat="48.40057" lon="2.66245">
        <ele>247.4</ele>
        <time>2021-02-20T14:13:14Z</time>
      </trkpt>
      <trkpt lat="48.40056" lon="2.66249">
        <ele>247.38</ele>
        <time>2021-02-20T14:13:16Z</time>
      </trkpt>
      <trkpt lat="48.40056" lon="2.66251">
        <ele>247.38</ele>
        <time>2021-02-20T14:13:17Z</time>
      </trkpt>
      <trkpt lat="48.40056" lon="2.66253">
        <ele>247.39</ele>
        <time>2021-02-20T14:13:18Z</time>
      </trkpt>
      <trkpt lat="48.40056" lon="2.66254">
        <ele>247.42</ele>
        <time>2021-02-20T14:13:19Z</time>
      </trkpt>
      <trkpt lat="48.40059" lon="2.66257">
        <ele>247.46</ele>
        <time>2021-02-20T14:13:22Z</time>
      </trkpt>
      <trkpt lat="48.40057" lon="2.66264">
        <ele>247.53</ele>
        <time>2021-02-20T14:13:29Z</time>
      </trkpt>
      <trkpt lat="48.40056" lon="2.66266">
        <ele>247.6</ele>
        <time>2021-02-20T14:13:30Z</time>
      </trkpt>
      <trkpt lat="48.40054" lon="2.66299">
        <ele>247.82</ele>
        <time>2021-02-20T14:13:48Z</time>
      </trkpt>
      <trkpt lat="48.40056" lon="2.66306">
        <ele>247.79</ele>
        <time>2021-02-20T14:13:52Z</time>
      </trkpt>
      <trkpt lat="48.40065" lon="2.66319">
        <ele>247.91</ele>
        <time>2021-02-20T14:14:06Z</time>
      </trkpt>
      <trkpt lat="48.40079" lon="2.66326">
        <ele>247.36</ele>
        <time>2021-02-20T14:14:24Z</time>
      </trkpt>
      <trkpt lat="48.40083" lon="2.66327">
        <ele>249.43</ele>
        <time>2021-02-20T14:14:31Z</time>
      </trkpt>
      <trkpt lat="48.40098" lon="2.66327">
        <ele>250.98</ele>
        <time>2021-02-20T14:14:48Z</time>
      </trkpt>
      <trkpt lat="48.40111" lon="2.66327">
        <ele>252.71</ele>
        <time>2021-02-20T14:15:02Z</time>
      </trkpt>
      <trkpt lat="48.40116" lon="2.66317">
        <ele>254.68</ele>
        <time>2021-02-20T14:15:23Z</time>
      </trkpt>
      <trkpt lat="48.40119" lon="2.66324">
        <ele>254.58</ele>
        <time>2021-02-20T14:15:47Z</time>
      </trkpt>
      <trkpt lat="48.40122" lon="2.66324">
        <ele>254.74</ele>
        <time>2021-02-20T14:15:56Z</time>
      </trkpt>
      <trkpt lat="48.40148" lon="2.66312">
        <ele>256.93</ele>
        <time>2021-02-20T14:16:21Z</time>
      </trkpt>
      <trkpt lat="48.40173" lon="2.66301">
        <ele>258.6</ele>
        <time>2021-02-20T14:16:45Z</time>
      </trkpt>
      <trkpt lat="48.40175" lon="2.663">
        <ele>258.64</ele>
        <time>2021-02-20T14:16:46Z</time>
      </trkpt>
      <trkpt lat="48.40199" lon="2.66298">
        <ele>260.05</ele>
        <time>2021-02-20T14:17:10Z</time>
      </trkpt>
      <trkpt lat="48.40195" lon="2.66318">
        <ele>261.94</ele>
        <time>2021-02-20T14:17:29Z</time>
      </trkpt>
      <trkpt lat="48.40184" lon="2.6634">
        <ele>263.92</ele>
        <time>2021-02-20T14:17:53Z</time>
      </trkpt>
      <trkpt lat="48.40172" lon="2.66383">
        <ele>264.84</ele>
        <time>2021-02-20T14:18:22Z</time>
      </trkpt>
      <trkpt lat="48.40172" lon="2.66418">
        <ele>267.98</ele>
        <time>2021-02-20T14:18:45Z</time>
      </trkpt>
      <trkpt lat="48.40176" lon="2.66426">
        <ele>268.51</ele>
        <time>2021-02-20T14:18:51Z</time>
      </trkpt>
      <trkpt lat="48.40176" lon="2.66428">
        <ele>268.53</ele>
        <time>2021-02-20T14:18:52Z</time>
      </trkpt>
      <trkpt lat="48.40176" lon="2.66429">
        <ele>268.53</ele>
        <time>2021-02-20T14:18:53Z</time>
      </trkpt>
      <trkpt lat="48.40176" lon="2.66431">
        <ele>268.53</ele>
        <time>2021-02-20T14:18:54Z</time>
      </trkpt>
      <trkpt lat="48.40177" lon="2.66433">
        <ele>268.54</ele>
        <time>2021-02-20T14:18:55Z</time>
      </trkpt>
      <trkpt lat="48.40179" lon="2.66452">
        <ele>268.27</ele>
        <time>2021-02-20T14:19:08Z</time>
      </trkpt>
      <trkpt lat="48.40179" lon="2.66454">
        <ele>268.25</ele>
        <time>2021-02-20T14:19:09Z</time>
      </trkpt>
      <trkpt lat="48.40179" lon="2.66456">
        <ele>268.2</ele>
        <time>2021-02-20T14:19:10Z</time>
      </trkpt>
      <trkpt lat="48.40186" lon="2.66485">
        <ele>267.82</ele>
        <time>2021-02-20T14:19:28Z</time>
      </trkpt>
      <trkpt lat="48.40191" lon="2.66503">
        <ele>268.88</ele>
        <time>2021-02-20T14:19:41Z</time>
      </trkpt>
      <trkpt lat="48.40193" lon="2.66519">
        <ele>271.37</ele>
        <time>2021-02-20T14:19:55Z</time>
      </trkpt>
      <trkpt lat="48.40204" lon="2.66539">
        <ele>274.42</ele>
        <time>2021-02-20T14:20:19Z</time>
      </trkpt>
      <trkpt lat="48.40204" lon="2.66542">
        <ele>274.74</ele>
        <time>2021-02-20T14:20:27Z</time>
      </trkpt>
      <trkpt lat="48.40204" lon="2.66542">
        <ele>274.74</ele>
        <time>2021-02-20T14:20:28Z</time>
      </trkpt>
      <trkpt lat="48.40205" lon="2.66543">
        <ele>274.74</ele>
        <time>2021-02-20T14:20:29Z</time>
      </trkpt>
      <trkpt lat="48.40209" lon="2.66542">
        <ele>274.92</ele>
        <time>2021-02-20T14:20:34Z</time>
      </trkpt>
      <trkpt lat="48.4021" lon="2.66536">
        <ele>275.46</ele>
        <time>2021-02-20T14:20:39Z</time>
      </trkpt>
      <trkpt lat="48.40208" lon="2.66525">
        <ele>275.47</ele>
        <time>2021-02-20T14:20:53Z</time>
      </trkpt>
      <trkpt lat="48.40207" lon="2.66523">
        <ele>275.43</ele>
        <time>2021-02-20T14:20:54Z</time>
      </trkpt>
      <trkpt lat="48.40206" lon="2.66518">
        <ele>275.27</ele>
        <time>2021-02-20T14:20:57Z</time>
      </trkpt>
      <trkpt lat="48.40206" lon="2.66515">
        <ele>275.22</ele>
        <time>2021-02-20T14:20:59Z</time>
      </trkpt>
      <trkpt lat="48.40208" lon="2.66509">
        <ele>275.37</ele>
        <time>2021-02-20T14:21:14Z</time>
      </trkpt>
      <trkpt lat="48.40208" lon="2.66509">
        <ele>276.18</ele>
        <time>2021-02-20T14:21:16Z</time>
      </trkpt>
      <trkpt lat="48.4021" lon="2.6651">
        <ele>277.47</ele>
        <time>2021-02-20T14:21:25Z</time>
      </trkpt>
      <trkpt lat="48.40212" lon="2.6651">
        <ele>277.47</ele>
        <time>2021-02-20T14:21:28Z</time>
      </trkpt>
      <trkpt lat="48.40227" lon="2.66513">
        <ele>277.4</ele>
        <time>2021-02-20T14:21:53Z</time>
      </trkpt>
      <trkpt lat="48.40229" lon="2.66508">
        <ele>277.93</ele>
        <time>2021-02-20T14:21:56Z</time>
      </trkpt>
      <trkpt lat="48.4023" lon="2.66507">
        <ele>278.1</ele>
        <time>2021-02-20T14:21:57Z</time>
      </trkpt>
      <trkpt lat="48.40236" lon="2.66485">
        <ele>281.21</ele>
        <time>2021-02-20T14:22:11Z</time>
      </trkpt>
      <trkpt lat="48.40239" lon="2.66473">
        <ele>281.94</ele>
        <time>2021-02-20T14:22:23Z</time>
      </trkpt>
      <trkpt lat="48.40247" lon="2.66444">
        <ele>279.28</ele>
        <time>2021-02-20T14:22:44Z</time>
      </trkpt>
      <trkpt lat="48.40261" lon="2.66425">
        <ele>279.65</ele>
        <time>2021-02-20T14:23:01Z</time>
      </trkpt>
      <trkpt lat="48.40262" lon="2.66424">
        <ele>279.78</ele>
        <time>2021-02-20T14:23:02Z</time>
      </trkpt>
      <trkpt lat="48.40279" lon="2.66412">
        <ele>277.5</ele>
        <time>2021-02-20T14:23:24Z</time>
      </trkpt>
      <trkpt lat="48.403" lon="2.66408">
        <ele>273.96</ele>
        <time>2021-02-20T14:23:45Z</time>
      </trkpt>
      <trkpt lat="48.40328" lon="2.66389">
        <ele>271.94</ele>
        <time>2021-02-20T14:24:11Z</time>
      </trkpt>
      <trkpt lat="48.40348" lon="2.66383">
        <ele>271.71</ele>
        <time>2021-02-20T14:24:27Z</time>
      </trkpt>
      <trkpt lat="48.4037" lon="2.66404">
        <ele>271.3</ele>
        <time>2021-02-20T14:24:50Z</time>
      </trkpt>
      <trkpt lat="48.40393" lon="2.66418">
        <ele>272.64</ele>
        <time>2021-02-20T14:25:10Z</time>
      </trkpt>
      <trkpt lat="48.40414" lon="2.66428">
        <ele>275.34</ele>
        <time>2021-02-20T14:25:30Z</time>
      </trkpt>
      <trkpt lat="48.40435" lon="2.66441">
        <ele>277.35</ele>
        <time>2021-02-20T14:25:49Z</time>
      </trkpt>
      <trkpt lat="48.40452" lon="2.66437">
        <ele>278.25</ele>
        <time>2021-02-20T14:26:04Z</time>
      </trkpt>
      <trkpt lat="48.40471" lon="2.66436">
        <ele>279.67</ele>
        <time>2021-02-20T14:26:22Z</time>
      </trkpt>
      <trkpt lat="48.40479" lon="2.66433">
        <ele>280.54</ele>
        <time>2021-02-20T14:26:37Z</time>
      </trkpt>
      <trkpt lat="48.40491" lon="2.66413">
        <ele>282.33</ele>
        <time>2021-02-20T14:26:59Z</time>
      </trkpt>
      <trkpt lat="48.40504" lon="2.66381">
        <ele>285.3</ele>
        <time>2021-02-20T14:27:22Z</time>
      </trkpt>
      <trkpt lat="48.40505" lon="2.66379">
        <ele>285.37</ele>
        <time>2021-02-20T14:27:23Z</time>
      </trkpt>
      <trkpt lat="48.40509" lon="2.66349">
        <ele>285.78</ele>
        <time>2021-02-20T14:27:43Z</time>
      </trkpt>
      <trkpt lat="48.40511" lon="2.66317">
        <ele>286.11</ele>
        <time>2021-02-20T14:27:59Z</time>
      </trkpt>
      <trkpt lat="48.405" lon="2.6629">
        <ele>289.01</ele>
        <time>2021-02-20T14:28:18Z</time>
      </trkpt>
      <trkpt lat="48.40484" lon="2.66276">
        <ele>291.54</ele>
        <time>2021-02-20T14:28:37Z</time>
      </trkpt>
      <trkpt lat="48.40472" lon="2.66291">
        <ele>294.22</ele>
        <time>2021-02-20T14:28:55Z</time>
      </trkpt>
      <trkpt lat="48.40472" lon="2.66303">
        <ele>295.59</ele>
        <time>2021-02-20T14:29:03Z</time>
      </trkpt>
      <trkpt lat="48.40477" lon="2.66313">
        <ele>296</ele>
        <time>2021-02-20T14:29:11Z</time>
      </trkpt>
      <trkpt lat="48.40485" lon="2.6632">
        <ele>296.23</ele>
        <time>2021-02-20T14:29:24Z</time>
      </trkpt>
      <trkpt lat="48.40487" lon="2.66324">
        <ele>296.38</ele>
        <time>2021-02-20T14:29:28Z</time>
      </trkpt>
      <trkpt lat="48.40487" lon="2.66326">
        <ele>296.42</ele>
        <time>2021-02-20T14:29:29Z</time>
      </trkpt>
      <trkpt lat="48.40487" lon="2.66327">
        <ele>296.46</ele>
        <time>2021-02-20T14:29:30Z</time>
      </trkpt>
      <trkpt lat="48.40485" lon="2.66334">
        <ele>296.53</ele>
        <time>2021-02-20T14:29:35Z</time>
      </trkpt>
      <trkpt lat="48.40484" lon="2.66337">
        <ele>296.53</ele>
        <time>2021-02-20T14:29:37Z</time>
      </trkpt>
      <trkpt lat="48.40484" lon="2.66339">
        <ele>296.51</ele>
        <time>2021-02-20T14:29:38Z</time>
      </trkpt>
      <trkpt lat="48.40482" lon="2.66361">
        <ele>296.4</ele>
        <time>2021-02-20T14:29:54Z</time>
      </trkpt>
      <trkpt lat="48.40475" lon="2.66369">
        <ele>297.18</ele>
        <time>2021-02-20T14:30:02Z</time>
      </trkpt>
      <trkpt lat="48.40469" lon="2.6638">
        <ele>298.03</ele>
        <time>2021-02-20T14:30:13Z</time>
      </trkpt>
      <trkpt lat="48.40466" lon="2.66388">
        <ele>298.89</ele>
        <time>2021-02-20T14:30:23Z</time>
      </trkpt>
      <trkpt lat="48.40463" lon="2.66385">
        <ele>299.45</ele>
        <time>2021-02-20T14:30:38Z</time>
      </trkpt>
      <trkpt lat="48.40465" lon="2.6639">
        <ele>299.32</ele>
        <time>2021-02-20T14:30:58Z</time>
      </trkpt>
      <trkpt lat="48.40464" lon="2.66383">
        <ele>299.42</ele>
        <time>2021-02-20T14:31:12Z</time>
      </trkpt>
      <trkpt lat="48.40461" lon="2.66369">
        <ele>297.76</ele>
        <time>2021-02-20T14:31:26Z</time>
      </trkpt>
      <trkpt lat="48.40451" lon="2.66373">
        <ele>296.38</ele>
        <time>2021-02-20T14:31:41Z</time>
      </trkpt>
      <trkpt lat="48.40442" lon="2.6636">
        <ele>295.15</ele>
        <time>2021-02-20T14:31:59Z</time>
      </trkpt>
      <trkpt lat="48.40444" lon="2.66341">
        <ele>293.18</ele>
        <time>2021-02-20T14:32:15Z</time>
      </trkpt>
      <trkpt lat="48.4044" lon="2.66327">
        <ele>291</ele>
        <time>2021-02-20T14:32:34Z</time>
      </trkpt>
      <trkpt lat="48.40437" lon="2.66317">
        <ele>289.41</ele>
        <time>2021-02-20T14:32:42Z</time>
      </trkpt>
      <trkpt lat="48.40437" lon="2.66316">
        <ele>289.34</ele>
        <time>2021-02-20T14:32:43Z</time>
      </trkpt>
      <trkpt lat="48.40437" lon="2.66314">
        <ele>289.22</ele>
        <time>2021-02-20T14:32:44Z</time>
      </trkpt>
      <trkpt lat="48.40437" lon="2.66312">
        <ele>288.99</ele>
        <time>2021-02-20T14:32:45Z</time>
      </trkpt>
      <trkpt lat="48.40437" lon="2.6631">
        <ele>288.48</ele>
        <time>2021-02-20T14:32:46Z</time>
      </trkpt>
      <trkpt lat="48.40438" lon="2.66286">
        <ele>285.29</ele>
        <time>2021-02-20T14:33:00Z</time>
      </trkpt>
      <trkpt lat="48.40446" lon="2.66266">
        <ele>282.16</ele>
        <time>2021-02-20T14:33:11Z</time>
      </trkpt>
      <trkpt lat="48.40464" lon="2.66246">
        <ele>280.82</ele>
        <time>2021-02-20T14:33:28Z</time>
      </trkpt>
      <trkpt lat="48.40482" lon="2.66235">
        <ele>281.43</ele>
        <time>2021-02-20T14:33:43Z</time>
      </trkpt>
      <trkpt lat="48.40496" lon="2.66232">
        <ele>280.61</ele>
        <time>2021-02-20T14:33:56Z</time>
      </trkpt>
      <trkpt lat="48.40497" lon="2.66233">
        <ele>280.57</ele>
        <time>2021-02-20T14:33:57Z</time>
      </trkpt>
      <trkpt lat="48.40498" lon="2.66234">
        <ele>280.54</ele>
        <time>2021-02-20T14:33:58Z</time>
      </trkpt>
      <trkpt lat="48.405" lon="2.66235">
        <ele>280.5</ele>
        <time>2021-02-20T14:33:59Z</time>
      </trkpt>
      <trkpt lat="48.40502" lon="2.66236">
        <ele>280.45</ele>
        <time>2021-02-20T14:34:00Z</time>
      </trkpt>
      <trkpt lat="48.40504" lon="2.66238">
        <ele>280.32</ele>
        <time>2021-02-20T14:34:01Z</time>
      </trkpt>
      <trkpt lat="48.40506" lon="2.66241">
        <ele>280.08</ele>
        <time>2021-02-20T14:34:02Z</time>
      </trkpt>
      <trkpt lat="48.40508" lon="2.66244">
        <ele>279.78</ele>
        <time>2021-02-20T14:34:03Z</time>
      </trkpt>
      <trkpt lat="48.40522" lon="2.66259">
        <ele>276.69</ele>
        <time>2021-02-20T14:34:13Z</time>
      </trkpt>
      <trkpt lat="48.40527" lon="2.66266">
        <ele>276.3</ele>
        <time>2021-02-20T14:34:18Z</time>
      </trkpt>
      <trkpt lat="48.40531" lon="2.66283">
        <ele>276.35</ele>
        <time>2021-02-20T14:34:30Z</time>
      </trkpt>
      <trkpt lat="48.40531" lon="2.66284">
        <ele>276.35</ele>
        <time>2021-02-20T14:34:31Z</time>
      </trkpt>
      <trkpt lat="48.40531" lon="2.66286">
        <ele>276.35</ele>
        <time>2021-02-20T14:34:32Z</time>
      </trkpt>
      <trkpt lat="48.40531" lon="2.66287">
        <ele>276.35</ele>
        <time>2021-02-20T14:34:33Z</time>
      </trkpt>
      <trkpt lat="48.40531" lon="2.66289">
        <ele>276.4</ele>
        <time>2021-02-20T14:34:34Z</time>
      </trkpt>
      <trkpt lat="48.40533" lon="2.66295">
        <ele>276.45</ele>
        <time>2021-02-20T14:34:38Z</time>
      </trkpt>
      <trkpt lat="48.40534" lon="2.66336">
        <ele>275.85</ele>
        <time>2021-02-20T14:34:53Z</time>
      </trkpt>
      <trkpt lat="48.40536" lon="2.6637">
        <ele>273.5</ele>
        <time>2021-02-20T14:35:04Z</time>
      </trkpt>
      <trkpt lat="48.40528" lon="2.66392">
        <ele>272.9</ele>
        <time>2021-02-20T14:35:17Z</time>
      </trkpt>
      <trkpt lat="48.40527" lon="2.66395">
        <ele>272.89</ele>
        <time>2021-02-20T14:35:18Z</time>
      </trkpt>
      <trkpt lat="48.40527" lon="2.66399">
        <ele>272.88</ele>
        <time>2021-02-20T14:35:19Z</time>
      </trkpt>
      <trkpt lat="48.40527" lon="2.66402">
        <ele>272.86</ele>
        <time>2021-02-20T14:35:20Z</time>
      </trkpt>
      <trkpt lat="48.40527" lon="2.66404">
        <ele>272.85</ele>
        <time>2021-02-20T14:35:21Z</time>
      </trkpt>
      <trkpt lat="48.40527" lon="2.66406">
        <ele>272.82</ele>
        <time>2021-02-20T14:35:22Z</time>
      </trkpt>
      <trkpt lat="48.40528" lon="2.6641">
        <ele>272.48</ele>
        <time>2021-02-20T14:35:24Z</time>
      </trkpt>
      <trkpt lat="48.4053" lon="2.66419">
        <ele>271.31</ele>
        <time>2021-02-20T14:35:27Z</time>
      </trkpt>
      <trkpt lat="48.40529" lon="2.66422">
        <ele>270.36</ele>
        <time>2021-02-20T14:35:28Z</time>
      </trkpt>
      <trkpt lat="48.4053" lon="2.66426">
        <ele>269.72</ele>
        <time>2021-02-20T14:35:29Z</time>
      </trkpt>
      <trkpt lat="48.4053" lon="2.66429">
        <ele>269.12</ele>
        <time>2021-02-20T14:35:30Z</time>
      </trkpt>
      <trkpt lat="48.4053" lon="2.66432">
        <ele>268.63</ele>
        <time>2021-02-20T14:35:31Z</time>
      </trkpt>
      <trkpt lat="48.40529" lon="2.66435">
        <ele>268.24</ele>
        <time>2021-02-20T14:35:32Z</time>
      </trkpt>
      <trkpt lat="48.40529" lon="2.6644">
        <ele>267.3</ele>
        <time>2021-02-20T14:35:34Z</time>
      </trkpt>
      <trkpt lat="48.40519" lon="2.66461">
        <ele>263.82</ele>
        <time>2021-02-20T14:35:42Z</time>
      </trkpt>
      <trkpt lat="48.40517" lon="2.66465">
        <ele>262.86</ele>
        <time>2021-02-20T14:35:44Z</time>
      </trkpt>
      <trkpt lat="48.40516" lon="2.66467">
        <ele>262.53</ele>
        <time>2021-02-20T14:35:45Z</time>
      </trkpt>
      <trkpt lat="48.40516" lon="2.66468">
        <ele>262.27</ele>
        <time>2021-02-20T14:35:46Z</time>
      </trkpt>
      <trkpt lat="48.40515" lon="2.6647">
        <ele>262.05</ele>
        <time>2021-02-20T14:35:47Z</time>
      </trkpt>
      <trkpt lat="48.40514" lon="2.66471">
        <ele>261.85</ele>
        <time>2021-02-20T14:35:48Z</time>
      </trkpt>
      <trkpt lat="48.40498" lon="2.66489">
        <ele>260.61</ele>
        <time>2021-02-20T14:36:02Z</time>
      </trkpt>
      <trkpt lat="48.40482" lon="2.66528">
        <ele>258.25</ele>
        <time>2021-02-20T14:36:14Z</time>
      </trkpt>
      <trkpt lat="48.40476" lon="2.66559">
        <ele>255.41</ele>
        <time>2021-02-20T14:36:27Z</time>
      </trkpt>
      <trkpt lat="48.40471" lon="2.66579">
        <ele>253.73</ele>
        <time>2021-02-20T14:36:39Z</time>
      </trkpt>
      <trkpt lat="48.40471" lon="2.66582">
        <ele>254.06</ele>
        <time>2021-02-20T14:36:40Z</time>
      </trkpt>
      <trkpt lat="48.4047" lon="2.66583">
        <ele>254.29</ele>
        <time>2021-02-20T14:36:41Z</time>
      </trkpt>
      <trkpt lat="48.4047" lon="2.66585">
        <ele>254.41</ele>
        <time>2021-02-20T14:36:42Z</time>
      </trkpt>
      <trkpt lat="48.4047" lon="2.66587">
        <ele>254.48</ele>
        <time>2021-02-20T14:36:43Z</time>
      </trkpt>
      <trkpt lat="48.4047" lon="2.66589">
        <ele>254.39</ele>
        <time>2021-02-20T14:36:44Z</time>
      </trkpt>
      <trkpt lat="48.40469" lon="2.66591">
        <ele>254.18</ele>
        <time>2021-02-20T14:36:45Z</time>
      </trkpt>
      <trkpt lat="48.40469" lon="2.66593">
        <ele>253.94</ele>
        <time>2021-02-20T14:36:46Z</time>
      </trkpt>
      <trkpt lat="48.40468" lon="2.66595">
        <ele>253.72</ele>
        <time>2021-02-20T14:36:47Z</time>
      </trkpt>
      <trkpt lat="48.40468" lon="2.66597">
        <ele>253.52</ele>
        <time>2021-02-20T14:36:48Z</time>
      </trkpt>
      <trkpt lat="48.40467" lon="2.66599">
        <ele>253.37</ele>
        <time>2021-02-20T14:36:49Z</time>
      </trkpt>
      <trkpt lat="48.40467" lon="2.66602">
        <ele>253.14</ele>
        <time>2021-02-20T14:36:51Z</time>
      </trkpt>
      <trkpt lat="48.40467" lon="2.66604">
        <ele>253.03</ele>
        <time>2021-02-20T14:36:52Z</time>
      </trkpt>
      <trkpt lat="48.40468" lon="2.66641">
        <ele>252.62</ele>
        <time>2021-02-20T14:37:12Z</time>
      </trkpt>
      <trkpt lat="48.40471" lon="2.66668">
        <ele>252.37</ele>
        <time>2021-02-20T14:37:28Z</time>
      </trkpt>
      <trkpt lat="48.40471" lon="2.6667">
        <ele>252.36</ele>
        <time>2021-02-20T14:37:29Z</time>
      </trkpt>
      <trkpt lat="48.40471" lon="2.66672">
        <ele>252.34</ele>
        <time>2021-02-20T14:37:30Z</time>
      </trkpt>
      <trkpt lat="48.40476" lon="2.66704">
        <ele>252.83</ele>
        <time>2021-02-20T14:37:50Z</time>
      </trkpt>
      <trkpt lat="48.40479" lon="2.66727">
        <ele>252.22</ele>
        <time>2021-02-20T14:38:03Z</time>
      </trkpt>
      <trkpt lat="48.40478" lon="2.66751">
        <ele>251.75</ele>
        <time>2021-02-20T14:38:16Z</time>
      </trkpt>
      <trkpt lat="48.40478" lon="2.66753">
        <ele>251.73</ele>
        <time>2021-02-20T14:38:17Z</time>
      </trkpt>
      <trkpt lat="48.40478" lon="2.66755">
        <ele>251.65</ele>
        <time>2021-02-20T14:38:18Z</time>
      </trkpt>
      <trkpt lat="48.40478" lon="2.66757">
        <ele>251.55</ele>
        <time>2021-02-20T14:38:19Z</time>
      </trkpt>
      <trkpt lat="48.40478" lon="2.66759">
        <ele>251.49</ele>
        <time>2021-02-20T14:38:20Z</time>
      </trkpt>
      <trkpt lat="48.40474" lon="2.66783">
        <ele>251.32</ele>
        <time>2021-02-20T14:38:35Z</time>
      </trkpt>
      <trkpt lat="48.40475" lon="2.66804">
        <ele>250.4</ele>
        <time>2021-02-20T14:38:50Z</time>
      </trkpt>
      <trkpt lat="48.40489" lon="2.66815">
        <ele>251.07</ele>
        <time>2021-02-20T14:39:09Z</time>
      </trkpt>
      <trkpt lat="48.40492" lon="2.66816">
        <ele>250.96</ele>
        <time>2021-02-20T14:39:27Z</time>
      </trkpt>
      <trkpt lat="48.40486" lon="2.66817">
        <ele>250.36</ele>
        <time>2021-02-20T14:40:05Z</time>
      </trkpt>
      <trkpt lat="48.40486" lon="2.66818">
        <ele>250.66</ele>
        <time>2021-02-20T14:40:35Z</time>
      </trkpt>
      <trkpt lat="48.40482" lon="2.66812">
        <ele>250.66</ele>
        <time>2021-02-20T14:42:03Z</time>
      </trkpt>
      <trkpt lat="48.40477" lon="2.66816">
        <ele>250.66</ele>
        <time>2021-02-20T14:42:23Z</time>
      </trkpt>
      <trkpt lat="48.40468" lon="2.66834">
        <ele>250.4</ele>
        <time>2021-02-20T14:42:42Z</time>
      </trkpt>
      <trkpt lat="48.40466" lon="2.66848">
        <ele>249.27</ele>
        <time>2021-02-20T14:42:56Z</time>
      </trkpt>
      <trkpt lat="48.40465" lon="2.66849">
        <ele>249.25</ele>
        <time>2021-02-20T14:42:57Z</time>
      </trkpt>
      <trkpt lat="48.40456" lon="2.66876">
        <ele>248.76</ele>
        <time>2021-02-20T14:43:15Z</time>
      </trkpt>
      <trkpt lat="48.40445" lon="2.66901">
        <ele>247.38</ele>
        <time>2021-02-20T14:43:33Z</time>
      </trkpt>
      <trkpt lat="48.40444" lon="2.66903">
        <ele>247.08</ele>
        <time>2021-02-20T14:43:34Z</time>
      </trkpt>
      <trkpt lat="48.40437" lon="2.66922">
        <ele>250.59</ele>
        <time>2021-02-20T14:43:46Z</time>
      </trkpt>
      <trkpt lat="48.40427" lon="2.66944">
        <ele>247.52</ele>
        <time>2021-02-20T14:43:58Z</time>
      </trkpt>
      <trkpt lat="48.40426" lon="2.66948">
        <ele>246.75</ele>
        <time>2021-02-20T14:44:00Z</time>
      </trkpt>
      <trkpt lat="48.40414" lon="2.66976">
        <ele>246.32</ele>
        <time>2021-02-20T14:44:16Z</time>
      </trkpt>
      <trkpt lat="48.40403" lon="2.67005">
        <ele>246.02</ele>
        <time>2021-02-20T14:44:34Z</time>
      </trkpt>
      <trkpt lat="48.40394" lon="2.67033">
        <ele>245.16</ele>
        <time>2021-02-20T14:44:52Z</time>
      </trkpt>
      <trkpt lat="48.40382" lon="2.67064">
        <ele>244.8</ele>
        <time>2021-02-20T14:45:13Z</time>
      </trkpt>
      <trkpt lat="48.40368" lon="2.67095">
        <ele>245.21</ele>
        <time>2021-02-20T14:45:31Z</time>
      </trkpt>
      <trkpt lat="48.40356" lon="2.67129">
        <ele>244.25</ele>
        <time>2021-02-20T14:45:48Z</time>
      </trkpt>
      <trkpt lat="48.40345" lon="2.67155">
        <ele>244.24</ele>
        <time>2021-02-20T14:46:05Z</time>
      </trkpt>
      <trkpt lat="48.40335" lon="2.67178">
        <ele>244.12</ele>
        <time>2021-02-20T14:46:20Z</time>
      </trkpt>
      <trkpt lat="48.40326" lon="2.67201">
        <ele>244.29</ele>
        <time>2021-02-20T14:46:35Z</time>
      </trkpt>
      <trkpt lat="48.40316" lon="2.67231">
        <ele>244.03</ele>
        <time>2021-02-20T14:46:53Z</time>
      </trkpt>
      <trkpt lat="48.4031" lon="2.67247">
        <ele>244.12</ele>
        <time>2021-02-20T14:47:01Z</time>
      </trkpt>
      <trkpt lat="48.40299" lon="2.67273">
        <ele>244.22</ele>
        <time>2021-02-20T14:47:17Z</time>
      </trkpt>
      <trkpt lat="48.40287" lon="2.67301">
        <ele>244.15</ele>
        <time>2021-02-20T14:47:34Z</time>
      </trkpt>
      <trkpt lat="48.40278" lon="2.67321">
        <ele>243.94</ele>
        <time>2021-02-20T14:47:49Z</time>
      </trkpt>
      <trkpt lat="48.40269" lon="2.6734">
        <ele>243.92</ele>
        <time>2021-02-20T14:48:05Z</time>
      </trkpt>
      <trkpt lat="48.40261" lon="2.67359">
        <ele>243.98</ele>
        <time>2021-02-20T14:48:22Z</time>
      </trkpt>
      <trkpt lat="48.40259" lon="2.67364">
        <ele>243.71</ele>
        <time>2021-02-20T14:48:27Z</time>
      </trkpt>
      <trkpt lat="48.40254" lon="2.67383">
        <ele>243.88</ele>
        <time>2021-02-20T14:48:43Z</time>
      </trkpt>
      <trkpt lat="48.40256" lon="2.67384">
        <ele>245.07</ele>
        <time>2021-02-20T14:49:00Z</time>
      </trkpt>
      <trkpt lat="48.40256" lon="2.67383">
        <ele>244.34</ele>
        <time>2021-02-20T14:49:20Z</time>
      </trkpt>
      <trkpt lat="48.40255" lon="2.67382">
        <ele>244.8</ele>
        <time>2021-02-20T14:49:42Z</time>
      </trkpt>
      <trkpt lat="48.40258" lon="2.67385">
        <ele>244.86</ele>
        <time>2021-02-20T14:49:51Z</time>
      </trkpt>
      <trkpt lat="48.40259" lon="2.67386">
        <ele>244.84</ele>
        <time>2021-02-20T14:49:52Z</time>
      </trkpt>
      <trkpt lat="48.40263" lon="2.6739">
        <ele>244.76</ele>
        <time>2021-02-20T14:49:57Z</time>
      </trkpt>
      <trkpt lat="48.40265" lon="2.67391">
        <ele>244.75</ele>
        <time>2021-02-20T14:49:58Z</time>
      </trkpt>
      <trkpt lat="48.40275" lon="2.67397">
        <ele>245.94</ele>
        <time>2021-02-20T14:50:09Z</time>
      </trkpt>
      <trkpt lat="48.40291" lon="2.67406">
        <ele>243.42</ele>
        <time>2021-02-20T14:50:23Z</time>
      </trkpt>
      <trkpt lat="48.40299" lon="2.67414">
        <ele>245.27</ele>
        <time>2021-02-20T14:50:31Z</time>
      </trkpt>
      <trkpt lat="48.40307" lon="2.67423">
        <ele>244.93</ele>
        <time>2021-02-20T14:50:40Z</time>
      </trkpt>
      <trkpt lat="48.4031" lon="2.67427">
        <ele>244.66</ele>
        <time>2021-02-20T14:50:43Z</time>
      </trkpt>
      <trkpt lat="48.40321" lon="2.67438">
        <ele>244.36</ele>
        <time>2021-02-20T14:50:54Z</time>
      </trkpt>
      <trkpt lat="48.40323" lon="2.67439">
        <ele>244.36</ele>
        <time>2021-02-20T14:50:55Z</time>
      </trkpt>
      <trkpt lat="48.40341" lon="2.67464">
        <ele>245.08</ele>
        <time>2021-02-20T14:51:14Z</time>
      </trkpt>
      <trkpt lat="48.40354" lon="2.6748">
        <ele>245.06</ele>
        <time>2021-02-20T14:51:30Z</time>
      </trkpt>
      <trkpt lat="48.40357" lon="2.67483">
        <ele>244.97</ele>
        <time>2021-02-20T14:51:33Z</time>
      </trkpt>
      <trkpt lat="48.40358" lon="2.67483">
        <ele>245.02</ele>
        <time>2021-02-20T14:51:34Z</time>
      </trkpt>
      <trkpt lat="48.40359" lon="2.67484">
        <ele>245.12</ele>
        <time>2021-02-20T14:51:35Z</time>
      </trkpt>
      <trkpt lat="48.40372" lon="2.67501">
        <ele>245.72</ele>
        <time>2021-02-20T14:51:50Z</time>
      </trkpt>
      <trkpt lat="48.40377" lon="2.67511">
        <ele>245.76</ele>
        <time>2021-02-20T14:51:58Z</time>
      </trkpt>
      <trkpt lat="48.40376" lon="2.67512">
        <ele>245.78</ele>
        <time>2021-02-20T14:51:59Z</time>
      </trkpt>
      <trkpt lat="48.40368" lon="2.67529">
        <ele>246.41</ele>
        <time>2021-02-20T14:52:14Z</time>
      </trkpt>
      <trkpt lat="48.4037" lon="2.67534">
        <ele>246.23</ele>
        <time>2021-02-20T14:52:17Z</time>
      </trkpt>
      <trkpt lat="48.4038" lon="2.67543">
        <ele>247.63</ele>
        <time>2021-02-20T14:52:30Z</time>
      </trkpt>
      <trkpt lat="48.40381" lon="2.67545">
        <ele>247.34</ele>
        <time>2021-02-20T14:52:32Z</time>
      </trkpt>
      <trkpt lat="48.40383" lon="2.67547">
        <ele>247.12</ele>
        <time>2021-02-20T14:52:34Z</time>
      </trkpt>
      <trkpt lat="48.40383" lon="2.67548">
        <ele>247.07</ele>
        <time>2021-02-20T14:52:35Z</time>
      </trkpt>
      <trkpt lat="48.40384" lon="2.6755">
        <ele>246.94</ele>
        <time>2021-02-20T14:52:36Z</time>
      </trkpt>
      <trkpt lat="48.40388" lon="2.67558">
        <ele>246.79</ele>
        <time>2021-02-20T14:52:42Z</time>
      </trkpt>
      <trkpt lat="48.40389" lon="2.67559">
        <ele>246.87</ele>
        <time>2021-02-20T14:52:43Z</time>
      </trkpt>
      <trkpt lat="48.4039" lon="2.6756">
        <ele>246.9</ele>
        <time>2021-02-20T14:52:44Z</time>
      </trkpt>
      <trkpt lat="48.40391" lon="2.67561">
        <ele>246.92</ele>
        <time>2021-02-20T14:52:45Z</time>
      </trkpt>
      <trkpt lat="48.40392" lon="2.67561">
        <ele>246.93</ele>
        <time>2021-02-20T14:52:46Z</time>
      </trkpt>
      <trkpt lat="48.40406" lon="2.67559">
        <ele>246.89</ele>
        <time>2021-02-20T14:52:57Z</time>
      </trkpt>
      <trkpt lat="48.40407" lon="2.67559">
        <ele>246.9</ele>
        <time>2021-02-20T14:52:58Z</time>
      </trkpt>
      <trkpt lat="48.40408" lon="2.6756">
        <ele>246.9</ele>
        <time>2021-02-20T14:52:59Z</time>
      </trkpt>
      <trkpt lat="48.4041" lon="2.67561">
        <ele>246.87</ele>
        <time>2021-02-20T14:53:00Z</time>
      </trkpt>
      <trkpt lat="48.40411" lon="2.67563">
        <ele>246.85</ele>
        <time>2021-02-20T14:53:01Z</time>
      </trkpt>
      <trkpt lat="48.40412" lon="2.67564">
        <ele>246.85</ele>
        <time>2021-02-20T14:53:02Z</time>
      </trkpt>
      <trkpt lat="48.40425" lon="2.67582">
        <ele>247.03</ele>
        <time>2021-02-20T14:53:18Z</time>
      </trkpt>
      <trkpt lat="48.40432" lon="2.67593">
        <ele>247.07</ele>
        <time>2021-02-20T14:53:27Z</time>
      </trkpt>
      <trkpt lat="48.40433" lon="2.67594">
        <ele>247.05</ele>
        <time>2021-02-20T14:53:28Z</time>
      </trkpt>
      <trkpt lat="48.40451" lon="2.67619">
        <ele>247.11</ele>
        <time>2021-02-20T14:53:47Z</time>
      </trkpt>
      <trkpt lat="48.40466" lon="2.67634">
        <ele>247.3</ele>
        <time>2021-02-20T14:54:02Z</time>
      </trkpt>
      <trkpt lat="48.4048" lon="2.67643">
        <ele>246.9</ele>
        <time>2021-02-20T14:54:18Z</time>
      </trkpt>
      <trkpt lat="48.40495" lon="2.67657">
        <ele>247.98</ele>
        <time>2021-02-20T14:54:34Z</time>
      </trkpt>
      <trkpt lat="48.40495" lon="2.67659">
        <ele>248.05</ele>
        <time>2021-02-20T14:54:35Z</time>
      </trkpt>
      <trkpt lat="48.40496" lon="2.67669">
        <ele>249.07</ele>
        <time>2021-02-20T14:54:42Z</time>
      </trkpt>
      <trkpt lat="48.40496" lon="2.67672">
        <ele>249.07</ele>
        <time>2021-02-20T14:54:43Z</time>
      </trkpt>
      <trkpt lat="48.40496" lon="2.67674">
        <ele>249.04</ele>
        <time>2021-02-20T14:54:44Z</time>
      </trkpt>
      <trkpt lat="48.405" lon="2.6771">
        <ele>248.8</ele>
        <time>2021-02-20T14:55:02Z</time>
      </trkpt>
      <trkpt lat="48.40499" lon="2.67732">
        <ele>249.2</ele>
        <time>2021-02-20T14:55:15Z</time>
      </trkpt>
      <trkpt lat="48.40495" lon="2.67757">
        <ele>249.44</ele>
        <time>2021-02-20T14:55:30Z</time>
      </trkpt>
      <trkpt lat="48.40485" lon="2.6778">
        <ele>249.6</ele>
        <time>2021-02-20T14:55:46Z</time>
      </trkpt>
      <trkpt lat="48.40466" lon="2.67792">
        <ele>247.53</ele>
        <time>2021-02-20T14:56:03Z</time>
      </trkpt>
      <trkpt lat="48.40465" lon="2.67793">
        <ele>247.6</ele>
        <time>2021-02-20T14:56:04Z</time>
      </trkpt>
    </trkseg>
  </trk>
</gpx>